[[{"header":{"parameterUnit":"m.s-1","parameterCategory":1,"la1":31.0,"la2":29.5877,"lo1":-88.7671,"lo2":-86.6584,"dy":0.0162,"dx":0.0185,"nx":115,"ny":88,"refTime":"2023-05-22T00:00:00:Z","depth":0,"parameterNumber":2,"parameterNumberName":"U-component_of_WINDS"},"data":[0.0,0.0,0.0,0.0,0.0,0.0,0.0,0.0,0.0,0.0,0.0,0.0,0.0,0.0,0.0,0.0,0.0,0.0,0.0,0.0,0.0,0.0,0.0,0.0,0.0,0.0,0.0,0.0,0.0,0.0,0.0,0.0,0.0,0.0,0.0,0.0,0.0,0.0,0.0,0.0,0.0,0.0,0.0,0.0,0.0,0.0,0.0,0.0,0.0,0.0,0.0,0.0,0.0,0.0,0.0,0.0,0.0,0.0,0.0,0.0,0.0,0.0,0.0,0.0,0.0,0.0,0.0,0.0,0.0,0.0,0.0,0.0,0.0,0.0,0.0,0.0,0.0,0.0,0.0,0.0,0.0,0.0,0.0,0.0,0.0,0.0,0.0,0.0,0.0,0.0,0.0,0.0,0.0,0.0,0.0,0.0,0.0,0.0,0.0,0.0,0.0,0.0,0.0,0.0,0.0,0.0,0.0,0.0,0.0,0.0,0.0,0.0,0.0,0.0,0.0,0.0,0.0,0.0,0.0,0.0,0.0,0.0,0.0,0.0,0.0,0.0,0.0,0.0,0.0,0.0,0.0,0.0,0.0,0.0,0.0,0.0,0.0,0.0,0.0,0.0,0.0,0.0,0.0,0.0,0.0,0.0,0.0,0.0,0.0,0.0,0.0,0.0,0.0,0.0,0.0,0.0,0.0,0.0,0.0,0.0,0.0,0.0,0.0,0.0,0.0,0.0,0.0,0.0,0.0,0.0,0.0,0.0,0.0,0.0,0.0,0.0,0.0,0.0,0.0,0.0,0.0,0.0,0.0,0.0,0.0,0.0,0.0,0.0,0.0,0.0,0.0,0.0,0.0,0.0,0.0,0.0,0.0,0.0,0.0,0.0,0.0,0.0,0.0,0.0,0.0,0.0,0.0,0.0,0.0,0.0,0.0,0.0,0.0,0.0,0.0,0.0,0.0,0.0,0.0,0.0,0.0,0.0,0.0,0.0,0.0,0.0,0.0,0.0,0.0,0.0,0.0,0.0,0.0,0.0,0.0,0.0,0.0,0.0,0.0,0.0,0.0,0.0,0.0,0.0,0.0,0.0,0.0,0.0,0.0,0.0,0.0,0.0,0.0,0.0,0.0,0.0,0.0,0.0,0.0,0.0,0.0,0.0,0.0,0.0,0.0,0.0,0.0,0.0,0.0,0.0,0.0,0.0,0.0,0.0,0.0,0.0,0.0,0.0,0.0,0.0,0.0,0.0,0.0,0.0,0.0,0.0,0.0,0.0,0.0,0.0,0.0,0.0,0.0,0.0,0.0,0.0,0.0,0.0,0.0,0.0,0.0,0.0,0.0,0.0,0.0,0.0,0.0,0.0,0.0,0.0,0.0,0.0,0.0,0.0,0.0,0.0,0.0,0.0,0.0,0.0,0.0,0.0,0.0,0.0,0.0,0.0,0.0,0.0,0.0,0.0,0.0,0.0,0.0,0.0,0.0,0.0,0.0,0.0,0.0,0.0,0.0,0.0,0.0,0.0,0.0,0.0,0.0,0.0,0.0,0.0,0.0,0.0,0.0,0.0,0.0,0.0,0.0,0.0,0.0,0.0,0.0,0.0,0.0,0.0,0.0,0.0,0.0,0.0,0.0,0.0,0.0,0.0,0.0,0.0,0.0,0.0,0.0,0.0,0.0,0.0,0.0,0.0,0.0,0.0,0.0,0.0,0.0,0.0,0.0,0.0,0.0,0.0,0.0,0.0,0.0,0.0,0.0,0.0,0.0,0.0,0.0,0.0,0.0,0.0,0.0,0.0,0.0,0.0,0.0,0.0,0.0,0.0,0.0,0.0,0.0,0.0,0.0,0.0,0.0,0.0,0.0,0.0,0.0,0.0,0.0,0.0,0.0,0.0,0.0,0.0,0.0,0.0,0.0,0.0,0.0,0.0,0.0,0.0,0.0,0.0,0.0,0.0,0.0,0.0,0.0,0.0,0.0,0.0,0.0,0.0,0.0,0.0,0.0,0.0,0.0,0.0,0.0,0.0,0.0,0.0,0.0,0.0,0.0,0.0,0.0,0.0,0.0,0.0,0.0,0.0,0.0,0.0,0.0,0.0,0.0,0.0,0.0,0.0,0.0,0.0,0.0,0.0,0.0,0.0,0.0,0.0,0.0,0.0,0.0,0.0,0.0,0.0,0.0,0.0,0.0,0.0,0.0,0.0,0.0,0.0,0.0,0.0,0.0,0.0,0.0,0.0,0.0,0.0,0.0,0.0,0.0,0.0,0.0,0.0,0.0,0.0,0.0,0.0,0.0,0.0,0.0,0.0,0.0,0.0,0.0,0.0,0.0,0.0,0.0,0.0,0.0,0.0,0.0,0.0,0.0,0.0,0.0,0.0,0.0,0.0,0.0,0.0,0.0,0.0,0.0,0.0,0.0,0.0,0.0,0.0,0.0,0.0,0.0,0.0,0.0,0.0,0.0,0.0,0.0,0.0,0.0,0.0,0.0,0.0,0.0,0.0,0.0,0.0,0.0,0.0,0.0,0.0,0.0,0.0,0.0,0.0,0.0,0.0,0.0,0.0,0.0,0.0,0.0,0.0,0.0,0.0,0.0,0.0,0.0,0.0,0.0,0.0,0.0,0.0,0.0,0.0,0.0,0.0,0.0,0.0,0.0,0.0,0.0,0.0,0.0,0.0,0.0,0.0,0.0,0.0,0.0,0.0,0.0,0.0,0.0,0.0,0.0,0.0,0.0,0.0,0.0,0.0,0.0,0.0,0.0,0.0,0.0,0.0,0.0,0.0,0.0,0.0,0.0,0.0,0.0,0.0,0.0,0.0,0.0,0.0,0.0,0.0,0.0,0.0,0.0,0.0,0.0,0.0,0.0,0.0,0.0,0.0,0.0,0.0,0.0,0.0,0.0,0.0,0.0,0.0,0.0,0.0,0.0,0.0,0.0,0.0,0.0,0.0,0.0,0.0,0.0,0.0,0.0,0.0,0.0,0.0,0.0,0.0,0.0,0.0,0.0,0.0,0.0,0.0,0.0,0.0,0.0,0.0,0.0,0.0,0.0,0.0,0.0,0.0,0.0,0.0,0.0,0.0,0.0,0.0,0.0,0.0,0.0,0.0,0.0,0.0,0.0,0.0,0.0,0.0,0.0,0.0,0.0,0.0,0.0,0.0,0.0,0.0,0.0,0.0,0.0,0.0,0.0,0.0,0.0,0.0,0.0,0.0,0.0,0.0,0.0,0.0,0.0,0.0,0.0,0.0,0.0,0.0,0.0,0.0,0.0,0.0,0.0,0.0,0.0,0.0,0.0,0.0,0.0,0.0,0.0,0.0,0.0,0.0,0.0,0.0,0.0,0.0,0.0,0.0,0.0,0.0,0.0,0.0,0.0,0.0,0.0,0.0,0.0,0.0,0.0,0.0,0.0,0.0,0.0,0.0,0.0,0.0,0.0,0.0,0.0,0.0,0.0,0.0,0.0,0.0,0.0,0.0,0.0,0.0,0.0,0.0,0.0,0.0,0.0,0.0,0.0,0.0,0.0,0.0,0.0,0.0,0.0,0.0,0.0,0.0,0.0,0.0,0.0,0.0,0.0,0.0,0.0,0.0,0.0,0.0,0.0,0.0,0.0,0.0,0.0,0.0,0.0,0.0,0.0,0.0,0.0,0.0,0.0,0.0,0.0,0.0,0.0,0.0,0.0,0.0,0.0,0.0,0.0,0.0,0.0,0.0,0.0,0.0,0.0,0.0,0.0,0.0,0.0,0.0,0.0,0.0,0.0,0.0,0.0,0.0,0.0,0.0,0.0,0.0,0.0,0.0,0.0,0.0,0.0,0.0,0.0,0.0,0.0,0.0,0.0,0.0,0.0,0.0,0.0,0.0,0.0,0.0,0.0,0.0,0.0,0.0,0.0,0.0,0.0,0.0,0.0,0.0,0.0,0.0,0.0,0.0,0.0,0.0,0.0,0.0,0.0,0.0,0.0,0.0,0.0,0.0,0.0,0.0,0.0,0.0,0.0,0.0,0.0,0.0,0.0,0.0,0.0,0.0,0.0,0.0,0.0,0.0,0.0,0.0,0.0,0.0,0.0,0.0,0.0,0.0,0.0,0.0,0.0,0.0,0.0,0.0,0.0,0.0,0.0,0.0,0.0,0.0,0.0,0.0,0.0,0.0,0.0,0.0,0.0,0.0,0.0,0.0,0.0,0.0,0.0,0.0,0.0,0.0,0.0,0.0,0.0,0.0,0.0,0.0,0.0,0.0,0.0,0.0,0.0,0.0,2.2894,0.0,0.0,0.0,0.0,0.0,0.0,0.0,0.0,0.0,0.0,0.0,0.0,0.0,0.0,0.0,0.0,0.0,0.0,0.0,0.0,0.0,0.0,0.0,0.0,0.0,0.0,0.0,0.0,0.0,0.0,0.0,0.0,0.0,0.0,0.0,0.0,0.0,0.0,0.0,0.0,0.0,0.0,0.0,0.0,0.0,0.0,0.0,0.0,0.0,0.0,0.0,0.0,0.0,0.0,0.0,0.0,0.0,0.0,0.0,0.0,0.0,0.0,0.0,0.0,0.0,0.0,0.0,0.0,0.0,0.0,0.0,0.0,0.0,0.0,0.0,0.0,0.0,0.0,0.0,0.0,0.0,0.0,0.0,0.0,0.0,0.0,0.0,0.0,0.0,0.0,0.0,0.0,0.0,0.0,0.0,0.0,0.0,0.0,0.0,0.0,0.0,0.0,0.0,0.0,0.0,0.0,0.0,0.0,0.0,0.0,2.3551,2.3453,2.3847,2.4041,2.4041,0.0,0.0,0.0,0.0,0.0,0.0,0.0,0.0,0.0,0.0,0.0,0.0,0.0,0.0,0.0,0.0,0.0,0.0,0.0,0.0,0.0,0.0,0.0,0.0,0.0,0.0,0.0,0.0,0.0,0.0,0.0,0.0,0.0,0.0,0.0,0.0,0.0,0.0,0.0,0.0,0.0,0.0,0.0,0.0,0.0,0.0,0.0,0.0,0.0,0.0,0.0,0.0,0.0,0.0,0.0,0.0,0.0,0.0,0.0,0.0,0.0,0.0,0.0,0.0,0.0,0.0,0.0,0.0,0.0,0.0,0.0,0.0,0.0,0.0,0.0,0.0,0.0,0.0,0.0,0.0,0.0,0.0,0.0,0.0,0.0,0.0,0.0,0.0,0.0,0.0,0.0,0.0,0.0,0.0,0.0,0.0,0.0,0.0,0.0,0.0,0.0,0.0,0.0,0.0,0.0,0.0,0.0,0.0,0.0,0.0,0.0,0.0,2.4706,2.4995,2.4995,0.0,0.0,0.0,0.0,0.0,0.0,0.0,0.0,0.0,0.0,0.0,0.0,0.0,0.0,0.0,0.0,0.0,0.0,0.0,0.0,0.0,0.0,0.0,0.0,0.0,0.0,0.0,0.0,0.0,0.0,0.0,0.0,0.0,0.0,0.0,0.0,0.0,0.0,0.0,0.0,0.0,0.0,0.0,0.0,0.0,0.0,0.0,0.0,0.0,0.0,0.0,0.0,0.0,0.0,0.0,0.0,0.0,0.0,0.0,0.0,0.0,0.0,0.0,0.0,0.0,0.0,0.0,0.0,0.0,0.0,0.0,0.0,0.0,0.0,0.0,0.0,0.0,0.0,0.0,0.0,0.0,0.0,0.0,0.0,0.0,0.0,0.0,0.0,0.0,0.0,0.0,0.0,0.0,0.0,0.0,0.0,0.0,0.0,0.0,0.0,0.0,0.0,0.0,0.0,0.0,0.0,0.0,0.0,0.0,0.0,2.512,2.5018,2.5003,0.0,2.4995,0.0,0.0,0.0,0.0,0.0,0.0,0.0,0.0,0.0,0.0,0.0,0.0,0.0,0.0,0.0,0.0,0.0,0.0,0.0,0.0,0.0,0.0,0.0,0.0,0.0,0.0,0.0,0.0,0.0,0.0,0.0,0.0,0.0,0.0,0.0,0.0,0.0,0.0,0.0,0.0,0.0,0.0,0.0,0.0,0.0,0.0,0.0,0.0,0.0,0.0,0.0,0.0,0.0,0.0,0.0,0.0,0.0,0.0,0.0,0.0,0.0,0.0,0.0,0.0,0.0,0.0,0.0,0.0,0.0,0.0,0.0,0.0,0.0,0.0,0.0,0.0,0.0,0.0,0.0,0.0,0.0,0.0,0.0,0.0,0.0,0.0,0.0,0.0,0.0,0.0,0.0,0.0,0.0,0.0,0.0,0.0,0.0,0.0,0.0,0.0,0.0,0.0,0.0,0.0,0.0,0.0,0.0,0.0,0.0,0.0,2.523,2.5096,2.5045,2.4995,0.0,0.0,0.0,0.0,0.0,0.0,0.0,0.0,0.0,0.0,0.0,0.0,0.0,0.0,0.0,0.0,0.0,0.0,0.0,0.0,0.0,0.0,0.0,0.0,0.0,0.0,0.0,0.0,0.0,0.0,0.0,0.0,0.0,0.0,0.0,0.0,0.0,0.0,0.0,0.0,0.0,0.0,0.0,0.0,0.0,0.0,0.0,0.0,0.0,0.0,0.0,0.0,0.0,0.0,0.0,0.0,0.0,0.0,0.0,0.0,0.0,0.0,0.0,0.0,0.0,0.0,0.0,0.0,0.0,0.0,0.0,0.0,0.0,0.0,0.0,0.0,0.0,0.0,0.0,0.0,0.0,0.0,0.0,0.0,0.0,0.0,0.0,0.0,0.0,0.0,0.0,0.0,0.0,0.0,0.0,0.0,0.0,0.0,0.0,0.0,0.0,0.0,0.0,0.0,0.0,0.0,0.0,0.0,0.0,0.0,2.5951,2.5822,2.5655,2.54,2.527,2.527,0.0,0.0,0.0,0.0,0.0,0.0,0.0,0.0,0.0,0.0,0.0,0.0,0.0,0.0,0.0,0.0,0.0,0.0,0.0,0.0,0.0,0.0,0.0,0.0,0.0,0.0,0.0,0.0,0.0,0.0,0.0,0.0,0.0,0.0,0.0,0.0,0.0,0.0,0.0,0.0,0.0,0.0,0.0,0.0,0.0,0.0,0.0,0.0,0.0,0.0,0.0,0.0,0.0,0.0,0.0,0.0,0.0,0.0,0.0,0.0,0.0,0.0,0.0,0.0,0.0,0.0,0.0,0.0,0.0,0.0,0.0,0.0,0.0,0.0,0.0,0.0,0.0,0.0,0.0,0.0,0.0,0.0,0.0,0.0,0.0,0.0,0.0,0.0,0.0,0.0,0.0,0.0,0.0,0.0,0.0,0.0,0.0,0.0,0.0,0.0,0.0,0.0,0.0,0.0,0.0,0.0,0.0,0.0,2.7561,2.7361,2.7216,2.6962,2.633,2.5945,0.0,0.0,0.0,0.0,0.0,0.0,0.0,0.0,0.0,0.0,0.0,0.0,0.0,0.0,0.0,0.0,0.0,0.0,0.0,0.0,0.0,0.0,0.0,0.0,0.0,0.0,0.0,0.0,0.0,0.0,0.0,0.0,0.0,0.0,0.0,0.0,0.0,0.0,0.0,0.0,0.0,0.0,0.0,0.0,0.0,0.0,0.0,0.0,0.0,0.0,0.0,0.0,0.0,0.0,0.0,0.0,0.0,0.0,0.0,0.0,0.0,0.0,0.0,0.0,0.0,0.0,0.0,0.0,0.0,0.0,0.0,0.0,0.0,0.0,0.0,0.0,0.0,0.0,0.0,0.0,0.0,0.0,0.0,0.0,0.0,0.0,0.0,0.0,0.0,0.0,0.0,0.0,0.0,0.0,0.0,0.0,0.0,0.0,0.0,0.0,0.0,0.0,0.0,0.0,0.0,0.0,0.0,0.0,0.0,2.7577,2.7353,2.7206,2.7088,2.6825,2.6704,0.0,0.0,0.0,0.0,0.0,0.0,0.0,0.0,0.0,0.0,0.0,0.0,0.0,0.0,0.0,0.0,0.0,0.0,0.0,0.0,0.0,0.0,0.0,0.0,0.0,0.0,0.0,0.0,0.0,0.0,0.0,0.0,0.0,0.0,0.0,0.0,0.0,0.0,0.0,0.0,0.0,0.0,0.0,0.0,0.0,0.0,0.0,0.0,0.0,0.0,0.0,0.0,0.0,0.0,0.0,0.0,0.0,0.0,0.0,0.0,0.0,0.0,0.0,0.0,0.0,0.0,0.0,0.0,0.0,0.0,0.0,0.0,0.0,0.0,0.0,0.0,0.0,0.0,0.0,0.0,0.0,0.0,0.0,0.0,0.0,0.0,0.0,0.0,0.0,0.0,0.0,0.0,0.0,0.0,0.0,0.0,0.0,0.0,0.0,0.0,0.0,0.0,0.0,0.0,0.0,0.0,0.0,0.0,0.0,2.8137,0.0,2.783,2.7736,2.7552,2.7431,0.0,0.0,0.0,0.0,0.0,0.0,0.0,0.0,0.0,0.0,0.0,0.0,0.0,0.0,0.0,0.0,0.0,0.0,0.0,0.0,0.0,0.0,0.0,0.0,0.0,0.0,0.0,0.0,0.0,0.0,0.0,0.0,0.0,0.0,0.0,0.0,0.0,0.0,0.0,0.0,0.0,0.0,0.0,0.0,0.0,0.0,0.0,0.0,0.0,0.0,0.0,0.0,0.0,0.0,0.0,0.0,0.0,0.0,0.0,0.0,0.0,0.0,0.0,0.0,0.0,0.0,0.0,0.0,0.0,0.0,0.0,0.0,0.0,0.0,0.0,0.0,0.0,0.0,0.0,0.0,0.0,0.0,0.0,0.0,0.0,0.0,0.0,0.0,0.0,0.0,0.0,0.0,0.0,0.0,0.0,0.0,0.0,0.0,0.0,0.0,0.0,0.0,0.0,0.0,0.0,0.0,0.0,0.0,2.9775,2.9517,2.9372,2.9215,2.9077,2.8468,2.8131,0.0,0.0,0.0,0.0,0.0,0.0,0.0,0.0,0.0,0.0,0.0,0.0,0.0,0.0,0.0,0.0,0.0,0.0,0.0,0.0,0.0,0.0,0.0,0.0,0.0,0.0,0.0,0.0,0.0,0.0,0.0,0.0,0.0,0.0,0.0,0.0,0.0,0.0,0.0,0.0,0.0,0.0,0.0,0.0,0.0,0.0,0.0,0.0,0.0,0.0,0.0,0.0,0.0,0.0,0.0,0.0,0.0,0.0,0.0,0.0,0.0,0.0,0.0,0.0,0.0,0.0,0.0,0.0,0.0,0.0,0.0,0.0,0.0,0.0,0.0,0.0,0.0,0.0,0.0,0.0,0.0,0.0,0.0,0.0,0.0,0.0,0.0,0.0,0.0,0.0,0.0,0.0,0.0,0.0,0.0,0.0,0.0,0.0,0.0,0.0,0.0,0.0,0.0,0.0,0.0,0.0,0.0,0.0,0.0,3.08,3.0668,3.0362,2.9864,2.9655,2.9333,0.0,0.0,0.0,0.0,0.0,0.0,0.0,0.0,0.0,0.0,0.0,0.0,0.0,0.0,0.0,0.0,0.0,0.0,0.0,0.0,0.0,0.0,0.0,0.0,0.0,0.0,0.0,0.0,0.0,0.0,0.0,0.0,0.0,0.0,0.0,0.0,0.0,0.0,0.0,0.0,0.0,0.0,0.0,0.0,0.0,0.0,0.0,0.0,0.0,0.0,0.0,0.0,0.0,0.0,0.0,0.0,0.0,0.0,0.0,0.0,0.0,0.0,0.0,0.0,0.0,0.0,0.0,0.0,0.0,0.0,0.0,0.0,0.0,0.0,0.0,0.0,0.0,0.0,0.0,0.0,0.0,0.0,0.0,0.0,0.0,0.0,0.0,0.0,0.0,0.0,0.0,0.0,0.0,0.0,0.0,0.0,0.0,0.0,0.0,0.0,0.0,0.0,0.0,0.0,0.0,0.0,0.0,0.0,0.0,3.207,3.1513,3.0989,3.0571,3.0324,2.9965,2.9505,0.0,0.0,0.0,0.0,0.0,0.0,0.0,0.0,0.0,0.0,0.0,0.0,0.0,0.0,0.0,0.0,0.0,0.0,0.0,0.0,0.0,0.0,0.0,0.0,0.0,0.0,0.0,0.0,0.0,0.0,0.0,0.0,0.0,0.0,0.0,0.0,0.0,0.0,0.0,0.0,0.0,0.0,0.0,0.0,0.0,0.0,0.0,0.0,0.0,0.0,0.0,0.0,0.0,0.0,0.0,0.0,0.0,0.0,0.0,0.0,0.0,0.0,0.0,0.0,0.0,0.0,0.0,0.0,0.0,0.0,0.0,0.0,0.0,0.0,0.0,0.0,0.0,0.0,0.0,0.0,0.0,0.0,0.0,0.0,0.0,0.0,0.0,0.0,0.0,0.0,0.0,0.0,0.0,0.0,0.0,0.0,0.0,0.0,0.0,0.0,0.0,0.0,0.0,0.0,0.0,0.0,0.0,0.0,3.327,3.2,3.1305,3.1248,3.0666,3.0287,0.0,0.0,0.0,0.0,0.0,0.0,0.0,0.0,0.0,0.0,0.0,0.0,0.0,0.0,0.0,0.0,0.0,0.0,0.0,0.0,0.0,0.0,0.0,0.0,0.0,0.0,0.0,0.0,0.0,0.0,0.0,0.0,0.0,0.0,0.0,0.0,0.0,0.0,0.0,0.0,0.0,0.0,0.0,0.0,0.0,0.0,0.0,0.0,0.0,0.0,0.0,0.0,0.0,0.0,0.0,0.0,0.0,0.0,0.0,0.0,0.0,0.0,0.0,0.0,0.0,0.0,0.0,0.0,0.0,0.0,0.0,0.0,0.0,0.0,0.0,0.0,0.0,0.0,0.0,0.0,0.0,0.0,0.0,0.0,0.0,0.0,0.0,0.0,0.0,0.0,0.0,0.0,0.0,0.0,0.0,0.0,0.0,0.0,0.0,0.0,0.0,0.0,0.0,0.0,0.0,0.0,0.0,0.0,0.0,3.3277,3.2916,3.2525,3.2032,3.1849,3.1494,0.0,0.0,0.0,0.0,0.0,0.0,0.0,0.0,0.0,0.0,0.0,0.0,0.0,0.0,0.0,0.0,0.0,0.0,0.0,0.0,0.0,0.0,0.0,0.0,0.0,0.0,0.0,0.0,0.0,0.0,0.0,0.0,0.0,0.0,0.0,0.0,0.0,0.0,0.0,0.0,0.0,0.0,0.0,0.0,0.0,0.0,0.0,0.0,0.0,0.0,0.0,0.0,0.0,0.0,0.0,0.0,0.0,0.0,0.0,0.0,0.0,0.0,0.0,0.0,0.0,0.0,0.0,0.0,0.0,0.0,0.0,0.0,0.0,0.0,0.0,0.0,0.0,0.0,0.0,0.0,0.0,0.0,0.0,0.0,0.0,0.0,0.0,0.0,0.0,0.0,0.0,0.0,0.0,0.0,0.0,0.0,0.0,0.0,0.0,0.0,0.0,0.0,0.0,0.0,0.0,0.0,0.0,0.0,3.3884,3.4155,3.4194,3.3859,3.317,3.2582,3.2102,0.0,0.0,0.0,0.0,0.0,0.0,0.0,0.0,0.0,0.0,0.0,0.0,0.0,0.0,0.0,0.0,0.0,0.0,0.0,0.0,0.0,0.0,0.0,0.0,0.0,0.0,0.0,0.0,0.0,0.0,0.0,0.0,0.0,0.0,0.0,0.0,0.0,0.0,0.0,0.0,0.0,0.0,0.0,0.0,0.0,0.0,0.0,0.0,0.0,0.0,0.0,0.0,0.0,0.0,0.0,0.0,0.0,0.0,0.0,0.0,0.0,0.0,0.0,0.0,0.0,0.0,0.0,0.0,0.0,0.0,0.0,0.0,0.0,0.0,0.0,0.0,0.0,0.0,0.0,0.0,0.0,0.0,0.0,0.0,0.0,0.0,0.0,0.0,0.0,0.0,0.0,0.0,0.0,0.0,0.0,0.0,0.0,0.0,0.0,0.0,0.0,0.0,0.0,0.0,0.0,0.0,0.0,0.0,3.4738,3.5363,3.5408,3.5085,3.4422,3.317,3.2481,0.0,0.0,0.0,0.0,0.0,0.0,0.0,0.0,0.0,0.0,0.0,0.0,0.0,0.0,0.0,0.0,0.0,0.0,0.0,0.0,0.0,0.0,0.0,0.0,0.0,0.0,0.0,0.0,0.0,0.0,0.0,0.0,0.0,0.0,0.0,0.0,0.0,0.0,0.0,0.0,0.0,0.0,0.0,0.0,0.0,0.0,0.0,0.0,0.0,0.0,0.0,0.0,0.0,0.0,0.0,0.0,0.0,0.0,0.0,0.0,0.0,0.0,0.0,0.0,0.0,0.0,0.0,0.0,0.0,0.0,0.0,0.0,0.0,0.0,0.0,0.0,0.0,0.0,0.0,0.0,0.0,0.0,0.0,0.0,0.0,0.0,0.0,0.0,0.0,0.0,0.0,0.0,0.0,0.0,0.0,0.0,0.0,0.0,0.0,0.0,0.0,0.0,0.0,0.0,0.0,0.0,0.0,0.0,3.5243,3.5401,3.5408,3.5307,3.5149,3.4334,3.3631,0.0,0.0,0.0,0.0,0.0,0.0,0.0,0.0,0.0,0.0,0.0,0.0,0.0,0.0,0.0,0.0,0.0,0.0,0.0,0.0,0.0,0.0,0.0,0.0,0.0,0.0,0.0,0.0,0.0,0.0,0.0,0.0,0.0,0.0,0.0,0.0,0.0,0.0,0.0,0.0,0.0,0.0,0.0,0.0,0.0,0.0,0.0,0.0,3.0577,0.0,0.0,0.0,0.0,0.0,0.0,0.0,0.0,0.0,0.0,0.0,0.0,0.0,0.0,0.0,0.0,0.0,0.0,0.0,0.0,0.0,0.0,0.0,0.0,0.0,0.0,0.0,0.0,0.0,0.0,0.0,0.0,0.0,0.0,0.0,0.0,0.0,0.0,0.0,0.0,0.0,0.0,0.0,0.0,0.0,0.0,0.0,0.0,0.0,0.0,0.0,0.0,0.0,0.0,0.0,0.0,0.0,0.0,0.0,3.6026,3.6357,3.6396,3.6223,3.5861,3.5514,3.4832,0.0,0.0,0.0,0.0,0.0,0.0,0.0,0.0,0.0,0.0,0.0,0.0,0.0,0.0,0.0,0.0,0.0,0.0,0.0,0.0,0.0,0.0,0.0,0.0,0.0,0.0,0.0,0.0,0.0,0.0,0.0,0.0,0.0,0.0,0.0,0.0,0.0,0.0,0.0,0.0,0.0,0.0,0.0,0.0,0.0,0.0,0.0,0.0,0.0,0.0,0.0,0.0,0.0,0.0,0.0,0.0,0.0,0.0,0.0,0.0,0.0,0.0,0.0,0.0,0.0,0.0,0.0,0.0,0.0,0.0,0.0,0.0,0.0,0.0,0.0,0.0,0.0,0.0,0.0,0.0,0.0,0.0,0.0,0.0,0.0,0.0,0.0,0.0,0.0,0.0,0.0,0.0,0.0,0.0,0.0,0.0,0.0,0.0,0.0,0.0,0.0,0.0,0.0,0.0,0.0,0.0,0.0,3.6574,3.6872,3.7471,3.751,3.721,3.6574,3.6447,3.5823,3.4668,0.0,0.0,0.0,0.0,0.0,0.0,0.0,0.0,0.0,0.0,0.0,0.0,0.0,0.0,0.0,0.0,0.0,0.0,0.0,0.0,0.0,0.0,0.0,0.0,0.0,0.0,0.0,0.0,0.0,0.0,0.0,0.0,0.0,0.0,0.0,0.0,0.0,0.0,2.9473,3.013,0.0,0.0,0.0,0.0,0.0,0.0,0.0,0.0,3.268,0.0,0.0,0.0,0.0,0.0,0.0,0.0,0.0,0.0,0.0,0.0,0.0,0.0,0.0,0.0,0.0,0.0,0.0,0.0,0.0,0.0,0.0,0.0,0.0,0.0,0.0,0.0,0.0,0.0,0.0,0.0,0.0,0.0,0.0,0.0,0.0,0.0,0.0,0.0,0.0,0.0,0.0,0.0,0.0,0.0,0.0,0.0,0.0,0.0,0.0,0.0,0.0,0.0,0.0,0.0,0.0,3.7305,3.7313,3.74,3.7502,3.751,3.7432,3.7298,3.6707,3.6289,3.6037,0.0,0.0,0.0,0.0,0.0,0.0,0.0,0.0,0.0,0.0,0.0,0.0,0.0,0.0,0.0,0.0,0.0,0.0,0.0,0.0,0.0,0.0,0.0,0.0,0.0,0.0,0.0,0.0,0.0,0.0,0.0,0.0,0.0,0.0,0.0,0.0,0.0,0.0,0.0,3.0428,3.0484,0.0,0.0,0.0,0.0,0.0,0.0,0.0,0.0,3.2625,0.0,0.0,0.0,0.0,0.0,0.0,0.0,0.0,0.0,0.0,0.0,0.0,0.0,0.0,0.0,0.0,0.0,0.0,0.0,0.0,0.0,0.0,0.0,0.0,0.0,0.0,0.0,0.0,0.0,0.0,0.0,0.0,0.0,0.0,0.0,0.0,0.0,0.0,0.0,0.0,0.0,0.0,0.0,0.0,0.0,0.0,0.0,0.0,0.0,0.0,0.0,0.0,0.0,0.0,0.0,3.8017,3.8373,3.8531,3.8531,3.8538,3.8373,3.8025,3.7655,3.7135,0.0,0.0,0.0,0.0,0.0,0.0,0.0,0.0,0.0,0.0,0.0,0.0,0.0,0.0,0.0,0.0,0.0,0.0,0.0,0.0,0.0,0.0,0.0,0.0,0.0,0.0,0.0,0.0,0.0,0.0,0.0,0.0,0.0,0.0,0.0,0.0,0.0,0.0,0.0,0.0,3.0484,3.066,3.1019,0.0,0.0,0.0,0.0,0.0,0.0,3.384,3.3834,0.0,0.0,0.0,0.0,0.0,0.0,0.0,0.0,0.0,0.0,0.0,0.0,0.0,0.0,0.0,0.0,0.0,0.0,0.0,0.0,0.0,0.0,0.0,0.0,0.0,0.0,0.0,0.0,0.0,0.0,0.0,0.0,0.0,0.0,0.0,0.0,0.0,0.0,0.0,0.0,0.0,0.0,0.0,0.0,0.0,0.0,0.0,0.0,0.0,0.0,0.0,0.0,0.0,0.0,0.0,3.8705,3.9211,3.9503,3.9503,3.9503,3.925,3.8737,3.8579,3.7971,0.0,0.0,0.0,0.0,0.0,0.0,0.0,0.0,0.0,0.0,0.0,0.0,0.0,0.0,0.0,0.0,0.0,0.0,0.0,0.0,0.0,0.0,0.0,0.0,0.0,0.0,0.0,0.0,0.0,0.0,0.0,0.0,0.0,0.0,0.0,0.0,0.0,0.0,0.0,0.0,0.0,3.098,3.1714,3.1946,0.0,0.0,0.0,0.0,3.4822,3.4928,0.0,0.0,0.0,0.0,0.0,0.0,0.0,0.0,0.0,0.0,0.0,0.0,0.0,0.0,0.0,0.0,0.0,0.0,0.0,0.0,0.0,0.0,0.0,0.0,0.0,0.0,0.0,0.0,0.0,0.0,0.0,0.0,0.0,0.0,0.0,0.0,0.0,0.0,0.0,0.0,0.0,0.0,0.0,0.0,0.0,0.0,0.0,0.0,0.0,0.0,0.0,0.0,0.0,0.0,0.0,0.0,3.9376,3.9463,3.9503,3.9503,3.9503,3.9463,3.9376,3.8792,3.8413,0.0,0.0,0.0,0.0,0.0,0.0,0.0,0.0,0.0,0.0,0.0,0.0,0.0,0.0,0.0,0.0,0.0,0.0,0.0,0.0,0.0,0.0,0.0,0.0,0.0,0.0,0.0,0.0,0.0,0.0,0.0,0.0,0.0,0.0,0.0,0.0,0.0,0.0,0.0,0.0,0.0,3.1752,3.247,3.3138,3.3596,0.0,0.0,3.4789,3.4888,3.4928,0.0,0.0,0.0,0.0,0.0,0.0,0.0,0.0,0.0,0.0,0.0,0.0,0.0,0.0,0.0,0.0,0.0,0.0,0.0,0.0,0.0,0.0,0.0,0.0,0.0,0.0,0.0,0.0,0.0,0.0,0.0,0.0,0.0,0.0,0.0,0.0,0.0,0.0,0.0,0.0,0.0,0.0,0.0,0.0,0.0,0.0,0.0,0.0,0.0,0.0,0.0,0.0,0.0,0.0,0.0,3.9842,4.0135,4.049,4.068,4.068,4.068,4.0442,3.996,3.9668,3.9117,0.0,0.0,0.0,0.0,0.0,0.0,0.0,0.0,0.0,0.0,0.0,0.0,0.0,0.0,0.0,0.0,0.0,0.0,0.0,0.0,0.0,0.0,0.0,0.0,0.0,0.0,0.0,0.0,0.0,0.0,0.0,0.0,0.0,0.0,0.0,0.0,0.0,0.0,0.0,0.0,0.0,0.0,3.3085,3.3487,0.0,0.0,0.0,3.5021,3.5452,0.0,0.0,0.0,0.0,0.0,0.0,0.0,0.0,0.0,0.0,0.0,0.0,0.0,0.0,0.0,0.0,0.0,0.0,0.0,0.0,0.0,0.0,0.0,0.0,0.0,0.0,0.0,0.0,0.0,0.0,0.0,0.0,0.0,0.0,0.0,0.0,0.0,0.0,0.0,0.0,0.0,0.0,0.0,0.0,0.0,0.0,0.0,0.0,0.0,0.0,0.0,0.0,0.0,0.0,0.0,0.0,0.0,4.0862,4.1295,4.1531,4.1531,4.1473,4.1178,4.0512,4.0324,0.0,0.0,0.0,0.0,0.0,0.0,0.0,0.0,0.0,0.0,0.0,0.0,0.0,0.0,0.0,0.0,0.0,0.0,0.0,0.0,0.0,0.0,0.0,0.0,0.0,0.0,0.0,2.8141,0.0,0.0,0.0,0.0,0.0,0.0,0.0,0.0,0.0,0.0,0.0,0.0,0.0,0.0,3.2888,3.3716,3.3985,3.435,0.0,0.0,3.5508,3.6069,3.6199,3.6423,0.0,0.0,0.0,0.0,0.0,0.0,0.0,0.0,0.0,0.0,0.0,0.0,0.0,0.0,0.0,0.0,0.0,0.0,0.0,0.0,0.0,0.0,0.0,0.0,0.0,0.0,0.0,0.0,0.0,0.0,0.0,0.0,0.0,0.0,0.0,0.0,0.0,0.0,0.0,0.0,0.0,0.0,0.0,0.0,0.0,0.0,0.0,0.0,0.0,0.0,0.0,0.0,0.0,0.0,0.0,4.1502,4.1392,4.1355,4.1315,4.1195,4.1111,4.1032,4.04,3.9978,0.0,0.0,0.0,0.0,0.0,0.0,0.0,0.0,0.0,0.0,0.0,0.0,0.0,0.0,0.0,0.0,0.0,0.0,0.0,0.0,0.0,0.0,0.0,0.0,0.0,0.0,0.0,0.0,0.0,0.0,0.0,0.0,0.0,0.0,0.0,0.0,0.0,0.0,0.0,0.0,0.0,3.3612,3.4339,3.504,3.5505,0.0,0.0,3.6502,3.6547,3.6729,3.6852,3.6918,0.0,0.0,0.0,0.0,0.0,0.0,0.0,0.0,0.0,0.0,0.0,0.0,0.0,0.0,0.0,0.0,0.0,0.0,0.0,0.0,0.0,0.0,0.0,0.0,0.0,0.0,0.0,0.0,0.0,0.0,0.0,0.0,0.0,0.0,0.0,0.0,0.0,0.0,0.0,0.0,0.0,0.0,0.0,0.0,0.0,0.0,0.0,0.0,0.0,0.0,0.0,0.0,0.0,4.1852,4.2502,4.2464,4.2429,4.2389,4.1954,4.165,4.1521,4.0837,4.0228,0.0,0.0,0.0,0.0,0.0,0.0,0.0,0.0,0.0,0.0,0.0,0.0,0.0,0.0,0.0,0.0,0.0,0.0,0.0,0.0,0.0,0.0,0.0,0.0,0.0,0.0,0.0,0.0,2.9821,3.0207,3.0701,0.0,0.0,0.0,0.0,0.0,0.0,0.0,0.0,0.0,0.0,3.4646,3.5021,3.5667,0.0,0.0,3.6424,3.6751,3.7203,3.7347,3.759,3.8091,3.8249,0.0,0.0,0.0,0.0,0.0,0.0,0.0,0.0,0.0,0.0,0.0,0.0,0.0,0.0,0.0,0.0,0.0,0.0,0.0,0.0,0.0,0.0,0.0,0.0,0.0,0.0,0.0,0.0,0.0,0.0,0.0,0.0,0.0,0.0,0.0,0.0,0.0,0.0,0.0,0.0,0.0,0.0,0.0,0.0,0.0,0.0,0.0,0.0,0.0,0.0,0.0,0.0,4.2646,4.3096,4.3043,4.3016,4.3007,4.2505,4.2191,4.2019,4.1369,4.0753,0.0,0.0,0.0,0.0,0.0,0.0,0.0,0.0,0.0,0.0,0.0,0.0,0.0,0.0,0.0,0.0,0.0,0.0,0.0,0.0,0.0,0.0,0.0,0.0,0.0,0.0,0.0,0.0,3.0551,3.0807,3.1306,0.0,0.0,0.0,0.0,0.0,0.0,0.0,0.0,0.0,0.0,3.5571,3.5669,3.6241,3.6702,3.6795,3.7174,3.7637,3.8154,3.8463,3.8799,3.9387,0.0,0.0,0.0,0.0,0.0,0.0,0.0,0.0,0.0,0.0,0.0,0.0,0.0,0.0,0.0,0.0,0.0,0.0,0.0,0.0,0.0,0.0,0.0,0.0,0.0,0.0,0.0,0.0,0.0,0.0,3.5254,0.0,0.0,0.0,0.0,0.0,0.0,0.0,0.0,0.0,0.0,0.0,0.0,0.0,0.0,0.0,0.0,0.0,0.0,0.0,0.0,0.0,0.0,4.3096,4.3096,4.2971,4.2833,4.2833,4.2661,4.2611,4.2571,4.1933,4.1555,4.1533,0.0,0.0,0.0,0.0,0.0,0.0,0.0,0.0,0.0,0.0,0.0,0.0,0.0,0.0,0.0,0.0,0.0,0.0,0.0,0.0,0.0,0.0,0.0,0.0,0.0,0.0,3.1698,3.1881,3.1957,0.0,0.0,0.0,0.0,0.0,0.0,0.0,0.0,0.0,0.0,3.6264,3.6296,3.6303,3.6879,3.7364,3.7332,3.8519,3.9448,3.9448,4.0094,4.0662,0.0,0.0,0.0,0.0,0.0,0.0,0.0,0.0,0.0,0.0,0.0,0.0,0.0,0.0,0.0,0.0,0.0,0.0,0.0,0.0,0.0,0.0,0.0,0.0,0.0,0.0,0.0,3.496,3.4862,0.0,0.0,0.0,0.0,0.0,0.0,0.0,0.0,0.0,0.0,0.0,3.9291,3.9655,0.0,0.0,0.0,0.0,0.0,0.0,0.0,0.0,0.0,0.0,0.0,0.0,4.3667,4.4069,4.4034,4.3997,4.3966,4.3501,4.3267,4.3267,4.2602,4.2039,4.1617,0.0,0.0,0.0,0.0,0.0,0.0,0.0,0.0,0.0,0.0,0.0,0.0,0.0,0.0,0.0,0.0,0.0,0.0,0.0,0.0,0.0,0.0,0.0,0.0,0.0,3.1676,0.0,0.0,0.0,0.0,0.0,0.0,0.0,0.0,0.0,0.0,0.0,3.6011,3.6257,3.7105,3.7695,3.7695,3.8699,3.9412,0.0,0.0,0.0,0.0,0.0,0.0,0.0,0.0,0.0,0.0,0.0,0.0,0.0,0.0,4.2303,4.1624,4.1498,4.1519,4.1568,0.0,0.0,0.0,0.0,0.0,0.0,0.0,0.0,0.0,0.0,0.0,0.0,0.0,0.0,0.0,0.0,3.6001,0.0,0.0,0.0,0.0,0.0,0.0,0.0,0.0,3.9098,3.9577,4.0254,4.0922,4.1476,0.0,4.2633,4.2602,0.0,0.0,0.0,0.0,0.0,0.0,0.0,0.0,4.4622,4.5268,4.5083,4.496,4.4929,4.4283,4.3953,4.3944,4.3224,4.2373,4.1421,4.0545,3.9988,0.0,0.0,0.0,0.0,0.0,0.0,0.0,0.0,0.0,0.0,0.0,0.0,0.0,0.0,0.0,0.0,0.0,0.0,0.0,0.0,0.0,0.0,0.0,3.301,0.0,0.0,0.0,0.0,0.0,0.0,0.0,0.0,0.0,3.6671,3.6652,3.6846,3.7332,3.8188,3.8868,3.9095,0.0,0.0,0.0,0.0,0.0,0.0,0.0,4.2033,4.2101,4.2154,4.2307,4.2622,4.2771,4.3024,4.3539,0.0,0.0,4.2759,4.2767,4.2925,4.2925,4.2925,4.3098,4.3554,4.3654,4.3919,0.0,0.0,0.0,0.0,0.0,0.0,0.0,0.0,3.6002,3.6557,0.0,3.767,0.0,0.0,0.0,0.0,0.0,3.8569,0.0,0.0,4.0267,4.0953,4.1639,4.2285,4.2645,4.2676,4.334,4.3987,4.4501,4.3344,0.0,0.0,0.0,0.0,0.0,0.0,4.5907,4.6471,4.5907,4.5609,4.5599,4.4932,4.4603,4.4531,4.3738,4.2593,4.1183,4.1154,4.0916,4.0349,3.9826,0.0,0.0,0.0,0.0,0.0,0.0,0.0,0.0,0.0,0.0,0.0,0.0,0.0,0.0,0.0,0.0,0.0,0.0,0.0,0.0,3.552,0.0,0.0,0.0,0.0,0.0,0.0,0.0,0.0,0.0,0.0,3.7483,3.7427,3.7901,3.9307,0.0,0.0,0.0,0.0,4.0602,4.0675,4.1793,4.2683,4.2683,4.384,4.4755,4.4763,0.0,0.0,4.5385,4.5473,4.547,4.5717,4.574,4.5616,4.4935,4.5226,4.5657,4.5697,4.559,4.5764,4.5764,4.5557,4.5657,3.7379,0.0,0.0,0.0,0.0,3.7723,3.7942,3.7896,3.8083,3.8208,3.8259,3.8484,0.0,0.0,0.0,0.0,0.0,0.0,4.0575,4.17,4.1916,4.21,4.2346,4.302,4.3482,4.3843,4.4485,4.5061,4.5504,4.5149,4.5156,4.5516,0.0,0.0,0.0,0.0,4.592,4.6082,4.591,4.5839,4.5788,4.5208,4.4679,4.4181,4.3453,4.287,4.2449,4.196,4.141,4.082,4.0661,0.0,0.0,0.0,0.0,0.0,0.0,0.0,0.0,0.0,0.0,0.0,0.0,0.0,0.0,0.0,0.0,0.0,0.0,0.0,3.5187,3.5342,3.5478,0.0,0.0,0.0,0.0,0.0,0.0,0.0,0.0,0.0,3.924,3.9223,3.9359,0.0,0.0,4.0919,4.1719,4.2307,4.2863,4.3484,0.0,0.0,0.0,4.4536,4.4787,4.4787,4.4903,4.5008,4.5138,4.5243,4.542,4.5561,4.603,4.6491,4.6917,4.6311,4.5888,4.5797,4.5797,4.5797,4.5797,4.5797,4.598,3.8305,3.7638,3.8168,3.8371,3.8354,3.88,3.8979,3.8922,3.8914,3.8973,3.9088,3.9088,3.9299,3.9739,4.0008,0.0,0.0,0.0,4.1793,4.2593,4.2879,4.311,4.3303,4.3947,4.4507,4.4965,4.5341,4.5809,4.6345,4.6335,4.6497,4.6782,0.0,0.0,4.6335,4.6335,4.6466,4.6689,4.6476,4.6335,4.6314,4.5698,4.5,4.4255,4.384,4.3357,4.2797,4.2372,4.1896,4.1309,4.1098,4.0639,0.0,0.0,0.0,0.0,0.0,0.0,0.0,0.0,0.0,0.0,0.0,3.6647,3.626,0.0,0.0,0.0,3.6486,3.6569,3.662,3.6755,0.0,0.0,0.0,0.0,0.0,0.0,0.0,3.9807,4.0284,4.0634,4.0666,4.1095,4.1302,4.0871,4.1198,4.1885,4.2984,0.0,4.408,4.4599,4.4973,4.5208,4.5208,4.5435,4.5735,4.6018,4.6386,4.6618,4.6694,4.6802,4.6928,4.7119,4.7514,4.7975,4.8536,4.7902,4.7366,4.7505,4.7537,4.7513,4.7448,4.7431,4.7539,3.8807,3.884,3.9152,3.9131,3.8885,3.9031,3.91,3.9015,3.9015,3.9279,3.9722,3.9753,4.0469,4.1709,4.2325,0.0,4.2694,4.2756,4.2799,4.2851,4.3516,4.4049,4.4462,4.5063,4.5554,4.596,4.596,4.6334,4.7001,4.7061,4.73,4.7611,4.6664,4.6445,4.6991,4.7011,4.7335,4.7902,4.7335,4.6981,4.6951,4.6293,4.5525,4.47,4.4599,4.3928,4.263,4.2626,4.2382,4.1778,4.1342,4.1089,4.1028,0.0,0.0,0.0,0.0,0.0,0.0,0.0,0.0,0.0,0.0,0.0,0.0,0.0,0.0,0.0,3.8898,0.0,3.8995,3.9011,0.0,0.0,0.0,3.9416,3.9621,3.97,3.9771,3.9811,0.0,0.0,4.1786,0.0,4.3357,4.2428,4.2245,4.2732,4.4083,4.441,4.4577,4.481,4.5445,4.5952,4.617,4.6648,4.7249,4.7855,4.8591,4.888,4.9056,4.9124,4.9302,4.9339,4.9529,4.9579,4.9662,4.9599,4.981,5.0149,5.0119,5.001,4.9722,4.9613,4.9562,4.1608,4.1617,4.1696,4.0811,3.9389,3.9916,4.0441,4.0939,4.093,4.1282,4.1854,4.1845,4.2069,4.2377,4.2531,4.2879,4.3399,4.3882,4.4311,4.4689,4.5363,4.5613,4.5526,4.5687,4.599,4.6419,4.6429,4.6707,4.722,4.7741,4.805,4.8145,4.835,4.8072,4.725,4.7231,4.7321,4.7471,4.7321,4.698,4.6489,4.6299,4.5868,4.5177,4.4627,4.4208,4.3878,4.3389,4.2849,4.2259,4.2126,4.1836,4.1325,4.1154,0.0,0.0,0.0,0.0,0.0,0.0,0.0,0.0,0.0,3.8263,3.8263,0.0,3.8516,0.0,3.8743,3.8849,3.8849,3.8939,0.0,0.0,3.9504,4.0101,4.0783,4.1373,4.1958,4.2629,4.2993,4.3183,4.3215,4.3499,4.3809,4.4031,4.3645,4.3673,4.4652,4.484,4.5342,4.6433,4.6962,4.744,4.7877,4.8275,4.8558,4.8711,4.8915,4.903,4.9066,4.9075,4.9138,4.9308,4.9352,4.9634,5.0341,5.0451,5.0698,5.1158,5.0534,4.972,4.9676,4.97,4.9682,4.2593,4.2593,4.2593,4.1946,4.0891,4.1261,4.1669,4.2048,4.2048,4.2263,4.2623,4.2919,4.3196,4.3494,4.3812,4.4247,4.4826,4.5185,4.5426,4.5574,4.594,4.6143,4.6221,4.621,4.662,4.7362,4.7362,4.7627,4.8188,4.8547,4.8738,4.8738,4.9127,4.8917,4.8218,4.8188,4.8038,4.7769,4.7429,4.7108,4.6749,4.676,4.6431,4.5783,4.5384,4.4905,4.4296,4.3938,4.3429,4.283,4.2551,4.2221,4.1862,4.1467,4.1102,0.0,0.0,0.0,0.0,0.0,0.0,0.0,0.0,0.0,0.0,0.0,3.9212,3.9313,3.9751,4.0029,4.0068,4.04,4.064,4.0685,4.1027,4.1477,4.204,4.2473,4.2927,4.3486,4.3819,4.416,4.4587,4.4898,4.534,4.6035,4.5823,4.5615,4.5769,4.6104,4.6702,4.7545,4.7869,4.8138,4.8647,4.9079,4.9397,4.952,4.9765,5.0057,5.0381,5.0413,5.0547,5.0988,5.1104,5.1238,5.175,5.1876,5.2006,5.2211,5.1834,5.1233,5.0957,5.0901,5.0957,4.3116,4.3125,4.3116,4.3116,4.3085,4.3116,4.2971,4.2725,4.2725,4.2817,4.3024,4.3639,4.4276,4.4851,4.5406,4.5872,4.6244,4.6335,4.6234,4.598,4.6071,4.6362,4.6826,4.6816,4.7362,4.8409,4.8427,4.8727,4.9288,4.9344,4.9381,4.9381,4.9407,4.9455,4.9455,4.9455,4.9097,4.8339,4.7749,4.7421,4.732,4.7331,4.6992,4.6384,4.6235,4.5668,4.4544,4.4394,4.4066,4.3489,4.2891,4.2562,4.2553,4.1771,4.1279,0.0,4.118,0.0,0.0,0.0,0.0,0.0,0.0,0.0,0.0,4.057,4.0325,4.0501,4.1181,4.1647,4.1713,4.2227,4.2629,4.2748,4.2766,4.2869,4.3167,4.3288,4.3421,4.3711,4.4356,4.51,4.5899,4.6535,4.7135,4.7647,4.7814,4.7634,4.7264,4.7566,4.7968,4.8167,4.8464,4.8861,4.9198,4.9691,5.0184,5.0482,5.0991,5.1643,5.2171,5.2268,5.2485,5.3058,5.3091,5.3188,5.3285,5.3252,5.3252,5.3207,5.311,5.2974,5.2622,5.2484,5.2775,4.5834,4.5844,4.5865,4.5834,4.5834,4.5844,4.492,4.3399,4.343,4.4006,4.5064,4.5575,4.5864,4.5977,4.5889,4.589,4.6011,4.6599,4.6728,4.6499,4.7042,4.7538,4.7973,4.7984,4.8371,4.9078,4.9108,4.9168,4.9307,4.9651,4.9775,4.9793,5.0099,5.0248,5.026,0.0,0.0,0.0,4.8315,4.802,4.7495,4.7465,4.7192,4.6553,4.601,0.0,4.5349,4.4828,4.4484,4.4355,4.3775,0.0,0.0,0.0,0.0,0.0,0.0,0.0,0.0,0.0,0.0,0.0,4.2033,4.1983,4.1603,4.1539,4.1541,4.1587,4.1736,4.1937,4.215,4.2282,4.2416,4.2629,4.2647,4.2905,4.3653,4.4226,4.4837,4.5584,4.625,4.6785,4.7101,4.7286,4.752,4.7956,4.8392,4.8645,4.8551,4.8263,4.8146,4.8681,4.9435,5.0191,5.0941,5.113,5.1474,5.2226,5.2542,5.273,5.2977,5.3091,5.3091,5.333,5.3275,5.334,5.334,5.3275,5.3372,5.3307,5.3307,5.3262,5.3172,5.3139,5.3162,4.6544,0.0,4.6454,4.6374,0.0,4.6254,4.5673,4.4776,4.4872,4.526,4.5765,4.6001,4.6295,4.663,4.6487,4.6556,4.6785,4.746,4.7675,4.7471,4.8132,4.8568,4.8809,4.8798,4.9116,4.9722,4.9649,4.9764,5.0027,5.014,5.0189,5.0189,5.0383,5.0513,5.0501,5.0381,4.9869,4.8985,4.8661,4.8326,4.799,4.7655,4.736,4.7058,0.0,0.0,0.0,0.0,0.0,0.0,0.0,0.0,0.0,0.0,0.0,4.3005,4.2975,4.2818,4.2525,4.2993,4.3273,4.3283,4.3229,4.2722,4.1646,4.1704,4.1807,4.1817,4.2182,4.2507,4.265,4.3037,4.3467,4.3858,4.4023,4.4394,4.5096,4.5536,4.5963,4.6447,4.6817,4.7238,4.7807,4.7909,4.831,4.9125,4.9562,4.9948,5.0228,4.9552,4.9163,4.9815,5.059,5.1301,5.1789,5.1957,5.2101,5.2663,5.2797,5.2998,5.3409,5.3574,5.3763,5.4106,5.4283,5.4321,5.4321,5.4353,5.4321,5.4321,5.4353,5.4313,5.421,5.4024,5.3975,4.6936,4.6743,4.6631,4.6488,4.6274,4.6284,4.6304,4.6374,0.0,0.0,0.0,4.6283,4.6707,4.7284,4.7363,4.7599,4.794,4.8451,4.8634,4.8498,4.9037,4.9348,4.9456,4.9456,4.974,5.0287,5.0143,5.0294,5.071,5.0531,5.0441,5.0429,5.0393,5.0369,5.0357,5.0135,4.9871,4.9545,4.8975,4.8658,4.8522,4.8011,4.7665,4.7559,4.6976,4.6377,4.5837,4.572,4.5407,4.4878,4.4712,4.4654,4.4643,4.4395,4.4229,4.4259,4.4259,4.4259,4.4269,4.4443,4.4581,4.4583,4.4279,4.3516,4.2104,4.2117,4.2212,4.2312,4.2988,4.3436,4.3484,4.4085,4.4759,4.5338,4.5596,4.5939,4.6471,4.6717,4.6837,4.7006,4.717,4.7559,4.8473,4.8628,4.9124,5.0421,5.0764,5.114,5.1671,5.0954,5.0459,5.1016,5.1532,5.2058,5.2361,5.2444,5.2557,5.2973,5.2993,5.3142,5.3725,5.404,5.4367,5.4806,5.5196,5.5213,5.5266,5.5278,5.5481,5.547,5.56,5.5602,5.5425,5.5111,5.4998,4.8636,4.8584,4.7997,4.7744,4.7712,4.7712,4.7889,4.8149,4.7284,4.6882,4.6891,4.7821,4.8278,4.8388,4.8784,4.9026,4.9063,4.9153,4.9191,0.0,4.9258,4.9595,5.0069,5.0069,5.0282,5.0691,5.0686,5.0615,5.0519,5.0297,5.0147,5.0152,4.9941,4.9832,4.979,4.9766,4.9737,4.9686,4.9587,4.9255,4.8678,4.8591,4.8271,4.7771,4.7119,4.673,4.6643,4.6142,4.5822,4.5716,4.5164,4.4873,4.4832,4.4345,4.4033,4.4033,4.4033,4.4033,4.4073,4.4237,4.4422,4.4562,4.4556,4.4505,4.4477,4.4136,4.4178,4.4717,4.4817,4.5049,4.5233,4.5304,4.5475,4.5799,4.6041,4.6252,4.6476,4.7077,4.7527,4.7608,4.8019,4.8728,4.9512,4.9698,5.003,5.0965,5.1487,5.1716,5.1998,5.1849,5.1754,5.1817,5.1912,5.227,5.2828,5.2965,5.327,5.4041,5.4041,5.4083,5.4495,5.4632,5.477,5.4887,5.5024,5.5013,5.5024,5.5377,5.5708,5.5836,5.6189,5.6573,5.6477,5.6434,5.6296,4.9414,4.9285,4.8993,4.8818,4.8698,4.8709,4.8813,4.8923,4.8481,4.8254,4.8303,4.8746,4.8972,4.9002,4.9213,4.9288,4.9318,4.9613,4.9781,4.9823,5.0152,5.0481,5.0745,5.0963,5.1161,5.1333,5.1411,5.1405,5.13,5.1041,5.0917,5.0888,5.0469,5.0216,5.0204,4.9737,4.949,4.949,4.962,4.9463,4.9032,4.8685,4.8278,4.7858,4.723,4.6902,4.6902,4.6321,4.5988,4.6016,4.5508,4.5211,4.5211,4.5114,4.5035,4.5035,4.5024,4.5035,4.5006,4.5105,4.5204,4.5263,4.505,4.514,4.5633,4.5067,4.48,4.5119,4.5232,4.5316,4.5419,4.5532,4.5786,4.623,4.6507,4.7007,4.7802,4.8232,4.8715,4.9199,4.9528,4.9909,5.0344,5.0385,5.0718,5.1542,5.2278,5.2848,5.2954,5.3081,5.2986,5.2734,5.2892,5.325,5.3597,5.3629,5.3829,5.4179,5.4232,5.4454,5.4846,5.5048,5.5314,5.5655,5.5826,5.5933,5.5901,5.6167,5.6359,5.6423,5.6615,5.6827,5.6729,5.6873,5.6818,4.988,4.9723,4.9584,4.9445,4.9288,4.9288,4.9366,4.9505,4.9516,4.9595,4.9696,4.9576,4.9505,4.9505,4.9666,4.9726,4.9816,5.0219,5.0446,5.0506,5.1057,5.1332,5.1387,5.1743,5.1894,5.1868,5.1941,5.1963,5.1904,5.1702,5.1563,5.1454,5.1032,5.0788,5.0725,5.0009,4.9625,4.965,4.9861,4.9688,4.9219,4.8706,4.8333,4.8121,4.7526,4.7188,4.7171,4.664,4.6298,4.6281,4.6015,4.5832,4.5855,4.5895,4.5939,4.591,4.5795,4.5817,4.6019,4.6232,4.6313,4.6324,4.5994,4.6007,4.642,4.6053,4.5585,4.5452,4.5752,4.5938,4.6029,4.6329,4.6646,4.7168,4.7439,4.8054,4.9117,4.9449,4.9783,5.0477,5.0654,5.0697,5.0882,5.0913,5.1299,5.2168,5.3086,5.3648,5.3881,5.414,5.4049,5.3933,5.3965,5.4008,5.4103,5.4261,5.4324,5.4324,5.4525,5.4894,5.5327,5.5531,5.5777,5.6254,5.6523,5.6568,5.6675,5.6856,5.6898,5.6918,5.7119,5.7215,5.7102,5.7252,5.7351,5.0175,5.0074,4.961,4.931,4.9348,4.9318,4.9643,5.0099,5.0129,5.0488,5.0888,5.041,5.0129,5.0219,5.0739,5.096,5.0978,5.1098,5.1116,5.1141,5.1536,5.1755,5.1778,5.2157,5.2229,5.2042,5.2042,5.1996,5.1781,5.1688,5.1503,5.1283,5.1171,5.1043,5.0812,5.069,5.0649,5.0662,5.0703,5.0131,4.9004,4.8889,4.8807,4.8823,4.8142,4.7799,4.7763,4.7257,4.6902,4.6902,4.6869,4.6864,4.6807,4.6357,4.6094,4.6065,4.555,4.5528,4.6391,4.7172,4.7561,4.7619,4.7497,4.7492,4.759,4.7712,4.7396,4.6786,4.7177,4.7529,4.7718,4.8328,4.8722,4.8775,4.9031,4.9435,4.9595,4.9934,5.0238,5.031,5.069,5.0913,5.1487,5.1652,5.2017,5.2927,5.3288,5.3712,5.4231,5.4558,5.4912,5.5123,5.4792,5.4239,5.4292,5.465,5.4966,5.5061,5.5557,5.5873,5.6053,5.6116,5.6213,5.6628,5.6467,5.6555,5.6596,5.6719,5.7216,5.7347,5.7664,5.8093,5.8122,5.8099,5.8036,5.0787,5.0787,5.0529,5.0433,5.0421,5.0421,5.0559,5.0787,5.0787,5.0936,5.1146,5.0907,5.0775,5.0817,5.1086,5.1217,5.1236,5.1441,5.1548,5.1584,5.1954,5.2169,5.2204,5.2586,5.2704,5.2619,5.2787,5.282,5.272,5.2551,5.2421,5.2287,5.1773,5.1457,5.1298,5.0826,5.0549,5.0549,5.0392,5.0059,4.9617,4.9335,4.8941,4.8462,4.8154,4.8025,4.7956,4.7419,4.7149,4.7092,4.6886,4.6748,4.676,4.6688,4.6629,4.6629,4.6372,4.6449,4.6995,4.7372,4.7629,4.7782,4.7794,4.7794,4.7794,4.7858,4.7718,4.7466,4.7886,4.8306,4.8513,4.8852,4.9107,4.9254,4.9397,4.9618,5.0155,5.0366,5.0689,5.1333,5.159,5.1804,5.2253,5.2656,5.3182,5.3893,5.415,5.4391,5.4773,5.4988,5.5316,5.5619,5.5354,5.5245,5.5271,5.5536,5.5746,5.5809,5.5967,5.6231,5.6726,5.6778,5.6915,5.7317,5.7317,5.7349,5.753,5.7602,5.7875,5.7895,5.7938,5.8297,5.8297,5.8297,5.8297,5.1217,5.1217,5.1217,5.1217,5.1217,5.1217,5.1217,5.1217,5.1217,5.1217,5.1247,5.1397,5.1428,5.138,5.1369,5.1369,5.1434,5.179,5.1966,5.203,5.2362,5.2545,5.2591,5.2953,5.3159,5.3179,5.3347,5.3435,5.3385,5.312,5.2934,5.2741,5.217,5.1809,5.1659,5.1061,5.0771,5.0771,5.0586,5.0382,5.0104,4.9829,4.9249,4.8458,4.8361,4.8277,4.8121,4.7659,4.7447,4.7431,4.7171,4.7003,4.7003,4.7044,4.6983,4.6853,4.7027,4.7273,4.7453,4.7669,4.794,4.8162,4.8221,4.8245,4.8304,4.8328,4.8316,4.8352,4.8647,4.8922,4.9028,4.9291,4.953,4.977,4.9816,5.0135,5.0651,5.0833,5.1292,5.2288,5.2486,5.2764,5.3203,5.366,5.4122,5.4545,5.4808,5.5109,5.5248,5.5453,5.5745,5.6073,5.6204,5.621,5.6259,5.6358,5.6421,5.6547,5.6631,5.7053,5.7421,5.7484,5.7548,5.7855,5.8171,5.8234,5.8013,5.8171,5.8266,5.8266,5.8297,5.8297,5.8297,5.8297,5.8297,5.1217,5.1217,5.1217,5.1277,5.1247,5.1277,5.1247,5.1367,5.1277,5.1247,5.1373,5.1894,5.2001,5.179,5.1808,5.179,5.1826,5.2174,5.2375,5.2409,5.2733,5.2911,5.2999,5.3325,5.3456,5.3424,5.3416,5.3358,5.3136,5.2841,5.2559,5.2248,5.2164,5.2029,5.1811,5.1672,5.1702,5.1617,5.1548,5.1244,5.0525,5.0373,4.988,4.907,4.8912,4.8619,4.8167,4.8068,4.804,4.804,4.7981,4.7953,4.7965,4.7513,4.6987,4.6549,4.7136,4.7567,4.7713,4.8296,4.8833,4.9112,4.9157,4.9313,4.9487,4.9594,4.9623,4.9635,4.9655,4.9668,4.9699,5.0153,5.0644,5.0908,5.1068,5.1121,5.1151,5.1451,5.1978,5.2772,5.318,5.3645,5.4437,5.4645,5.4706,5.4818,5.481,5.503,5.5625,5.5925,5.6314,5.678,5.707,5.7121,5.6476,5.6733,5.7091,5.7231,5.7527,5.8033,5.8171,5.8266,5.8266,5.8266,5.8266,5.8297,5.8297,5.8297,5.8297,5.8297,5.8297,5.8297,5.8297,5.8297,5.8297,5.1457,5.1846,5.1846,5.2097,5.2456,5.2498,5.2456,5.2486,5.2498,5.239,5.2275,5.2459,5.2444,5.2191,5.2431,5.2384,5.2226,5.2566,5.2746,5.2821,5.3121,5.3312,5.3328,5.3469,5.3487,5.3474,5.3303,5.3107,5.2841,5.2546,5.2331,5.2209,5.2018,5.1882,5.1787,5.1637,5.1541,5.1514,5.1335,5.103,5.0754,5.0712,5.0365,4.9669,4.8876,4.8417,4.8154,4.7793,4.7647,4.7854,4.7826,4.7943,4.8055,4.7896,4.77,4.7516,4.7744,4.7982,4.8169,4.848,4.8772,4.905,4.9634,4.996,5.0155,5.0568,5.0904,5.0917,5.0904,5.0946,5.0979,5.083,5.071,5.0965,5.1482,5.1846,5.1947,5.2312,5.2887,5.3503,5.3952,5.449,5.5114,5.5345,5.553,5.5942,5.6034,5.6127,5.6293,5.6481,5.6681,5.6998,5.718,5.7221,5.7163,5.7352,5.7656,5.7869,5.8128,5.8148,5.8274,5.824,5.8197,5.8162,5.8217,5.8217,5.8182,5.8193,5.8205,5.8197,5.8197,5.8182,5.8297,5.832,5.8311,5.2097,5.2498,5.2528,5.2755,5.3186,5.3089,5.3052,5.3082,5.2997,5.2849,5.2731,5.2884,5.2853,5.2679,5.3034,5.307,5.2779,5.2994,5.3121,5.3166,5.3405,5.3487,5.3474,5.3424,5.3385,5.3306,5.2987,5.2707,5.2533,5.225,5.2072,5.2045,5.1787,5.1678,5.1637,5.1404,5.1238,5.1197,5.1017,5.0864,5.0767,5.0795,5.0546,4.9941,4.9007,4.8483,4.849,4.8089,4.7946,4.813,4.8141,4.8286,4.8531,4.8557,4.8621,4.8698,4.8724,4.8801,4.8952,4.899,4.9104,4.9399,5.0007,5.0497,5.0627,5.123,5.1547,5.1617,5.1601,5.1702,5.1704,5.1338,5.109,5.1433,5.2019,5.2432,5.2534,5.2917,5.3513,5.4231,5.4881,5.5449,5.5918,5.6034,5.6262,5.6779,5.6785,5.6785,5.6785,5.6798,5.6846,5.6971,5.6995,5.7096,5.7124,5.7344,5.7559,5.7785,5.7976,5.8109,5.8207,5.8164,5.8184,5.8109,5.8066,5.8066,5.8066,5.8066,5.8109,5.8109,5.7996,5.7934,5.813,5.8354,5.8499,5.3169,5.3186,5.3228,5.3234,5.3293,5.3102,5.286,5.2912,5.2659,5.2661,5.2729,5.3124,5.3225,5.3155,5.3516,5.3675,5.3434,5.3424,5.344,5.3469,5.3471,5.3474,5.3435,5.3239,5.308,5.3027,5.2506,5.2208,5.2209,5.1964,5.1828,5.1746,5.1555,5.1417,5.1418,5.11,5.0906,5.0878,5.085,5.0711,5.0515,5.0473,5.0334,4.9986,4.94,4.9091,4.9085,4.9002,4.8892,4.8973,4.8959,4.9203,4.9304,4.937,4.9573,4.9767,4.9889,4.9943,4.9928,4.9885,4.9932,5.0209,5.0611,5.0927,5.1155,5.1513,5.1795,5.1849,5.1804,5.1759,5.1839,5.1925,5.2142,5.2672,5.2736,5.296,5.3155,5.3241,5.3693,5.4801,5.5701,5.6414,5.6682,5.6662,5.6705,5.6755,5.6785,5.6785,5.6785,5.6785,5.6798,5.681,5.6858,5.6947,5.7043,5.7139,5.7325,5.7499,5.7691,5.7879,5.8052,5.8083,5.8345,5.8345,5.8389,5.8357,5.8389,5.8389,5.8228,5.8173,5.7977,5.8082,5.8423,5.8772,5.8919,5.3486,5.3838,5.3677,5.3871,5.425,5.3955,5.3841,5.3828,5.3739,5.3599,5.3504,5.3667,5.36,5.3409,5.356,5.3579,5.3487,5.3487,5.3487,5.3487,5.3487,5.3398,5.3226,5.312,5.2867,5.2533,5.2317,5.2086,5.1937,5.1828,5.1733,5.1541,5.1431,5.128,5.1072,5.0781,5.0627,5.0599,5.039,5.0235,5.0151,5.0178,5.0095,4.9983,4.9806,4.9714,4.9691,4.8927,4.864,4.8829,4.8829,4.895,4.9204,4.9377,4.9564,4.9642,4.9881,5.0,5.0,5.0,5.0082,5.0242,5.0763,5.1224,5.1598,5.2204,5.2641,5.2839,5.2907,5.2907,5.292,5.2972,5.2902,5.2555,5.3087,5.3565,5.3885,5.4412,5.4946,5.5356,5.5993,5.6378,5.6561,5.6702,5.6897,5.6909,5.6859,5.6859,5.6828,5.6828,5.6785,5.6785,5.681,5.6902,5.7091,5.7411,5.7731,5.7864,5.7942,5.8014,5.8143,5.8249,5.8479,5.8584,5.8627,5.8671,5.8683,5.8671,5.851,5.8671,5.8788,5.8956,5.9124,5.9275,5.9345,5.4042,5.4375,5.4124,5.4218,5.4564,5.4294,5.4149,5.4123,5.4032,5.389,5.3775,5.3762,5.3658,5.3514,5.3487,5.3487,5.3503,5.3398,5.3345,5.3358,5.3345,5.3213,5.2947,5.2814,5.2546,5.2126,5.2045,5.1909,5.1664,5.1651,5.1514,5.1252,5.11,5.0948,5.0711,5.0473,5.0305,5.0291,5.0122,4.9996,4.9996,4.9996,4.9996,4.9996,4.9996,4.9996,4.9941,4.9249,4.8953,4.9132,4.9173,4.931,4.9611,4.9788,4.9977,5.0193,5.0395,5.0569,5.0648,5.0718,5.0661,5.0786,5.1268,5.1761,5.2124,5.2762,5.3213,5.3464,5.3458,5.3487,5.3487,5.3487,5.3318,5.3014,5.3567,5.4132,5.4535,5.506,5.5614,5.5902,5.6286,5.6651,5.7057,5.7242,5.7439,5.7488,5.7321,5.7167,5.7106,5.6952,5.6921,5.6952,5.7136,5.7198,5.726,5.7641,5.8122,5.8307,5.8399,5.8448,5.8516,5.864,5.8826,5.8795,5.8838,5.8752,5.8783,5.8882,5.8882,5.9216,5.9439,5.9322,5.9272,5.9514,5.9681,5.476,5.4739,5.4394,5.4261,5.4239,5.398,5.3864,5.3854,5.3645,5.354,5.35,5.3527,5.3514,5.35,5.3487,5.3474,5.3451,5.3239,5.3067,5.3014,5.2987,5.2867,5.2653,5.2385,5.2099,5.1868,5.18,5.1664,5.1431,5.1376,5.1211,5.092,5.0683,5.0515,5.0417,5.0164,5.0024,4.9982,4.9967,4.9939,4.9897,4.9897,4.9897,4.9897,4.9883,4.9897,4.9912,4.9832,4.9887,4.9983,4.9889,5.0002,5.0348,5.0459,5.0684,5.1113,5.1335,5.1457,5.1676,5.1576,5.1632,5.1631,5.1835,5.2302,5.2543,5.2898,5.3306,5.3572,5.3693,5.372,5.3749,5.3749,5.3849,5.4065,5.434,5.4743,5.5223,5.5414,5.5858,5.6426,5.6704,5.7021,5.7963,5.8138,5.837,5.8416,5.8103,5.7925,5.7783,5.7537,5.7075,5.7229,5.766,5.7752,5.7906,5.8387,5.8836,5.8935,5.9054,5.9159,5.9122,5.9233,5.9406,5.9331,5.9165,5.9065,5.9115,5.9375,5.9418,5.9549,5.9573,5.9385,5.9533,5.9887,6.0048,5.4436,5.441,5.4123,5.3993,5.3955,5.371,5.3605,5.3592,5.3527,5.3487,5.3487,5.3487,5.3487,5.3487,5.3474,5.3411,5.3213,5.3122,5.2814,5.2492,5.2423,5.2425,5.2275,5.2032,5.1868,5.1773,5.1596,5.1459,5.139,5.1142,5.0892,5.0613,5.0515,5.0347,5.0137,5.0038,4.9897,4.9727,4.9698,4.957,4.9397,4.9369,4.934,4.934,4.9342,4.9497,4.9698,4.9897,4.9996,4.9996,4.9996,5.0024,5.0178,5.0347,5.0641,5.0989,5.1266,5.15,5.1718,5.1828,5.18,5.18,5.1995,5.2018,5.2331,5.3041,5.3525,5.3923,5.4427,5.4851,5.4865,5.4851,5.508,5.5517,5.547,5.5664,5.6315,5.6615,5.6714,5.6942,5.7114,5.7458,5.7846,5.8245,5.8525,5.8603,5.8575,5.8528,5.8467,5.8325,5.7925,5.8171,5.8479,5.851,5.8695,5.9175,5.9514,5.9637,5.9785,6.0014,5.9996,5.9996,6.0198,6.034,6.0088,5.9939,6.0142,6.0383,6.0252,5.9975,6.0129,6.016,6.0314,6.0537,6.0519,5.4123,5.411,5.3854,5.3736,5.371,5.3553,5.3487,5.3487,5.3487,5.3487,5.3487,5.3487,5.3422,5.3345,5.3332,5.3186,5.2934,5.2787,5.2504,5.2277,5.2099,5.2045,5.1964,5.1774,5.1637,5.1582,5.1307,5.1142,5.0989,5.0822,5.0599,5.0347,5.0291,5.0165,5.0024,4.9883,4.9769,4.9599,4.9456,4.9283,4.9125,4.9096,4.9111,4.9096,4.9111,4.9269,4.957,4.9755,4.9868,4.9967,4.9996,4.9996,5.001,5.0178,5.0431,5.0711,5.1031,5.1321,5.1652,5.1943,5.2152,5.225,5.2377,5.2726,5.3072,5.3631,5.409,5.4462,5.5052,5.5318,5.5403,5.5403,5.5818,5.6466,5.6527,5.6601,5.7085,5.7034,5.7244,5.745,5.7648,5.7956,5.8258,5.8642,5.8927,5.9159,5.9172,5.9159,5.9168,5.9008,5.891,5.899,5.9157,5.9218,5.9372,5.9791,6.0024,6.0191,6.0222,6.0517,6.0517,6.0499,6.0591,6.0701,6.0763,6.0794,6.0794,6.0794,6.0683,6.056,6.0763,6.0794,6.0794,6.0794,6.0794,5.3867,5.3825,5.3592,5.3487,5.35,5.3487,5.3487,5.3487,5.3487,5.3461,5.3422,5.3464,5.3279,5.3069,5.3054,5.2907,5.2627,5.2383,5.2235,5.2059,5.1896,5.1774,5.1747,5.1555,5.1404,5.1307,5.1017,5.0781,5.0599,5.0529,5.0305,5.0109,5.0038,4.9996,4.9897,4.9727,4.9597,4.9412,4.9197,4.901,4.8924,4.8895,4.8895,4.8909,4.8996,4.9183,4.9467,4.9665,4.9889,5.0104,5.0077,5.0131,5.0131,5.0146,5.0451,5.0803,5.1167,5.1433,5.1683,5.2449,5.2798,5.2897,5.3332,5.3782,5.3908,5.4287,5.4735,5.497,5.537,5.5724,5.578,5.5664,5.6242,5.7116,5.7354,5.7358,5.7325,5.7304,5.7543,5.8068,5.8188,5.8637,5.9128,5.9529,5.9656,5.9675,5.9674,5.9758,5.9763,5.9686,5.9514,5.9378,5.9637,5.9914,6.0098,6.0376,6.053,6.064,6.0578,6.0701,6.0701,6.0714,6.0732,6.0794,6.0794,6.0794,6.0794,6.0794,6.0794,6.0794,6.0794,6.0794,6.0794,6.0794,6.0794,5.3579,5.3566,5.3514,5.3487,5.3487,5.3487,5.3516,5.3474,5.3474,5.3358,5.3213,5.3173,5.3027,5.2787,5.2761,5.2627,5.2329,5.2222,5.2099,5.1841,5.161,5.1486,5.1472,5.139,5.1238,5.1017,5.0725,5.0543,5.0473,5.0249,5.0093,5.001,4.9993,4.991,4.9724,4.9664,4.934,4.8981,4.8835,4.8716,4.8542,4.8566,4.8566,4.8554,4.8743,4.8977,4.9318,4.9925,5.0414,5.0629,5.0715,5.077,5.0782,5.1108,5.1428,5.1704,5.2061,5.243,5.2797,5.3135,5.3487,5.3515,5.3698,5.3712,5.3825,5.4785,5.5265,5.5576,5.6257,5.671,5.6752,5.6854,5.716,5.7692,5.7943,5.8119,5.8519,5.862,5.865,5.877,5.8816,5.8963,5.9194,5.9395,5.965,5.9995,6.0198,6.0311,6.03,6.0232,6.0147,5.9932,6.0086,6.0345,6.0406,6.0591,6.0671,6.0794,6.0794,6.0794,6.0794,6.0794,6.0794,6.0794,6.0794,6.0794,6.0794,6.0794,6.0794,6.0794,6.0794,6.0794,6.0794,6.0794,6.0794,5.3691,5.3952,5.3981,5.3952,5.3954,5.3819,5.3579,5.3308,5.3173,5.3054,5.2934,5.2907,5.2747,5.2479,5.2437,5.2289,5.2072,5.2004,5.1883,5.1637,5.1431,5.1266,5.0989,5.0989,5.085,5.0669,5.0417,5.0291,5.022,5.008,4.9953,4.9866,5.0039,5.0056,4.9785,4.964,4.9421,4.9159,4.8939,4.8793,4.8661,4.8893,4.8982,4.8997,4.919,4.944,4.999,5.0379,5.0876,5.1248,5.1569,5.1611,5.1379,5.1623,5.1874,5.2076,5.2513,5.2745,5.303,5.3666,5.4105,5.4133,5.4372,5.4499,5.4712,5.5438,5.5851,5.6108,5.6677,5.7303,5.7303,5.7303,5.7598,5.8029,5.8195,5.8472,5.895,5.9099,5.9099,5.9099,5.9069,5.9069,5.918,5.9288,5.9449,5.9743,6.0039,6.0167,6.0442,6.0436,6.0583,6.0547,6.064,6.0732,6.0701,6.0763,6.0732,6.0794,6.0794,6.0794,6.0794,6.0794,6.0794,6.0794,6.0794,6.0794,6.0794,6.0794,6.0794,6.0794,6.0794,6.0794,6.0794,6.0794,6.0794,5.3954,5.4436,5.4523,5.4568,5.4444,5.4186,5.3746,5.3217,5.2944,5.285,5.264,5.264,5.2423,5.2181,5.214,5.1977,5.1787,5.1705,5.1596,5.1321,5.1197,5.0975,5.0655,5.0501,5.0445,5.0416,5.0192,5.0024,4.998,5.0019,4.9984,4.9811,5.0208,5.0289,5.0064,4.9814,4.9652,4.9522,4.9355,4.9236,4.9259,4.9599,4.974,4.9755,4.9759,5.0104,5.0578,5.0987,5.1344,5.1917,5.2504,5.2504,5.2233,5.2085,5.2129,5.2227,5.288,5.3228,5.3528,5.414,5.4737,5.4737,5.5131,5.5412,5.5571,5.5906,5.6237,5.6523,5.6893,5.7303,5.7303,5.7303,5.7598,5.8015,5.8195,5.85,5.8936,5.9099,5.9099,5.9099,5.9099,5.9099,5.9099,5.9167,5.9315,5.9476,5.9787,6.0065,6.0311,6.0573,6.0716,6.0794,6.0794,6.0794,6.0794,6.0794,6.0794,6.0794,6.0794,6.0794,6.0794,6.0794,6.0794,6.0794,6.0794,6.0794,6.0794,6.0794,6.0794,6.0794,6.0794,6.0794,6.0794,6.0794,6.0794,5.4253,5.4111,5.4701,5.4753,5.4519,5.445,5.4078,5.3563,5.3438,5.2975,5.2402,5.229,5.224,5.1965,5.1868,5.1733,5.1583,5.1459,5.1294,5.1003,5.0822,5.0599,5.0569,5.0301,5.0162,5.0066,5.0035,4.9988,4.9887,5.0071,5.0166,5.0082,5.0475,5.0605,5.0396,5.0247,5.0067,4.9947,4.9812,4.9782,4.9834,4.9965,5.0069,5.0069,5.0095,5.0417,5.095,5.145,5.1919,5.2526,5.3115,5.3305,5.3197,5.3185,5.3305,5.3546,5.3846,5.4101,5.4421,5.4939,5.5298,5.5383,5.544,5.5496,5.5642,5.6034,5.6365,5.6637,5.6936,5.7303,5.7303,5.7303,5.7598,5.7988,5.8236,5.8459,5.8936,5.9099,5.9099,5.9099,5.9099,5.9099,5.9099,5.9113,5.9221,5.9395,5.968,5.9933,6.0154,6.0455,6.0716,6.0768,6.0794,6.0794,6.0794,6.0794,6.0794,6.0794,6.0794,6.0794,6.0794,6.0794,6.0794,6.0794,6.0794,6.0794,6.0794,6.0794,6.0794,6.0794,6.0794,6.0794,6.0794,6.0794,6.0794,5.4244,5.4316,5.4989,5.5163,5.5009,5.4827,5.4429,5.3889,5.3708,5.3399,5.3104,5.2978,5.2726,5.239,5.2264,5.1987,5.1515,5.1197,5.0989,5.0711,5.0543,5.0594,5.0643,5.0357,5.0459,5.0534,5.0499,5.0282,5.0051,5.0428,5.0433,5.0398,5.0744,5.0858,5.0672,5.0596,5.052,5.0383,5.0357,5.0357,5.0394,5.0592,5.0749,5.076,5.0806,5.1154,5.1694,5.2006,5.2524,5.3076,5.3456,5.3565,5.3577,5.3622,5.3743,5.4089,5.4416,5.4713,5.4982,5.5305,5.5496,5.5496,5.551,5.551,5.5656,5.6005,5.6494,5.6851,5.7007,5.7303,5.7303,5.7303,5.7598,5.8029,5.8195,5.847,5.8909,5.9102,5.9189,5.9219,5.9219,5.9219,5.9099,5.9126,5.9167,5.9328,5.9556,5.977,5.9982,6.0285,6.0586,6.0625,6.0651,6.0742,6.0755,6.0781,6.0794,6.0794,6.0794,6.0794,6.0794,6.0794,6.0794,6.0794,6.0794,6.0794,6.0794,6.0794,6.0794,6.0794,6.0794,6.0794,6.0794,6.0794,6.0794,5.4288,5.4655,5.5338,5.5567,5.5467,5.5196,5.4757,5.4248,5.3965,5.381,5.3712,5.3656,5.3318,5.2883,5.2631,5.2282,5.1586,5.1334,5.115,5.0923,5.0853,5.0901,5.0844,5.0789,5.0735,5.0898,5.094,5.0724,5.0439,5.0706,5.0717,5.0692,5.1022,5.1189,5.1004,5.1004,5.0943,5.0958,5.0958,5.0958,5.1089,5.1361,5.1596,5.1596,5.1596,5.1845,5.2394,5.2497,5.2887,5.3341,5.3577,5.3577,5.3577,5.3577,5.3773,5.4176,5.446,5.4743,5.5098,5.532,5.551,5.551,5.551,5.551,5.5642,5.6034,5.6623,5.7148,5.7303,5.7303,5.7303,5.7303,5.7612,5.8015,5.8252,5.8447,5.9121,5.9458,5.9608,5.9578,5.9458,5.9338,5.9308,5.9113,5.914,5.9221,5.9436,5.9556,5.9783,6.0105,6.0342,6.0377,6.0468,6.0612,6.069,6.0768,6.0781,6.0794,6.0794,6.0794,6.0794,6.0794,6.0794,6.0794,6.0794,6.0794,6.0794,6.0794,6.0794,6.0794,6.0794,6.0794,6.0794,6.0794,6.0794,5.4669,5.4984,5.5651,5.579,5.5529,5.5443,5.5119,5.4584,5.4527,5.4161,5.3824,5.3726,5.3542,5.3132,5.2777,5.2492,5.2222,5.1983,5.1755,5.151,5.1493,5.1415,5.1284,5.1253,5.1079,5.115,5.1137,5.0846,5.0737,5.0979,5.1007,5.0924,5.1234,5.1497,5.1403,5.1361,5.1533,5.1507,5.1465,5.1465,5.1465,5.1544,5.1596,5.1596,5.1643,5.1908,5.2496,5.2619,5.2937,5.3486,5.3577,5.3577,5.3577,5.3577,5.3939,5.4326,5.4652,5.4832,5.5276,5.5452,5.551,5.551,5.551,5.551,5.5744,5.6106,5.6694,5.7233,5.7303,5.7303,5.7303,5.7303,5.764,5.8034,5.8342,5.8956,5.9636,5.9997,6.0146,6.0312,6.0282,5.9833,5.9548,5.9308,5.9113,5.9207,5.9301,5.9409,5.9556,5.9866,6.0118,6.0197,6.0289,6.0416,6.0573,6.0651,6.0742,6.0768,6.0794,6.0794,6.0794,6.0794,6.0794,6.0794,6.0824,6.0917,6.1009,6.0978,6.0855,6.0978,6.1194,6.104,6.0824,6.0824,6.1071,5.4643,5.484,5.5446,5.5627,5.551,5.551,5.5355,5.5159,5.5102,5.4861,5.4506,5.4435,5.4065,5.3427,5.2805,5.2397,5.228,5.2174,5.1959,5.1882,5.1836,5.1812,5.1776,5.1633,5.1469,5.1497,5.1459,5.1353,5.1211,5.1222,5.1323,5.1287,5.1465,5.1586,5.1596,5.1596,5.1596,5.1596,5.1596,5.1596,5.1596,5.1596,5.1596,5.1596,5.1596,5.197,5.2419,5.2646,5.2926,5.344,5.3577,5.3577,5.3652,5.3788,5.4104,5.452,5.4758,5.5054,5.5393,5.5509,5.5539,5.5539,5.5568,5.5642,5.5976,5.6408,5.6837,5.7247,5.7303,5.7332,5.7332,5.7303,5.7931,5.8385,5.8755,5.9575,6.0251,6.0482,6.0761,6.097,6.109,6.0641,6.0206,5.9877,5.9578,5.9259,5.924,5.9234,5.9355,5.9529,5.98,6.0043,6.0118,6.0193,6.0364,6.0508,6.0651,6.0716,6.0794,6.0794,6.0794,6.0794,6.0917,6.1071,6.1225,6.1286,6.1317,6.1379,6.144,6.1563,6.1686,6.1656,6.1656,6.1858,6.2012,5.4695,5.485,5.5314,5.5437,5.5379,5.5364,5.532,5.5247,5.5232,5.51,5.4951,5.4749,5.4307,5.3713,5.3036,5.2737,5.2655,5.2351,5.2262,5.2233,5.2168,5.2218,5.216,5.1991,5.1841,5.1981,5.1663,5.1538,5.1575,5.1586,5.1575,5.1596,5.157,5.1596,5.1596,5.1596,5.1596,5.1596,5.1596,5.1596,5.1596,5.1596,5.1596,5.1596,5.1659,5.1923,5.2481,5.263,5.291,5.3455,5.3577,5.3577,5.3622,5.3894,5.4194,5.462,5.4999,5.5449,5.5616,5.5664,5.5608,5.575,5.6064,5.654,5.6994,5.7168,5.7253,5.7594,5.7361,5.7419,5.7507,5.7594,5.8282,5.8958,5.9461,6.0299,6.0995,6.1213,6.1553,6.1882,6.1942,6.1642,6.1164,6.0655,6.0146,5.9518,5.9279,5.9129,5.9194,5.9328,5.9466,5.9754,5.9857,5.9963,6.0096,6.0294,6.046,6.0748,6.0826,6.0983,6.1106,6.1212,6.1348,6.1502,6.1717,6.1902,6.2042,6.2042,6.2073,6.2135,6.2258,6.2504,6.2658,6.2843,6.2843,5.4906,5.544,5.5481,5.5305,5.5041,5.5026,5.4906,5.4743,5.4711,5.4669,5.4565,5.4314,5.4124,5.3907,5.3588,5.3368,5.3447,5.3471,5.329,5.3185,5.315,5.2742,5.2474,5.2136,5.1922,5.1721,5.1612,5.1612,5.1596,5.1596,5.1596,5.1596,5.1596,5.1596,5.1596,5.1596,5.1596,5.1596,5.1596,5.1596,5.1596,5.1596,5.1596,5.1612,5.1659,5.1908,5.2542,5.2661,5.3018,5.3655,5.3727,5.3821,5.3963,5.4284,5.4628,5.4966,5.5618,5.6056,5.6236,5.6058,5.5932,5.6413,5.7015,5.7642,5.813,5.7916,5.796,5.816,5.7899,5.7855,5.8058,5.8348,5.8853,5.9561,6.017,6.0823,6.1479,6.1915,6.2271,6.2764,6.2734,6.2345,6.1972,6.1403,6.0535,5.9877,5.9249,5.9099,5.9099,5.9194,5.927,5.9421,5.957,5.9677,5.9787,6.0105,6.0702,6.1001,6.1147,6.1388,6.1621,6.1739,6.1858,6.2196,6.2443,6.2596,6.2781,6.2935,6.2966,6.2798,6.2891,6.3273,6.3366,6.3397,6.3273,5.4979,5.5173,5.5024,5.498,5.4982,5.4832,5.4684,5.4622,5.4607,5.4475,5.4281,5.3954,5.3788,5.3743,5.3698,5.3577,5.3577,5.3577,5.347,5.3303,5.3105,5.2784,5.243,5.2125,5.1923,5.1659,5.1596,5.1596,5.1596,5.1596,5.1596,5.1596,5.1596,5.1596,5.1596,5.1596,5.1596,5.1596,5.1596,5.1596,5.1596,5.1596,5.1596,5.1596,5.1846,5.211,5.2542,5.2815,5.3382,5.3904,5.4107,5.4313,5.4649,5.5118,5.5422,5.5677,5.6391,5.682,5.6983,5.6818,5.6878,5.7201,5.7794,5.838,5.8954,5.8711,5.8755,5.8784,5.8668,5.8581,5.8813,5.8972,5.9321,6.0193,6.0864,6.1433,6.1914,6.2337,6.2614,6.2958,6.3018,6.2854,6.2525,6.2135,6.1178,6.025,5.9621,5.9129,5.9189,5.9308,5.9428,5.9651,5.9861,6.0194,6.0336,6.0717,6.1112,6.1254,6.1437,6.1798,6.2102,6.2341,6.2522,6.286,6.3181,6.3335,6.355,6.3858,6.3827,6.355,6.3766,6.4197,6.4135,6.3964,6.3872,5.4952,5.4877,5.458,5.4565,5.4686,5.4535,5.4371,5.4311,5.4281,5.4191,5.3939,5.3682,5.3577,5.3577,5.3577,5.3577,5.3546,5.3455,5.3315,5.3075,5.283,5.2523,5.2214,5.1965,5.1783,5.1627,5.1596,5.1596,5.1596,5.1596,5.1596,5.1596,5.1596,5.1596,5.1596,5.1596,5.1596,5.1596,5.1596,5.1596,5.1596,5.1596,5.1596,5.1643,5.1877,5.2245,5.2679,5.3079,5.3712,5.4256,5.4665,5.5038,5.5515,5.6032,5.6387,5.675,5.7182,5.7659,5.769,5.7796,5.7934,5.825,5.8835,5.9236,5.9461,5.9566,5.9538,5.9524,5.9422,5.935,5.9466,5.9611,6.0005,6.0823,6.1292,6.1819,6.2273,6.2712,6.2872,6.3078,6.3078,6.3078,6.2764,6.2345,6.1387,6.0416,5.9578,5.9338,5.9578,5.9697,5.9877,6.0116,6.0427,6.0807,6.1188,6.1305,6.1363,6.1428,6.1676,6.2225,6.2557,6.2825,6.3295,6.3779,6.4026,6.4104,6.4228,6.4395,6.4364,6.4228,6.4457,6.4641,6.4641,6.4457,6.458,5.4832,5.4565,5.4224,5.4119,5.4134,5.4104,5.3954,5.3728,5.3725,5.3682,5.3667,5.3592,5.3577,5.3577,5.3546,5.3486,5.344,5.3227,5.3029,5.2861,5.2507,5.2183,5.1996,5.1799,5.1674,5.1612,5.1596,5.1596,5.1596,5.1596,5.1596,5.1596,5.1596,5.1596,5.1596,5.1596,5.1596,5.1596,5.1596,5.1596,5.1596,5.1596,5.1596,5.1674,5.1986,5.2368,5.2839,5.3524,5.4171,5.4793,5.522,5.5616,5.612,5.6431,5.6759,5.7098,5.7854,5.825,5.8308,5.8599,5.8918,5.9264,5.9793,6.0323,6.0739,6.0613,6.0206,6.0177,5.9858,5.98,5.9974,6.025,6.0777,6.1203,6.166,6.2056,6.2511,6.2891,6.3036,6.3108,6.3108,6.3078,6.2854,6.2421,6.1493,6.0565,5.9638,5.9518,5.9967,6.0176,6.0386,6.0745,6.1104,6.1385,6.1721,6.1621,6.1639,6.1648,6.1982,6.2638,6.3099,6.3383,6.3885,6.4525,6.4611,6.4518,6.4672,6.4871,6.4703,6.458,6.4703,6.4871,6.4901,6.4901,6.4901,5.4343,5.4251,5.3894,5.3773,5.3758,5.3773,5.3698,5.3607,5.3577,5.3577,5.3577,5.3577,5.3577,5.3531,5.3364,5.33,5.3224,5.2937,5.2723,5.2415,5.2167,5.1981,5.181,5.169,5.1596,5.1596,5.1596,5.1596,5.1596,5.1596,5.1596,5.1596,5.1648,5.1596,5.1596,5.1596,5.1596,5.1596,5.1596,5.1596,5.1596,5.1596,5.1612,5.1627,5.2136,5.2662,5.3194,5.3981,5.4754,5.5464,5.5914,5.6321,5.691,5.7323,5.768,5.8035,5.8681,5.9004,5.9221,5.9543,5.9879,6.021,6.0478,6.0907,6.1075,6.1019,6.0874,6.0816,6.0555,6.0584,6.0816,6.0845,6.1184,6.1437,6.1836,6.2175,6.2571,6.2905,6.3108,6.3108,6.3108,6.3108,6.2988,6.2734,6.1942,6.1553,6.0805,6.0462,6.0731,6.0821,6.097,6.1463,6.1836,6.2076,6.2252,6.22,6.23,6.2431,6.2753,6.3252,6.3626,6.3856,6.4228,6.4709,6.4812,6.4901,6.4901,6.4901,6.4901,6.4901,6.4901,6.4901,6.4901,6.4901,6.4901,5.4029,5.3909,5.3682,5.3577,5.3577,5.3577,5.3577,5.3577,5.3577,5.3577,5.3577,5.3577,5.3501,5.3364,5.3224,5.2983,5.2907,5.2584,5.2399,5.209,5.1939,5.1783,5.1659,5.1596,5.1596,5.1596,5.1596,5.1596,5.1596,5.1596,5.1596,5.1648,5.1821,5.1962,5.191,5.1805,5.1596,5.1596,5.1596,5.1596,5.1596,5.1612,5.1659,5.1971,5.2487,5.3168,5.3775,5.4575,5.5437,5.6174,5.6666,5.7059,5.7722,5.8182,5.8515,5.8845,5.9049,5.9423,5.9797,5.9953,6.0291,6.0789,6.0848,6.0982,6.1148,6.1135,6.1135,6.1135,6.1193,6.1164,6.1164,6.1193,6.1344,6.1613,6.1924,6.2263,6.26,6.292,6.3108,6.3108,6.3108,6.3108,6.3078,6.2854,6.245,6.2271,6.2061,6.1792,6.1479,6.1509,6.1613,6.2076,6.2389,6.2583,6.2748,6.2837,6.2969,6.3207,6.3438,6.3651,6.3989,6.4184,6.4532,6.4805,6.486,6.4901,6.4901,6.4901,6.4901,6.4901,6.4901,6.4901,6.4901,6.4901,6.4901,5.3894,5.3607,5.3577,5.3577,5.3577,5.3577,5.3577,5.3577,5.3577,5.3577,5.3546,5.3531,5.3349,5.3105,5.3029,5.2845,5.2569,5.2245,5.2105,5.1981,5.1768,5.1643,5.1612,5.1596,5.1596,5.1638,5.1716,5.1831,5.1675,5.1962,5.1936,5.191,5.2354,5.2459,5.238,5.2197,5.1936,5.1858,5.1805,5.1753,5.1648,5.1659,5.1878,5.2301,5.2977,5.3682,5.443,5.5341,5.6029,5.6634,5.7152,5.7679,5.8166,5.8515,5.8845,5.908,5.9174,5.9609,6.004,6.0194,6.0545,6.1013,6.1133,6.1178,6.1193,6.1193,6.1193,6.1193,6.1193,6.1193,6.1193,6.1269,6.1374,6.1687,6.1969,6.2307,6.2644,6.2876,6.305,6.3108,6.3108,6.3108,6.3108,6.2958,6.2794,6.2764,6.2614,6.2495,6.2225,6.2135,6.2315,6.2659,6.2913,6.3031,6.318,6.3266,6.3395,6.3538,6.3567,6.375,6.4118,6.441,6.4593,6.4777,6.486,6.4901,6.4901,6.4901,6.4901,6.4901,6.4901,6.4901,6.4901,6.4901,6.4901,5.3682,5.3592,5.3577,5.3577,5.3577,5.3577,5.3577,5.3577,5.3577,5.3486,5.3254,5.327,5.3044,5.2753,5.2492,5.2353,5.2167,5.1923,5.1783,5.1716,5.1721,5.1638,5.1648,5.1701,5.1648,5.1805,5.1988,5.2265,5.2354,5.2537,5.2798,5.2981,5.3008,5.3112,5.306,5.2971,5.2684,5.238,5.2302,5.2067,5.1925,5.1956,5.2312,5.2879,5.3557,5.4298,5.5244,5.5875,5.6479,5.7026,5.7418,5.7848,5.8182,5.8515,5.8829,5.9158,5.9407,5.9776,6.0148,6.0423,6.0727,6.1073,6.1193,6.1193,6.1193,6.1193,6.1193,6.1193,6.1193,6.1193,6.1268,6.1344,6.1538,6.185,6.2175,6.2483,6.2789,6.2949,6.3108,6.3108,6.3108,6.3108,6.3108,6.3078,6.2988,6.3078,6.3048,6.2928,6.2838,6.2718,6.2776,6.309,6.3252,6.3309,6.3481,6.361,6.3738,6.3851,6.388,6.3934,6.4258,6.4493,6.4621,6.4749,6.486,6.4901,6.4901,6.4901,6.4901,6.4901,6.4901,6.4901,6.4901,6.4901,6.4901,5.3577,5.3577,5.3577,5.3577,5.3577,5.3455,5.341,5.3395,5.3395,5.3285,5.309,5.2953,5.2723,5.2388,5.2214,5.2059,5.1903,5.1737,5.1627,5.168,5.1858,5.1962,5.1988,5.2171,5.238,5.2459,5.2589,5.2851,5.2981,5.3138,5.3347,5.3347,5.353,5.3687,5.3766,5.387,5.3739,5.3321,5.2955,5.2668,5.2575,5.2597,5.3102,5.3582,5.4257,5.5154,5.5894,5.6377,5.6896,5.7345,5.7704,5.8055,5.8388,5.8704,5.9033,5.9345,5.956,5.9961,6.0331,6.056,6.0877,6.1103,6.1193,6.1193,6.1193,6.1193,6.1193,6.1193,6.1193,6.1223,6.1299,6.1449,6.1746,6.2028,6.238,6.2731,6.292,6.3064,6.3108,6.3108,6.3108,6.3108,6.3108,6.3108,6.3108,6.3108,6.3108,6.3078,6.3018,6.2958,6.3043,6.3249,6.341,6.351,6.3709,6.3908,6.4021,6.409,6.4146,6.4272,6.4465,6.4621,6.4763,6.4832,6.4888,6.4901,6.4901,6.4901,6.4901,6.4901,6.4901,6.4901,6.4901,6.4901,6.4901,5.3577,5.3577,5.3577,5.3561,5.3501,5.327,5.3117,5.3071,5.2998,5.2983,5.2907,5.2692,5.2384,5.2105,5.1996,5.1846,5.1815,5.1758,5.1831,5.1727,5.2328,5.2563,5.272,5.306,5.3008,5.3269,5.3478,5.353,5.3556,5.3739,5.3834,5.3573,5.4027,5.4288,5.4341,5.4654,5.4524,5.4184,5.3873,5.365,5.3505,5.3713,5.4139,5.4597,5.5258,5.6018,5.6415,5.6874,5.7383,5.7688,5.8055,5.8388,5.8719,5.8955,5.9283,5.9578,5.9745,6.0102,6.0484,6.0727,6.0908,6.1103,6.1193,6.1193,6.1193,6.1193,6.1193,6.1193,6.1193,6.1254,6.1374,6.1628,6.1924,6.2234,6.2556,6.2833,6.3007,6.3108,6.3108,6.3108,6.3108,6.3108,6.3108,6.3108,6.3108,6.3108,6.3108,6.3108,6.3194,6.3194,6.3324,6.3465,6.3679,6.3835,6.3977,6.4146,6.4272,6.4356,6.4412,6.451,6.4677,6.4805,6.4888,6.4901,6.4901,6.4901,6.4901,6.4901,6.4901,6.4901,6.4901,6.4901,6.4901,6.4888,6.4901,5.3577,5.3577,5.3577,5.3455,5.3239,5.3148,5.2937,5.2681,5.2445,5.2353,5.2322,5.2245,5.2032,5.1783,5.1831,5.1753,5.1774,5.2135,5.225,5.2459,5.2903,5.3164,5.3191,5.3452,5.3504,5.3556,5.3792,5.421,5.4419,5.4576,5.4654,5.4654,5.4811,5.4785,5.4811,5.5099,5.4942,5.4775,5.4833,5.4449,5.4088,5.4245,5.4597,5.5279,5.6045,5.6449,5.6874,5.7311,5.756,5.7768,5.8309,5.8704,5.9064,5.9142,5.9361,5.9684,5.9964,6.0316,6.0636,6.0922,6.1088,6.1133,6.1193,6.1193,6.1193,6.1193,6.1208,6.1208,6.1253,6.1344,6.1523,6.1821,6.2101,6.241,6.2746,6.292,6.3093,6.3093,6.3108,6.3108,6.3108,6.3108,6.3108,6.3108,6.3108,6.3108,6.3108,6.3165,6.3367,6.3438,6.3508,6.3708,6.4031,6.42,6.4328,6.4412,6.4524,6.4638,6.4694,6.4791,6.4874,6.4888,6.4901,6.4901,6.4901,6.4901,6.4901,6.4901,6.4901,6.4901,6.4901,6.4901,6.4874,6.486,6.4888,5.3577,5.3577,5.3425,5.3182,5.2891,5.2707,5.2538,5.2353,5.2001,5.1887,5.1887,5.1872,5.1794,5.1716,5.1873,5.2004,5.2119,5.2616,5.2825,5.306,5.3426,5.3661,5.3818,5.3975,5.421,5.4288,5.4445,5.4811,5.5046,5.5072,5.502,5.5099,5.5099,5.5099,5.5099,5.5099,5.5099,5.5089,5.5448,5.5274,5.4828,5.5237,5.5585,5.6257,5.6547,5.6913,5.7112,5.7528,5.7752,5.8055,5.8578,5.8892,5.9174,5.9345,5.9593,5.9917,6.0255,6.0575,6.0877,6.1073,6.1193,6.1193,6.1193,6.1193,6.1253,6.1254,6.1419,6.1434,6.1434,6.1509,6.1835,6.2131,6.2292,6.2571,6.2833,6.305,6.3108,6.3108,6.3108,6.3108,6.3108,6.3108,6.3108,6.3108,6.3122,6.3151,6.3151,6.3309,6.3495,6.3752,6.3793,6.3934,6.4256,6.4524,6.4607,6.4707,6.4791,6.4874,6.4901,6.4888,6.4888,6.4888,6.4901,6.4901,6.4901,6.4901,6.4901,6.4901,6.4901,6.4901,6.4901,6.4901,6.486,6.4791,6.4721,5.3561,5.3486,5.3166,5.2845,5.2511,5.2245,5.209,5.1996,5.1841,5.1727,5.1837,5.1915,5.1805,5.191,5.2318,5.2501,5.2772,5.3243,5.3452,5.3635,5.4079,5.4262,5.4497,5.4759,5.4794,5.4873,5.4968,5.4994,5.5072,5.5099,5.5099,5.5099,5.5099,5.5099,5.5099,5.5099,5.5115,5.5299,5.5581,5.5868,5.6154,5.6508,5.6601,5.678,5.7012,5.719,5.7335,5.7576,5.7912,5.8325,5.8798,5.9033,5.9267,5.9454,5.9794,6.0102,6.0438,6.0772,6.1073,6.1163,6.1193,6.1193,6.1193,6.1238,6.1269,6.1434,6.1569,6.1717,6.1717,6.1821,6.216,6.2351,6.2527,6.2702,6.2949,6.3108,6.3108,6.3108,6.3108,6.3108,6.3108,6.3108,6.3108,6.3108,6.3165,6.3194,6.3324,6.3481,6.3695,6.3977,6.4174,6.4286,6.451,6.4735,6.4846,6.4874,6.4901,6.4901,6.4901,6.4901,6.4901,6.4901,6.4901,6.4901,6.4901,6.4901,6.4901,6.4901,6.4901,6.4901,6.4901,6.4874,6.4677,6.4593,6.4454,5.344,5.3151,5.2845,5.2523,5.2214,5.2131,5.195,5.181,5.2166,5.2328,5.2433,5.2798,5.2841,5.2354,5.2955,5.3217,5.3295,5.3792,5.4001,5.4131,5.4576,5.4794,5.4899,5.4968,5.5072,5.5099,5.5099,5.5099,5.5099,5.5099,5.5099,5.5099,5.5099,5.5099,5.5099,5.5115,5.5215,5.5448,5.5786,5.6132,5.6453,5.6714,5.685,5.7012,5.7157,5.7367,5.7592,5.7912,5.8262,5.8609,5.8939,5.9142,5.9361,5.9578,5.9917,6.027,6.059,6.0863,6.1103,6.1178,6.1193,6.1208,6.1238,6.1329,6.1449,6.1598,6.1836,6.2219,6.2248,6.2248,6.2483,6.2526,6.2673,6.2876,6.3108,6.3108,6.3108,6.3108,6.3108,6.3108,6.3108,6.3108,6.3108,6.3165,6.3266,6.3338,6.351,6.3665,6.4047,6.43,6.4524,6.4621,6.4749,6.4818,6.4888,6.4888,6.4901,6.4901,6.4901,6.4901,6.4901,6.4901,6.4901,6.4901,6.4901,6.4901,6.4901,6.4901,6.4901,6.4901,6.4901,6.4846,6.4621,6.4412,6.4272]},{"header":{"parameterUnit":"m.s-1","parameterCategory":1,"la1":31.0,"la2":29.5877,"lo1":-88.7671,"lo2":-86.6584,"dy":0.0162,"dx":0.0185,"nx":115,"ny":88,"refTime":"2023-05-22T00:00:00:Z","depth":0,"parameterNumber":3,"parameterNumberName":"V-component_of_WINDS"},"data":[0.0,0.0,0.0,0.0,0.0,0.0,0.0,0.0,0.0,0.0,0.0,0.0,0.0,0.0,0.0,0.0,0.0,0.0,0.0,0.0,0.0,0.0,0.0,0.0,0.0,0.0,0.0,0.0,0.0,0.0,0.0,0.0,0.0,0.0,0.0,0.0,0.0,0.0,0.0,0.0,0.0,0.0,0.0,0.0,0.0,0.0,0.0,0.0,0.0,0.0,0.0,0.0,0.0,0.0,0.0,0.0,0.0,0.0,0.0,0.0,0.0,0.0,0.0,0.0,0.0,0.0,0.0,0.0,0.0,0.0,0.0,0.0,0.0,0.0,0.0,0.0,0.0,0.0,0.0,0.0,0.0,0.0,0.0,0.0,0.0,0.0,0.0,0.0,0.0,0.0,0.0,0.0,0.0,0.0,0.0,0.0,0.0,0.0,0.0,0.0,0.0,0.0,0.0,0.0,0.0,0.0,0.0,0.0,0.0,0.0,0.0,0.0,0.0,0.0,0.0,0.0,0.0,0.0,0.0,0.0,0.0,0.0,0.0,0.0,0.0,0.0,0.0,0.0,0.0,0.0,0.0,0.0,0.0,0.0,0.0,0.0,0.0,0.0,0.0,0.0,0.0,0.0,0.0,0.0,0.0,0.0,0.0,0.0,0.0,0.0,0.0,0.0,0.0,0.0,0.0,0.0,0.0,0.0,0.0,0.0,0.0,0.0,0.0,0.0,0.0,0.0,0.0,0.0,0.0,0.0,0.0,0.0,0.0,0.0,0.0,0.0,0.0,0.0,0.0,0.0,0.0,0.0,0.0,0.0,0.0,0.0,0.0,0.0,0.0,0.0,0.0,0.0,0.0,0.0,0.0,0.0,0.0,0.0,0.0,0.0,0.0,0.0,0.0,0.0,0.0,0.0,0.0,0.0,0.0,0.0,0.0,0.0,0.0,0.0,0.0,0.0,0.0,0.0,0.0,0.0,0.0,0.0,0.0,0.0,0.0,0.0,0.0,0.0,0.0,0.0,0.0,0.0,0.0,0.0,0.0,0.0,0.0,0.0,0.0,0.0,0.0,0.0,0.0,0.0,0.0,0.0,0.0,0.0,0.0,0.0,0.0,0.0,0.0,0.0,0.0,0.0,0.0,0.0,0.0,0.0,0.0,0.0,0.0,0.0,0.0,0.0,0.0,0.0,0.0,0.0,0.0,0.0,0.0,0.0,0.0,0.0,0.0,0.0,0.0,0.0,0.0,0.0,0.0,0.0,0.0,0.0,0.0,0.0,0.0,0.0,0.0,0.0,0.0,0.0,0.0,0.0,0.0,0.0,0.0,0.0,0.0,0.0,0.0,0.0,0.0,0.0,0.0,0.0,0.0,0.0,0.0,0.0,0.0,0.0,0.0,0.0,0.0,0.0,0.0,0.0,0.0,0.0,0.0,0.0,0.0,0.0,0.0,0.0,0.0,0.0,0.0,0.0,0.0,0.0,0.0,0.0,0.0,0.0,0.0,0.0,0.0,0.0,0.0,0.0,0.0,0.0,0.0,0.0,0.0,0.0,0.0,0.0,0.0,0.0,0.0,0.0,0.0,0.0,0.0,0.0,0.0,0.0,0.0,0.0,0.0,0.0,0.0,0.0,0.0,0.0,0.0,0.0,0.0,0.0,0.0,0.0,0.0,0.0,0.0,0.0,0.0,0.0,0.0,0.0,0.0,0.0,0.0,0.0,0.0,0.0,0.0,0.0,0.0,0.0,0.0,0.0,0.0,0.0,0.0,0.0,0.0,0.0,0.0,0.0,0.0,0.0,0.0,0.0,0.0,0.0,0.0,0.0,0.0,0.0,0.0,0.0,0.0,0.0,0.0,0.0,0.0,0.0,0.0,0.0,0.0,0.0,0.0,0.0,0.0,0.0,0.0,0.0,0.0,0.0,0.0,0.0,0.0,0.0,0.0,0.0,0.0,0.0,0.0,0.0,0.0,0.0,0.0,0.0,0.0,0.0,0.0,0.0,0.0,0.0,0.0,0.0,0.0,0.0,0.0,0.0,0.0,0.0,0.0,0.0,0.0,0.0,0.0,0.0,0.0,0.0,0.0,0.0,0.0,0.0,0.0,0.0,0.0,0.0,0.0,0.0,0.0,0.0,0.0,0.0,0.0,0.0,0.0,0.0,0.0,0.0,0.0,0.0,0.0,0.0,0.0,0.0,0.0,0.0,0.0,0.0,0.0,0.0,0.0,0.0,0.0,0.0,0.0,0.0,0.0,0.0,0.0,0.0,0.0,0.0,0.0,0.0,0.0,0.0,0.0,0.0,0.0,0.0,0.0,0.0,0.0,0.0,0.0,0.0,0.0,0.0,0.0,0.0,0.0,0.0,0.0,0.0,0.0,0.0,0.0,0.0,0.0,0.0,0.0,0.0,0.0,0.0,0.0,0.0,0.0,0.0,0.0,0.0,0.0,0.0,0.0,0.0,0.0,0.0,0.0,0.0,0.0,0.0,0.0,0.0,0.0,0.0,0.0,0.0,0.0,0.0,0.0,0.0,0.0,0.0,0.0,0.0,0.0,0.0,0.0,0.0,0.0,0.0,0.0,0.0,0.0,0.0,0.0,0.0,0.0,0.0,0.0,0.0,0.0,0.0,0.0,0.0,0.0,0.0,0.0,0.0,0.0,0.0,0.0,0.0,0.0,0.0,0.0,0.0,0.0,0.0,0.0,0.0,0.0,0.0,0.0,0.0,0.0,0.0,0.0,0.0,0.0,0.0,0.0,0.0,0.0,0.0,0.0,0.0,0.0,0.0,0.0,0.0,0.0,0.0,0.0,0.0,0.0,0.0,0.0,0.0,0.0,0.0,0.0,0.0,0.0,0.0,0.0,0.0,0.0,0.0,0.0,0.0,0.0,0.0,0.0,0.0,0.0,0.0,0.0,0.0,0.0,0.0,0.0,0.0,0.0,0.0,0.0,0.0,0.0,0.0,0.0,0.0,0.0,0.0,0.0,0.0,0.0,0.0,0.0,0.0,0.0,0.0,0.0,0.0,0.0,0.0,0.0,0.0,0.0,0.0,0.0,0.0,0.0,0.0,0.0,0.0,0.0,0.0,0.0,0.0,0.0,0.0,0.0,0.0,0.0,0.0,0.0,0.0,0.0,0.0,0.0,0.0,0.0,0.0,0.0,0.0,0.0,0.0,0.0,0.0,0.0,0.0,0.0,0.0,0.0,0.0,0.0,0.0,0.0,0.0,0.0,0.0,0.0,0.0,0.0,0.0,0.0,0.0,0.0,0.0,0.0,0.0,0.0,0.0,0.0,0.0,0.0,0.0,0.0,0.0,0.0,0.0,0.0,0.0,0.0,0.0,0.0,0.0,0.0,0.0,0.0,0.0,0.0,0.0,0.0,0.0,0.0,0.0,0.0,0.0,0.0,0.0,0.0,0.0,0.0,0.0,0.0,0.0,0.0,0.0,0.0,0.0,0.0,0.0,0.0,0.0,0.0,0.0,0.0,0.0,0.0,0.0,0.0,0.0,0.0,0.0,0.0,0.0,0.0,0.0,0.0,0.0,0.0,0.0,0.0,0.0,0.0,0.0,0.0,0.0,0.0,0.0,0.0,0.0,0.0,0.0,0.0,0.0,0.0,0.0,0.0,0.0,0.0,0.0,0.0,0.0,0.0,0.0,0.0,0.0,0.0,0.0,0.0,0.0,0.0,0.0,0.0,0.0,0.0,0.0,0.0,0.0,0.0,0.0,0.0,0.0,0.0,0.0,0.0,0.0,0.0,0.0,0.0,0.0,0.0,0.0,0.0,0.0,0.0,0.0,0.0,0.0,0.0,0.0,0.0,0.0,0.0,0.0,0.0,0.0,0.0,0.0,0.0,0.0,0.0,0.0,0.0,0.0,0.0,0.0,0.0,0.0,0.0,0.0,0.0,0.0,0.0,0.0,0.0,0.0,0.0,0.0,0.0,0.0,0.0,0.0,0.0,0.0,0.0,0.0,0.0,0.0,0.0,0.0,0.0,0.0,0.0,0.0,0.0,0.0,0.0,0.0,0.0,0.0,0.0,0.0,0.0,0.0,0.0,0.0,0.0,0.0,0.0,0.0,0.0,0.0,0.0,0.0,0.0,0.0,0.0,0.0,0.0,0.0,0.0,0.0,0.0,0.0,0.0,0.0,0.0,0.0,0.0,0.0,0.0,0.0,0.0,0.0,0.0,0.0,0.0,0.0,0.0,0.0,0.0,0.0,0.0,0.0,0.0,0.0,0.0,0.0,0.0,0.0,0.0,0.0,1.6605,0.0,0.0,0.0,0.0,0.0,0.0,0.0,0.0,0.0,0.0,0.0,0.0,0.0,0.0,0.0,0.0,0.0,0.0,0.0,0.0,0.0,0.0,0.0,0.0,0.0,0.0,0.0,0.0,0.0,0.0,0.0,0.0,0.0,0.0,0.0,0.0,0.0,0.0,0.0,0.0,0.0,0.0,0.0,0.0,0.0,0.0,0.0,0.0,0.0,0.0,0.0,0.0,0.0,0.0,0.0,0.0,0.0,0.0,0.0,0.0,0.0,0.0,0.0,0.0,0.0,0.0,0.0,0.0,0.0,0.0,0.0,0.0,0.0,0.0,0.0,0.0,0.0,0.0,0.0,0.0,0.0,0.0,0.0,0.0,0.0,0.0,0.0,0.0,0.0,0.0,0.0,0.0,0.0,0.0,0.0,0.0,0.0,0.0,0.0,0.0,0.0,0.0,0.0,0.0,0.0,0.0,0.0,0.0,0.0,0.0,1.6896,1.703,1.7286,1.7417,1.7417,0.0,0.0,0.0,0.0,0.0,0.0,0.0,0.0,0.0,0.0,0.0,0.0,0.0,0.0,0.0,0.0,0.0,0.0,0.0,0.0,0.0,0.0,0.0,0.0,0.0,0.0,0.0,0.0,0.0,0.0,0.0,0.0,0.0,0.0,0.0,0.0,0.0,0.0,0.0,0.0,0.0,0.0,0.0,0.0,0.0,0.0,0.0,0.0,0.0,0.0,0.0,0.0,0.0,0.0,0.0,0.0,0.0,0.0,0.0,0.0,0.0,0.0,0.0,0.0,0.0,0.0,0.0,0.0,0.0,0.0,0.0,0.0,0.0,0.0,0.0,0.0,0.0,0.0,0.0,0.0,0.0,0.0,0.0,0.0,0.0,0.0,0.0,0.0,0.0,0.0,0.0,0.0,0.0,0.0,0.0,0.0,0.0,0.0,0.0,0.0,0.0,0.0,0.0,0.0,0.0,0.0,0.0,0.0,0.0,0.0,0.0,0.0,1.7898,1.8098,1.8098,0.0,0.0,0.0,0.0,0.0,0.0,0.0,0.0,0.0,0.0,0.0,0.0,0.0,0.0,0.0,0.0,0.0,0.0,0.0,0.0,0.0,0.0,0.0,0.0,0.0,0.0,0.0,0.0,0.0,0.0,0.0,0.0,0.0,0.0,0.0,0.0,0.0,0.0,0.0,0.0,0.0,0.0,0.0,0.0,0.0,0.0,0.0,0.0,0.0,0.0,0.0,0.0,0.0,0.0,0.0,0.0,0.0,0.0,0.0,0.0,0.0,0.0,0.0,0.0,0.0,0.0,0.0,0.0,0.0,0.0,0.0,0.0,0.0,0.0,0.0,0.0,0.0,0.0,0.0,0.0,0.0,0.0,0.0,0.0,0.0,0.0,0.0,0.0,0.0,0.0,0.0,0.0,0.0,0.0,0.0,0.0,0.0,0.0,0.0,0.0,0.0,0.0,0.0,0.0,0.0,0.0,0.0,0.0,0.0,0.0,1.7722,1.7866,1.802,0.0,1.8098,0.0,0.0,0.0,0.0,0.0,0.0,0.0,0.0,0.0,0.0,0.0,0.0,0.0,0.0,0.0,0.0,0.0,0.0,0.0,0.0,0.0,0.0,0.0,0.0,0.0,0.0,0.0,0.0,0.0,0.0,0.0,0.0,0.0,0.0,0.0,0.0,0.0,0.0,0.0,0.0,0.0,0.0,0.0,0.0,0.0,0.0,0.0,0.0,0.0,0.0,0.0,0.0,0.0,0.0,0.0,0.0,0.0,0.0,0.0,0.0,0.0,0.0,0.0,0.0,0.0,0.0,0.0,0.0,0.0,0.0,0.0,0.0,0.0,0.0,0.0,0.0,0.0,0.0,0.0,0.0,0.0,0.0,0.0,0.0,0.0,0.0,0.0,0.0,0.0,0.0,0.0,0.0,0.0,0.0,0.0,0.0,0.0,0.0,0.0,0.0,0.0,0.0,0.0,0.0,0.0,0.0,0.0,0.0,0.0,0.0,1.7769,1.7891,1.803,1.8098,0.0,0.0,0.0,0.0,0.0,0.0,0.0,0.0,0.0,0.0,0.0,0.0,0.0,0.0,0.0,0.0,0.0,0.0,0.0,0.0,0.0,0.0,0.0,0.0,0.0,0.0,0.0,0.0,0.0,0.0,0.0,0.0,0.0,0.0,0.0,0.0,0.0,0.0,0.0,0.0,0.0,0.0,0.0,0.0,0.0,0.0,0.0,0.0,0.0,0.0,0.0,0.0,0.0,0.0,0.0,0.0,0.0,0.0,0.0,0.0,0.0,0.0,0.0,0.0,0.0,0.0,0.0,0.0,0.0,0.0,0.0,0.0,0.0,0.0,0.0,0.0,0.0,0.0,0.0,0.0,0.0,0.0,0.0,0.0,0.0,0.0,0.0,0.0,0.0,0.0,0.0,0.0,0.0,0.0,0.0,0.0,0.0,0.0,0.0,0.0,0.0,0.0,0.0,0.0,0.0,0.0,0.0,0.0,0.0,0.0,1.8034,1.8218,1.8384,1.8338,1.8318,1.8318,0.0,0.0,0.0,0.0,0.0,0.0,0.0,0.0,0.0,0.0,0.0,0.0,0.0,0.0,0.0,0.0,0.0,0.0,0.0,0.0,0.0,0.0,0.0,0.0,0.0,0.0,0.0,0.0,0.0,0.0,0.0,0.0,0.0,0.0,0.0,0.0,0.0,0.0,0.0,0.0,0.0,0.0,0.0,0.0,0.0,0.0,0.0,0.0,0.0,0.0,0.0,0.0,0.0,0.0,0.0,0.0,0.0,0.0,0.0,0.0,0.0,0.0,0.0,0.0,0.0,0.0,0.0,0.0,0.0,0.0,0.0,0.0,0.0,0.0,0.0,0.0,0.0,0.0,0.0,0.0,0.0,0.0,0.0,0.0,0.0,0.0,0.0,0.0,0.0,0.0,0.0,0.0,0.0,0.0,0.0,0.0,0.0,0.0,0.0,0.0,0.0,0.0,0.0,0.0,0.0,0.0,0.0,0.0,1.8656,1.8948,1.929,1.9578,1.9119,1.885,0.0,0.0,0.0,0.0,0.0,0.0,0.0,0.0,0.0,0.0,0.0,0.0,0.0,0.0,0.0,0.0,0.0,0.0,0.0,0.0,0.0,0.0,0.0,0.0,0.0,0.0,0.0,0.0,0.0,0.0,0.0,0.0,0.0,0.0,0.0,0.0,0.0,0.0,0.0,0.0,0.0,0.0,0.0,0.0,0.0,0.0,0.0,0.0,0.0,0.0,0.0,0.0,0.0,0.0,0.0,0.0,0.0,0.0,0.0,0.0,0.0,0.0,0.0,0.0,0.0,0.0,0.0,0.0,0.0,0.0,0.0,0.0,0.0,0.0,0.0,0.0,0.0,0.0,0.0,0.0,0.0,0.0,0.0,0.0,0.0,0.0,0.0,0.0,0.0,0.0,0.0,0.0,0.0,0.0,0.0,0.0,0.0,0.0,0.0,0.0,0.0,0.0,0.0,0.0,0.0,0.0,0.0,0.0,0.0,1.8909,1.9164,1.9439,1.967,1.9501,1.9401,0.0,0.0,0.0,0.0,0.0,0.0,0.0,0.0,0.0,0.0,0.0,0.0,0.0,0.0,0.0,0.0,0.0,0.0,0.0,0.0,0.0,0.0,0.0,0.0,0.0,0.0,0.0,0.0,0.0,0.0,0.0,0.0,0.0,0.0,0.0,0.0,0.0,0.0,0.0,0.0,0.0,0.0,0.0,0.0,0.0,0.0,0.0,0.0,0.0,0.0,0.0,0.0,0.0,0.0,0.0,0.0,0.0,0.0,0.0,0.0,0.0,0.0,0.0,0.0,0.0,0.0,0.0,0.0,0.0,0.0,0.0,0.0,0.0,0.0,0.0,0.0,0.0,0.0,0.0,0.0,0.0,0.0,0.0,0.0,0.0,0.0,0.0,0.0,0.0,0.0,0.0,0.0,0.0,0.0,0.0,0.0,0.0,0.0,0.0,0.0,0.0,0.0,0.0,0.0,0.0,0.0,0.0,0.0,0.0,1.9542,0.0,1.9977,2.0174,2.0029,1.993,0.0,0.0,0.0,0.0,0.0,0.0,0.0,0.0,0.0,0.0,0.0,0.0,0.0,0.0,0.0,0.0,0.0,0.0,0.0,0.0,0.0,0.0,0.0,0.0,0.0,0.0,0.0,0.0,0.0,0.0,0.0,0.0,0.0,0.0,0.0,0.0,0.0,0.0,0.0,0.0,0.0,0.0,0.0,0.0,0.0,0.0,0.0,0.0,0.0,0.0,0.0,0.0,0.0,0.0,0.0,0.0,0.0,0.0,0.0,0.0,0.0,0.0,0.0,0.0,0.0,0.0,0.0,0.0,0.0,0.0,0.0,0.0,0.0,0.0,0.0,0.0,0.0,0.0,0.0,0.0,0.0,0.0,0.0,0.0,0.0,0.0,0.0,0.0,0.0,0.0,0.0,0.0,0.0,0.0,0.0,0.0,0.0,0.0,0.0,0.0,0.0,0.0,0.0,0.0,0.0,0.0,0.0,0.0,2.0332,2.0704,2.0842,2.0995,2.1186,2.0695,2.0427,0.0,0.0,0.0,0.0,0.0,0.0,0.0,0.0,0.0,0.0,0.0,0.0,0.0,0.0,0.0,0.0,0.0,0.0,0.0,0.0,0.0,0.0,0.0,0.0,0.0,0.0,0.0,0.0,0.0,0.0,0.0,0.0,0.0,0.0,0.0,0.0,0.0,0.0,0.0,0.0,0.0,0.0,0.0,0.0,0.0,0.0,0.0,0.0,0.0,0.0,0.0,0.0,0.0,0.0,0.0,0.0,0.0,0.0,0.0,0.0,0.0,0.0,0.0,0.0,0.0,0.0,0.0,0.0,0.0,0.0,0.0,0.0,0.0,0.0,0.0,0.0,0.0,0.0,0.0,0.0,0.0,0.0,0.0,0.0,0.0,0.0,0.0,0.0,0.0,0.0,0.0,0.0,0.0,0.0,0.0,0.0,0.0,0.0,0.0,0.0,0.0,0.0,0.0,0.0,0.0,0.0,0.0,0.0,0.0,2.1868,2.2052,2.2009,2.1697,2.1521,2.1299,0.0,0.0,0.0,0.0,0.0,0.0,0.0,0.0,0.0,0.0,0.0,0.0,0.0,0.0,0.0,0.0,0.0,0.0,0.0,0.0,0.0,0.0,0.0,0.0,0.0,0.0,0.0,0.0,0.0,0.0,0.0,0.0,0.0,0.0,0.0,0.0,0.0,0.0,0.0,0.0,0.0,0.0,0.0,0.0,0.0,0.0,0.0,0.0,0.0,0.0,0.0,0.0,0.0,0.0,0.0,0.0,0.0,0.0,0.0,0.0,0.0,0.0,0.0,0.0,0.0,0.0,0.0,0.0,0.0,0.0,0.0,0.0,0.0,0.0,0.0,0.0,0.0,0.0,0.0,0.0,0.0,0.0,0.0,0.0,0.0,0.0,0.0,0.0,0.0,0.0,0.0,0.0,0.0,0.0,0.0,0.0,0.0,0.0,0.0,0.0,0.0,0.0,0.0,0.0,0.0,0.0,0.0,0.0,0.0,2.3047,2.2817,2.2541,2.2186,2.1994,2.1758,2.1461,0.0,0.0,0.0,0.0,0.0,0.0,0.0,0.0,0.0,0.0,0.0,0.0,0.0,0.0,0.0,0.0,0.0,0.0,0.0,0.0,0.0,0.0,0.0,0.0,0.0,0.0,0.0,0.0,0.0,0.0,0.0,0.0,0.0,0.0,0.0,0.0,0.0,0.0,0.0,0.0,0.0,0.0,0.0,0.0,0.0,0.0,0.0,0.0,0.0,0.0,0.0,0.0,0.0,0.0,0.0,0.0,0.0,0.0,0.0,0.0,0.0,0.0,0.0,0.0,0.0,0.0,0.0,0.0,0.0,0.0,0.0,0.0,0.0,0.0,0.0,0.0,0.0,0.0,0.0,0.0,0.0,0.0,0.0,0.0,0.0,0.0,0.0,0.0,0.0,0.0,0.0,0.0,0.0,0.0,0.0,0.0,0.0,0.0,0.0,0.0,0.0,0.0,0.0,0.0,0.0,0.0,0.0,0.0,2.4186,2.3276,2.2771,2.2716,2.2255,2.1979,0.0,0.0,0.0,0.0,0.0,0.0,0.0,0.0,0.0,0.0,0.0,0.0,0.0,0.0,0.0,0.0,0.0,0.0,0.0,0.0,0.0,0.0,0.0,0.0,0.0,0.0,0.0,0.0,0.0,0.0,0.0,0.0,0.0,0.0,0.0,0.0,0.0,0.0,0.0,0.0,0.0,0.0,0.0,0.0,0.0,0.0,0.0,0.0,0.0,0.0,0.0,0.0,0.0,0.0,0.0,0.0,0.0,0.0,0.0,0.0,0.0,0.0,0.0,0.0,0.0,0.0,0.0,0.0,0.0,0.0,0.0,0.0,0.0,0.0,0.0,0.0,0.0,0.0,0.0,0.0,0.0,0.0,0.0,0.0,0.0,0.0,0.0,0.0,0.0,0.0,0.0,0.0,0.0,0.0,0.0,0.0,0.0,0.0,0.0,0.0,0.0,0.0,0.0,0.0,0.0,0.0,0.0,0.0,0.0,2.4177,2.3943,2.3617,2.3233,2.3086,2.2843,0.0,0.0,0.0,0.0,0.0,0.0,0.0,0.0,0.0,0.0,0.0,0.0,0.0,0.0,0.0,0.0,0.0,0.0,0.0,0.0,0.0,0.0,0.0,0.0,0.0,0.0,0.0,0.0,0.0,0.0,0.0,0.0,0.0,0.0,0.0,0.0,0.0,0.0,0.0,0.0,0.0,0.0,0.0,0.0,0.0,0.0,0.0,0.0,0.0,0.0,0.0,0.0,0.0,0.0,0.0,0.0,0.0,0.0,0.0,0.0,0.0,0.0,0.0,0.0,0.0,0.0,0.0,0.0,0.0,0.0,0.0,0.0,0.0,0.0,0.0,0.0,0.0,0.0,0.0,0.0,0.0,0.0,0.0,0.0,0.0,0.0,0.0,0.0,0.0,0.0,0.0,0.0,0.0,0.0,0.0,0.0,0.0,0.0,0.0,0.0,0.0,0.0,0.0,0.0,0.0,0.0,0.0,0.0,2.4604,2.4829,2.4843,2.4572,2.4058,2.3605,2.327,0.0,0.0,0.0,0.0,0.0,0.0,0.0,0.0,0.0,0.0,0.0,0.0,0.0,0.0,0.0,0.0,0.0,0.0,0.0,0.0,0.0,0.0,0.0,0.0,0.0,0.0,0.0,0.0,0.0,0.0,0.0,0.0,0.0,0.0,0.0,0.0,0.0,0.0,0.0,0.0,0.0,0.0,0.0,0.0,0.0,0.0,0.0,0.0,0.0,0.0,0.0,0.0,0.0,0.0,0.0,0.0,0.0,0.0,0.0,0.0,0.0,0.0,0.0,0.0,0.0,0.0,0.0,0.0,0.0,0.0,0.0,0.0,0.0,0.0,0.0,0.0,0.0,0.0,0.0,0.0,0.0,0.0,0.0,0.0,0.0,0.0,0.0,0.0,0.0,0.0,0.0,0.0,0.0,0.0,0.0,0.0,0.0,0.0,0.0,0.0,0.0,0.0,0.0,0.0,0.0,0.0,0.0,0.0,2.5224,2.5693,2.5696,2.5476,2.4994,2.4058,2.3545,0.0,0.0,0.0,0.0,0.0,0.0,0.0,0.0,0.0,0.0,0.0,0.0,0.0,0.0,0.0,0.0,0.0,0.0,0.0,0.0,0.0,0.0,0.0,0.0,0.0,0.0,0.0,0.0,0.0,0.0,0.0,0.0,0.0,0.0,0.0,0.0,0.0,0.0,0.0,0.0,0.0,0.0,0.0,0.0,0.0,0.0,0.0,0.0,0.0,0.0,0.0,0.0,0.0,0.0,0.0,0.0,0.0,0.0,0.0,0.0,0.0,0.0,0.0,0.0,0.0,0.0,0.0,0.0,0.0,0.0,0.0,0.0,0.0,0.0,0.0,0.0,0.0,0.0,0.0,0.0,0.0,0.0,0.0,0.0,0.0,0.0,0.0,0.0,0.0,0.0,0.0,0.0,0.0,0.0,0.0,0.0,0.0,0.0,0.0,0.0,0.0,0.0,0.0,0.0,0.0,0.0,0.0,0.0,2.5591,2.5706,2.5696,2.5637,2.5522,2.4916,2.4421,0.0,0.0,0.0,0.0,0.0,0.0,0.0,0.0,0.0,0.0,0.0,0.0,0.0,0.0,0.0,0.0,0.0,0.0,0.0,0.0,0.0,0.0,0.0,0.0,0.0,0.0,0.0,0.0,0.0,0.0,0.0,0.0,0.0,0.0,0.0,0.0,0.0,0.0,0.0,0.0,0.0,0.0,0.0,0.0,0.0,0.0,0.0,0.0,1.8956,0.0,0.0,0.0,0.0,0.0,0.0,0.0,0.0,0.0,0.0,0.0,0.0,0.0,0.0,0.0,0.0,0.0,0.0,0.0,0.0,0.0,0.0,0.0,0.0,0.0,0.0,0.0,0.0,0.0,0.0,0.0,0.0,0.0,0.0,0.0,0.0,0.0,0.0,0.0,0.0,0.0,0.0,0.0,0.0,0.0,0.0,0.0,0.0,0.0,0.0,0.0,0.0,0.0,0.0,0.0,0.0,0.0,0.0,0.0,2.6175,2.6385,2.6398,2.6303,2.607,2.5817,2.5293,0.0,0.0,0.0,0.0,0.0,0.0,0.0,0.0,0.0,0.0,0.0,0.0,0.0,0.0,0.0,0.0,0.0,0.0,0.0,0.0,0.0,0.0,0.0,0.0,0.0,0.0,0.0,0.0,0.0,0.0,0.0,0.0,0.0,0.0,0.0,0.0,0.0,0.0,0.0,0.0,0.0,0.0,0.0,0.0,0.0,0.0,0.0,0.0,0.0,0.0,0.0,0.0,0.0,0.0,0.0,0.0,0.0,0.0,0.0,0.0,0.0,0.0,0.0,0.0,0.0,0.0,0.0,0.0,0.0,0.0,0.0,0.0,0.0,0.0,0.0,0.0,0.0,0.0,0.0,0.0,0.0,0.0,0.0,0.0,0.0,0.0,0.0,0.0,0.0,0.0,0.0,0.0,0.0,0.0,0.0,0.0,0.0,0.0,0.0,0.0,0.0,0.0,0.0,0.0,0.0,0.0,0.0,2.6618,2.6805,2.7177,2.719,2.7004,2.6618,2.6526,2.6057,2.5187,0.0,0.0,0.0,0.0,0.0,0.0,0.0,0.0,0.0,0.0,0.0,0.0,0.0,0.0,0.0,0.0,0.0,0.0,0.0,0.0,0.0,0.0,0.0,0.0,0.0,0.0,0.0,0.0,0.0,0.0,0.0,0.0,0.0,0.0,0.0,0.0,0.0,0.0,1.8439,1.8862,0.0,0.0,0.0,0.0,0.0,0.0,0.0,0.0,2.0383,0.0,0.0,0.0,0.0,0.0,0.0,0.0,0.0,0.0,0.0,0.0,0.0,0.0,0.0,0.0,0.0,0.0,0.0,0.0,0.0,0.0,0.0,0.0,0.0,0.0,0.0,0.0,0.0,0.0,0.0,0.0,0.0,0.0,0.0,0.0,0.0,0.0,0.0,0.0,0.0,0.0,0.0,0.0,0.0,0.0,0.0,0.0,0.0,0.0,0.0,0.0,0.0,0.0,0.0,0.0,0.0,2.7073,2.7063,2.7142,2.72,2.719,2.7165,2.7083,2.67,2.6411,2.6227,0.0,0.0,0.0,0.0,0.0,0.0,0.0,0.0,0.0,0.0,0.0,0.0,0.0,0.0,0.0,0.0,0.0,0.0,0.0,0.0,0.0,0.0,0.0,0.0,0.0,0.0,0.0,0.0,0.0,0.0,0.0,0.0,0.0,0.0,0.0,0.0,0.0,0.0,0.0,1.9048,1.9106,0.0,0.0,0.0,0.0,0.0,0.0,0.0,0.0,2.0324,0.0,0.0,0.0,0.0,0.0,0.0,0.0,0.0,0.0,0.0,0.0,0.0,0.0,0.0,0.0,0.0,0.0,0.0,0.0,0.0,0.0,0.0,0.0,0.0,0.0,0.0,0.0,0.0,0.0,0.0,0.0,0.0,0.0,0.0,0.0,0.0,0.0,0.0,0.0,0.0,0.0,0.0,0.0,0.0,0.0,0.0,0.0,0.0,0.0,0.0,0.0,0.0,0.0,0.0,0.0,2.7621,2.7863,2.7978,2.7978,2.7968,2.7863,2.7611,2.7389,2.7042,0.0,0.0,0.0,0.0,0.0,0.0,0.0,0.0,0.0,0.0,0.0,0.0,0.0,0.0,0.0,0.0,0.0,0.0,0.0,0.0,0.0,0.0,0.0,0.0,0.0,0.0,0.0,0.0,0.0,0.0,0.0,0.0,0.0,0.0,0.0,0.0,0.0,0.0,0.0,0.0,1.9106,1.9193,1.943,0.0,0.0,0.0,0.0,0.0,0.0,2.1107,2.1116,0.0,0.0,0.0,0.0,0.0,0.0,0.0,0.0,0.0,0.0,0.0,0.0,0.0,0.0,0.0,0.0,0.0,0.0,0.0,0.0,0.0,0.0,0.0,0.0,0.0,0.0,0.0,0.0,0.0,0.0,0.0,0.0,0.0,0.0,0.0,0.0,0.0,0.0,0.0,0.0,0.0,0.0,0.0,0.0,0.0,0.0,0.0,0.0,0.0,0.0,0.0,0.0,0.0,0.0,0.0,2.8137,2.8504,2.87,2.87,2.87,2.8517,2.816,2.8045,2.7619,0.0,0.0,0.0,0.0,0.0,0.0,0.0,0.0,0.0,0.0,0.0,0.0,0.0,0.0,0.0,0.0,0.0,0.0,0.0,0.0,0.0,0.0,0.0,0.0,0.0,0.0,0.0,0.0,0.0,0.0,0.0,0.0,0.0,0.0,0.0,0.0,0.0,0.0,0.0,0.0,0.0,1.9417,1.9865,2.001,0.0,0.0,0.0,0.0,2.1746,2.1799,0.0,0.0,0.0,0.0,0.0,0.0,0.0,0.0,0.0,0.0,0.0,0.0,0.0,0.0,0.0,0.0,0.0,0.0,0.0,0.0,0.0,0.0,0.0,0.0,0.0,0.0,0.0,0.0,0.0,0.0,0.0,0.0,0.0,0.0,0.0,0.0,0.0,0.0,0.0,0.0,0.0,0.0,0.0,0.0,0.0,0.0,0.0,0.0,0.0,0.0,0.0,0.0,0.0,0.0,0.0,0.0,2.8609,2.8688,2.87,2.87,2.87,2.8688,2.8609,2.8216,2.7941,0.0,0.0,0.0,0.0,0.0,0.0,0.0,0.0,0.0,0.0,0.0,0.0,0.0,0.0,0.0,0.0,0.0,0.0,0.0,0.0,0.0,0.0,0.0,0.0,0.0,0.0,0.0,0.0,0.0,0.0,0.0,0.0,0.0,0.0,0.0,0.0,0.0,0.0,0.0,0.0,0.0,1.9877,2.0277,2.0682,2.0981,0.0,0.0,2.1725,2.1788,2.1799,0.0,0.0,0.0,0.0,0.0,0.0,0.0,0.0,0.0,0.0,0.0,0.0,0.0,0.0,0.0,0.0,0.0,0.0,0.0,0.0,0.0,0.0,0.0,0.0,0.0,0.0,0.0,0.0,0.0,0.0,0.0,0.0,0.0,0.0,0.0,0.0,0.0,0.0,0.0,0.0,0.0,0.0,0.0,0.0,0.0,0.0,0.0,0.0,0.0,0.0,0.0,0.0,0.0,0.0,0.0,2.8964,2.916,2.9401,2.9539,2.9539,2.9539,2.9467,2.9333,2.9136,2.883,0.0,0.0,0.0,0.0,0.0,0.0,0.0,0.0,0.0,0.0,0.0,0.0,0.0,0.0,0.0,0.0,0.0,0.0,0.0,0.0,0.0,0.0,0.0,0.0,0.0,0.0,0.0,0.0,0.0,0.0,0.0,0.0,0.0,0.0,0.0,0.0,0.0,0.0,0.0,0.0,0.0,0.0,2.0913,2.1154,0.0,0.0,0.0,2.187,2.2139,0.0,0.0,0.0,0.0,0.0,0.0,0.0,0.0,0.0,0.0,0.0,0.0,0.0,0.0,0.0,0.0,0.0,0.0,0.0,0.0,0.0,0.0,0.0,0.0,0.0,0.0,0.0,0.0,0.0,0.0,0.0,0.0,0.0,0.0,0.0,0.0,0.0,0.0,0.0,0.0,0.0,0.0,0.0,0.0,0.0,0.0,0.0,0.0,0.0,0.0,0.0,0.0,0.0,0.0,0.0,0.0,0.0,2.9688,3.0088,3.0295,3.0295,3.0374,3.0314,3.0097,2.9958,0.0,0.0,0.0,0.0,0.0,0.0,0.0,0.0,0.0,0.0,0.0,0.0,0.0,0.0,0.0,0.0,0.0,0.0,0.0,0.0,0.0,0.0,0.0,0.0,0.0,0.0,0.0,1.8703,0.0,0.0,0.0,0.0,0.0,0.0,0.0,0.0,0.0,0.0,0.0,0.0,0.0,0.0,2.1294,2.1596,2.1755,2.1909,0.0,0.0,2.2417,2.2772,2.2785,2.287,0.0,0.0,0.0,0.0,0.0,0.0,0.0,0.0,0.0,0.0,0.0,0.0,0.0,0.0,0.0,0.0,0.0,0.0,0.0,0.0,0.0,0.0,0.0,0.0,0.0,0.0,0.0,0.0,0.0,0.0,0.0,0.0,0.0,0.0,0.0,0.0,0.0,0.0,0.0,0.0,0.0,0.0,0.0,0.0,0.0,0.0,0.0,0.0,0.0,0.0,0.0,0.0,0.0,0.0,0.0,3.0136,3.0419,3.0601,3.0589,3.0815,3.0927,3.0902,3.0443,3.016,0.0,0.0,0.0,0.0,0.0,0.0,0.0,0.0,0.0,0.0,0.0,0.0,0.0,0.0,0.0,0.0,0.0,0.0,0.0,0.0,0.0,0.0,0.0,0.0,0.0,0.0,0.0,0.0,0.0,0.0,0.0,0.0,0.0,0.0,0.0,0.0,0.0,0.0,0.0,0.0,0.0,2.1828,2.2287,2.2714,2.3002,0.0,0.0,2.369,2.3692,2.3554,2.3435,2.3477,0.0,0.0,0.0,0.0,0.0,0.0,0.0,0.0,0.0,0.0,0.0,0.0,0.0,0.0,0.0,0.0,0.0,0.0,0.0,0.0,0.0,0.0,0.0,0.0,0.0,0.0,0.0,0.0,0.0,0.0,0.0,0.0,0.0,0.0,0.0,0.0,0.0,0.0,0.0,0.0,0.0,0.0,0.0,0.0,0.0,0.0,0.0,0.0,0.0,0.0,0.0,0.0,0.0,3.111,3.1611,3.1727,3.1774,3.1762,3.1561,3.151,3.168,3.1159,3.0798,0.0,0.0,0.0,0.0,0.0,0.0,0.0,0.0,0.0,0.0,0.0,0.0,0.0,0.0,0.0,0.0,0.0,0.0,0.0,0.0,0.0,0.0,0.0,0.0,0.0,0.0,0.0,0.0,1.9844,1.997,2.0213,0.0,0.0,0.0,0.0,0.0,0.0,0.0,0.0,0.0,0.0,2.2959,2.3029,2.3468,0.0,0.0,2.3739,2.3952,2.4189,2.4181,2.4164,2.4325,2.4294,0.0,0.0,0.0,0.0,0.0,0.0,0.0,0.0,0.0,0.0,0.0,0.0,0.0,0.0,0.0,0.0,0.0,0.0,0.0,0.0,0.0,0.0,0.0,0.0,0.0,0.0,0.0,0.0,0.0,0.0,0.0,0.0,0.0,0.0,0.0,0.0,0.0,0.0,0.0,0.0,0.0,0.0,0.0,0.0,0.0,0.0,0.0,0.0,0.0,0.0,0.0,0.0,3.2136,3.2512,3.2583,3.2618,3.2629,3.2322,3.2283,3.2443,3.1941,3.159,0.0,0.0,0.0,0.0,0.0,0.0,0.0,0.0,0.0,0.0,0.0,0.0,0.0,0.0,0.0,0.0,0.0,0.0,0.0,0.0,0.0,0.0,0.0,0.0,0.0,0.0,0.0,0.0,2.051,2.0548,2.0856,0.0,0.0,0.0,0.0,0.0,0.0,0.0,0.0,0.0,0.0,2.3894,2.3749,2.4158,2.4451,2.4311,2.4518,2.4808,2.5089,2.5188,2.5317,2.5487,0.0,0.0,0.0,0.0,0.0,0.0,0.0,0.0,0.0,0.0,0.0,0.0,0.0,0.0,0.0,0.0,0.0,0.0,0.0,0.0,0.0,0.0,0.0,0.0,0.0,0.0,0.0,0.0,0.0,0.0,2.5643,0.0,0.0,0.0,0.0,0.0,0.0,0.0,0.0,0.0,0.0,0.0,0.0,0.0,0.0,0.0,0.0,0.0,0.0,0.0,0.0,0.0,0.0,3.2512,3.2512,3.2806,3.2922,3.2922,3.3144,3.3273,3.326,3.2744,3.2466,3.2431,0.0,0.0,0.0,0.0,0.0,0.0,0.0,0.0,0.0,0.0,0.0,0.0,0.0,0.0,0.0,0.0,0.0,0.0,0.0,0.0,0.0,0.0,0.0,0.0,0.0,0.0,2.1811,2.1681,2.1568,0.0,0.0,0.0,0.0,0.0,0.0,0.0,0.0,0.0,0.0,2.4475,2.4496,2.4486,2.489,2.5217,2.5196,2.5951,2.653,2.653,2.6758,2.6962,0.0,0.0,0.0,0.0,0.0,0.0,0.0,0.0,0.0,0.0,0.0,0.0,0.0,0.0,0.0,0.0,0.0,0.0,0.0,0.0,0.0,0.0,0.0,0.0,0.0,0.0,0.0,2.5516,2.565,0.0,0.0,0.0,0.0,0.0,0.0,0.0,0.0,0.0,0.0,0.0,3.0542,3.0965,0.0,0.0,0.0,0.0,0.0,0.0,0.0,0.0,0.0,0.0,0.0,0.0,3.3696,3.4006,3.4114,3.4162,3.4138,3.391,3.3766,3.3766,3.3284,3.2863,3.2515,0.0,0.0,0.0,0.0,0.0,0.0,0.0,0.0,0.0,0.0,0.0,0.0,0.0,0.0,0.0,0.0,0.0,0.0,0.0,0.0,0.0,0.0,0.0,0.0,0.0,2.2116,0.0,0.0,0.0,0.0,0.0,0.0,0.0,0.0,0.0,0.0,0.0,2.429,2.4484,2.5043,2.5426,2.5426,2.6103,2.6583,0.0,0.0,0.0,0.0,0.0,0.0,0.0,0.0,0.0,0.0,0.0,0.0,0.0,0.0,2.6434,2.5899,2.5805,2.5771,2.5692,0.0,0.0,0.0,0.0,0.0,0.0,0.0,0.0,0.0,0.0,0.0,0.0,0.0,0.0,0.0,0.0,2.6868,0.0,0.0,0.0,0.0,0.0,0.0,0.0,0.0,3.0599,3.0938,3.1467,3.2008,3.2441,0.0,3.3308,3.3284,0.0,0.0,0.0,0.0,0.0,0.0,0.0,0.0,3.4823,3.5328,3.5183,3.5087,3.5063,3.4559,3.4282,3.4294,3.3884,3.3386,3.2764,3.1981,3.1489,0.0,0.0,0.0,0.0,0.0,0.0,0.0,0.0,0.0,0.0,0.0,0.0,0.0,0.0,0.0,0.0,0.0,0.0,0.0,0.0,0.0,0.0,0.0,2.3275,0.0,0.0,0.0,0.0,0.0,0.0,0.0,0.0,0.0,2.4779,2.4737,2.4868,2.5196,2.5743,2.6202,2.6354,0.0,0.0,0.0,0.0,0.0,0.0,0.0,2.8285,2.8114,2.8034,2.7803,2.7317,2.7084,2.7048,2.7256,0.0,0.0,2.6735,2.6724,2.6839,2.6839,2.6839,2.6931,2.7232,2.7294,2.746,0.0,0.0,0.0,0.0,0.0,0.0,0.0,0.0,2.667,2.7298,0.0,2.8483,0.0,0.0,0.0,0.0,0.0,3.0134,0.0,0.0,3.1513,3.2032,3.255,3.3055,3.3355,3.338,3.3861,3.4366,3.4787,3.3921,0.0,0.0,0.0,0.0,0.0,0.0,3.5906,3.6389,3.5906,3.5653,3.5666,3.5124,3.4847,3.4811,3.4557,3.4051,3.3312,3.2974,3.2583,3.2041,3.1379,0.0,0.0,0.0,0.0,0.0,0.0,0.0,0.0,0.0,0.0,0.0,0.0,0.0,0.0,0.0,0.0,0.0,0.0,0.0,0.0,2.5541,0.0,0.0,0.0,0.0,0.0,0.0,0.0,0.0,0.0,0.0,2.5461,2.5334,2.561,2.6529,0.0,0.0,0.0,0.0,2.7403,2.7435,2.8223,2.8858,2.8858,2.9588,3.0188,3.0175,0.0,0.0,2.9088,2.9022,2.8881,2.8636,2.8599,2.8504,2.8045,2.8243,2.8512,2.852,2.8471,2.8562,2.8562,2.845,2.8512,2.796,0.0,0.0,0.0,0.0,2.8218,2.8381,2.8443,2.8584,2.8873,2.9258,2.9413,0.0,0.0,0.0,0.0,0.0,0.0,3.1754,3.2598,3.2766,3.2911,3.3103,3.3573,3.4125,3.4738,3.5187,3.5843,3.6541,3.6296,3.61,3.6023,0.0,0.0,0.0,0.0,3.6896,3.7006,3.6908,3.681,3.681,3.6222,3.5758,3.538,3.4914,3.458,3.4355,3.3903,3.3403,3.289,3.2652,0.0,0.0,0.0,0.0,0.0,0.0,0.0,0.0,0.0,0.0,0.0,0.0,0.0,0.0,0.0,0.0,0.0,0.0,0.0,2.5933,2.5722,2.56,0.0,0.0,0.0,0.0,0.0,0.0,0.0,0.0,0.0,2.7317,2.7273,2.7352,0.0,0.0,2.8255,2.8539,2.8925,2.9219,2.9348,0.0,0.0,0.0,3.0023,3.0209,3.0209,2.9968,2.9738,2.9612,2.9451,2.925,2.8956,2.9166,2.9387,2.937,2.8938,2.8657,2.8582,2.8582,2.8582,2.8582,2.8582,2.8731,2.9326,2.8783,2.8925,2.9046,2.9132,2.9321,2.9473,2.9547,2.9558,2.9804,3.0231,3.0231,3.0532,3.1048,3.1275,0.0,0.0,0.0,3.267,3.3296,3.3501,3.3776,3.4099,3.4607,3.5284,3.6088,3.6369,3.6909,3.7613,3.7626,3.7673,3.7756,0.0,0.0,3.7626,3.7626,3.7712,3.7871,3.7699,3.7626,3.7588,3.7047,3.6542,3.6097,3.574,3.5405,3.5103,3.4697,3.423,3.3713,3.3355,3.2927,0.0,0.0,0.0,0.0,0.0,0.0,0.0,0.0,0.0,0.0,0.0,2.8343,2.8012,0.0,0.0,0.0,2.7588,2.7478,2.7345,2.7228,0.0,0.0,0.0,0.0,0.0,0.0,0.0,2.8345,2.8685,2.8934,2.8956,2.9296,2.9342,2.8734,2.888,2.926,2.9802,0.0,3.0207,3.0348,3.0424,3.0493,3.0493,3.0646,3.083,3.104,3.1122,3.1057,3.0942,3.0849,3.0658,3.0435,3.0544,3.0766,3.0902,3.0444,2.9976,2.9756,2.9704,2.9743,2.9847,2.9873,2.9995,3.0337,3.0294,2.989,2.9789,2.9854,2.9663,2.9766,3.0005,3.0005,3.043,3.1069,3.1093,3.1636,3.2587,3.3068,0.0,3.3356,3.3404,3.3476,3.3536,3.4017,3.4667,3.5466,3.5966,3.6602,3.7405,3.7405,3.7688,3.8231,3.828,3.8667,3.9335,3.8211,3.7799,3.818,3.8218,3.8438,3.8855,3.8438,3.8193,3.8168,3.7676,3.7258,3.6909,3.6847,3.6433,3.5672,3.5432,3.5054,3.4497,3.3797,3.3366,3.3316,0.0,0.0,0.0,0.0,0.0,0.0,0.0,0.0,0.0,0.0,0.0,0.0,0.0,0.0,0.0,2.9579,0.0,2.9451,2.943,0.0,0.0,0.0,2.9083,2.8869,2.8894,2.8929,2.8941,0.0,0.0,3.0342,0.0,3.1303,2.9916,2.97,3.0026,3.0957,3.0898,3.0726,3.0869,3.0979,3.1068,3.1234,3.1502,3.187,3.2298,3.2813,3.2873,3.2681,3.2649,3.2593,3.2252,3.2318,3.2313,3.2328,3.221,3.2173,3.1642,3.147,3.1496,3.1658,3.1683,3.1765,3.2526,3.2515,3.2412,3.1706,3.067,3.1011,3.1418,3.1859,3.187,3.2181,3.2718,3.273,3.2887,3.3127,3.3248,3.3501,3.385,3.4246,3.4776,3.5369,3.5902,3.6404,3.6825,3.6935,3.743,3.8201,3.8189,3.8588,3.9316,3.9728,4.0029,4.022,4.0279,4.0003,3.9341,3.9303,3.9378,3.9503,3.9378,3.9116,3.8729,3.8592,3.8254,3.7741,3.7302,3.7012,3.6798,3.6347,3.5836,3.5263,3.5056,3.4794,3.437,3.4209,0.0,0.0,0.0,0.0,0.0,0.0,0.0,0.0,0.0,3.0334,3.0334,0.0,3.0075,0.0,2.9846,2.9709,2.9709,2.9526,0.0,0.0,2.9684,2.9996,3.0126,3.051,3.0835,3.1043,3.1272,3.141,3.1433,3.164,3.1811,3.1771,3.1438,3.1332,3.1776,3.1782,3.1952,3.2437,3.2427,3.2491,3.2752,3.2792,3.2792,3.2914,3.3032,3.3071,3.3017,3.3004,3.291,3.2655,3.2588,3.2658,3.2789,3.2763,3.2885,3.2965,3.2563,3.2096,3.2164,3.2199,3.2226,3.3296,3.3296,3.3296,3.2791,3.1984,3.2273,3.2574,3.2851,3.2851,3.302,3.332,3.3513,3.3729,3.3982,3.421,3.4667,3.5259,3.5561,3.6012,3.6577,3.6871,3.7303,3.7827,3.784,3.8388,3.939,3.939,3.9743,4.0412,4.0713,4.0851,4.0851,4.1177,4.1001,4.0437,4.0412,4.0287,4.0061,3.9798,3.9572,3.9271,3.9258,3.8982,3.8417,3.8102,3.7701,3.721,3.6909,3.6482,3.5919,3.5645,3.5369,3.5068,3.493,3.4757,0.0,0.0,0.0,0.0,0.0,0.0,0.0,0.0,0.0,0.0,0.0,3.1086,3.0957,3.0969,3.0993,3.1006,3.1088,3.1096,3.0973,3.1233,3.1415,3.1446,3.1716,3.1891,3.1922,3.2129,3.2324,3.2469,3.2639,3.296,3.3466,3.3292,3.3047,3.2968,3.3037,3.3274,3.364,3.3518,3.3337,3.3493,3.3554,3.3574,3.3461,3.3587,3.3784,3.4002,3.4024,3.4034,3.4149,3.4187,3.4196,3.4273,3.4295,3.4381,3.4496,3.4288,3.385,3.3489,3.3432,3.3489,3.3705,3.3693,3.3705,3.3705,3.3681,3.3705,3.3573,3.338,3.338,3.3452,3.3633,3.4114,3.4631,3.51,3.5595,3.6203,3.6866,3.6939,3.7128,3.7442,3.7516,3.7963,3.8751,3.8764,3.939,4.0575,4.0613,4.0864,4.1289,4.1404,4.1482,4.1482,4.1572,4.1636,4.1636,4.1636,4.1334,4.0718,4.0266,3.9989,3.9927,3.9914,3.965,3.9158,3.9032,3.8554,3.7584,3.7458,3.7181,3.6714,3.615,3.5813,3.5825,3.5538,3.5333,0.0,3.5268,0.0,0.0,0.0,0.0,0.0,0.0,0.0,0.0,3.2889,3.2509,3.2288,3.2501,3.2666,3.2645,3.3066,3.3249,3.2969,3.2945,3.2876,3.2677,3.2712,3.2665,3.2473,3.2915,3.3353,3.352,3.3907,3.4344,3.4637,3.4739,3.4588,3.43,3.4282,3.4393,3.4516,3.437,3.4213,3.407,3.4251,3.443,3.4271,3.4495,3.4854,3.519,3.5255,3.5423,3.583,3.5852,3.5918,3.5983,3.5961,3.5961,3.5889,3.5823,3.5606,3.5078,3.4862,3.5201,3.5809,3.5797,3.5833,3.5809,3.5809,3.5797,3.5076,3.385,3.3874,3.4342,3.5208,3.5949,3.6339,3.6449,3.6809,3.7057,3.7218,3.7672,3.8009,3.8288,3.8735,3.9362,4.0121,4.0108,4.0498,4.1113,4.1138,4.1188,4.1327,4.201,4.2347,4.2386,4.3049,4.3416,4.3402,0.0,0.0,0.0,4.1769,4.1513,4.1105,4.108,4.0798,4.0223,3.9776,0.0,3.9227,3.8754,3.8436,3.8346,3.7823,0.0,0.0,0.0,0.0,0.0,0.0,0.0,0.0,0.0,0.0,0.0,3.5289,3.4801,3.4218,3.3864,3.3676,3.362,3.3684,3.362,3.3415,3.3501,3.3457,3.3249,3.3226,3.3277,3.3458,3.3802,3.4095,3.4272,3.4753,3.5016,3.4853,3.493,3.4943,3.4942,3.5139,3.5323,3.5254,3.4985,3.488,3.5207,3.5363,3.5513,3.5669,3.5739,3.5792,3.5873,3.5964,3.5966,3.5881,3.5852,3.5852,3.6056,3.5998,3.6042,3.6042,3.5998,3.6063,3.602,3.602,3.5947,3.5802,3.578,3.5816,3.6487,0.0,3.6601,3.6702,0.0,3.6854,3.6391,3.5637,3.5453,3.578,3.6464,3.6858,3.7177,3.7446,3.7624,3.7911,3.831,3.8841,3.9257,3.9503,4.0053,4.0506,4.0887,4.0901,4.119,4.1744,4.1892,4.2058,4.2351,4.2942,4.3245,4.3245,4.3677,4.3886,4.3899,4.4037,4.3614,4.2606,4.2324,4.2055,4.1786,4.1517,4.126,4.0952,0.0,0.0,0.0,0.0,0.0,0.0,0.0,0.0,0.0,0.0,0.0,3.7755,3.773,3.7613,3.7355,3.7353,3.7328,3.7316,3.6839,3.5987,3.4656,3.434,3.4215,3.4204,3.4311,3.4345,3.423,3.431,3.4459,3.4594,3.4511,3.4607,3.4976,3.5238,3.5388,3.5399,3.5621,3.5778,3.5801,3.5796,3.5911,3.6123,3.632,3.6519,3.6534,3.6002,3.574,3.6172,3.6567,3.6783,3.6771,3.6805,3.6736,3.6683,3.6627,3.668,3.6772,3.667,3.667,3.6861,3.6808,3.6683,3.6683,3.6705,3.6683,3.6683,3.6705,3.6764,3.6846,3.6633,3.6428,3.7126,3.7306,3.7196,3.7311,3.7576,3.7564,3.7664,3.7763,0.0,0.0,0.0,3.7689,3.8034,3.8439,3.859,3.9042,3.9672,4.0096,4.0426,4.065,4.1102,4.1339,4.1453,4.1453,4.1783,4.2407,4.2637,4.3003,4.3478,4.3805,4.3968,4.3982,4.4023,4.4051,4.4064,4.4258,4.4025,4.3331,4.2855,4.2625,4.2483,4.2059,4.1801,4.1685,4.1106,4.0604,4.0154,4.0051,3.9755,3.9292,3.9126,3.9074,3.9086,3.9191,3.926,3.9286,3.9286,3.9286,3.9274,3.9018,3.886,3.8798,3.8195,3.7105,3.5447,3.5067,3.4952,3.5015,3.524,3.537,3.5311,3.55,3.5783,3.6185,3.5985,3.5992,3.6389,3.6519,3.6429,3.6273,3.6317,3.6452,3.6735,3.6789,3.6975,3.7523,3.7585,3.7669,3.7671,3.7063,3.6681,3.7044,3.7397,3.767,3.7651,3.7602,3.751,3.7329,3.7301,3.7361,3.7618,3.7576,3.7584,3.7843,3.7758,3.7594,3.7585,3.7637,3.7687,3.7702,3.779,3.7925,3.8115,3.7744,3.7425,3.9253,3.9255,3.8738,3.8554,3.8594,3.8594,3.8996,3.9603,3.8439,3.7943,3.8056,3.9202,3.9753,3.9866,4.0551,4.0933,4.101,4.1085,4.1162,0.0,4.1264,4.1592,4.206,4.206,4.2473,4.3199,4.3266,4.3468,4.3819,4.4133,4.4244,4.4297,4.4476,4.4599,4.4586,4.4613,4.4587,4.4468,4.4404,4.4131,4.3662,4.3584,4.3297,4.2801,4.2241,4.1914,4.1836,4.1342,4.1055,4.0938,4.0443,4.0182,4.0169,3.9776,3.9539,3.9539,3.9539,3.9539,3.9553,3.931,3.9043,3.8823,3.8711,3.8411,3.7904,3.7219,3.6987,3.7439,3.744,3.7467,3.7245,3.7159,3.7134,3.7108,3.6807,3.6667,3.6824,3.7009,3.7132,3.7091,3.7453,3.7814,3.8013,3.8092,3.8173,3.8427,3.8381,3.8137,3.7952,3.7692,3.7623,3.7669,3.7738,3.7976,3.8272,3.8415,3.8393,3.8525,3.8458,3.8399,3.8357,3.8298,3.8306,3.8343,3.835,3.8298,3.8283,3.8596,3.8736,3.8825,3.907,3.9407,3.9477,3.9401,3.9259,4.0216,4.0312,4.0052,4.0019,4.0166,4.0152,4.0395,4.0689,4.0121,3.9844,3.9907,4.0474,4.0753,4.0778,4.1135,4.1289,4.1314,4.163,4.1795,4.1806,4.2082,4.2359,4.2651,4.312,4.3551,4.3891,4.4519,4.4883,4.5063,4.5356,4.5495,4.5469,4.5293,4.5165,4.5179,4.5054,4.4978,4.4978,4.4776,4.4659,4.4611,4.4295,4.4046,4.3926,4.3397,4.3119,4.3119,4.2539,4.2209,4.2236,4.1518,4.109,4.109,4.0732,4.0528,4.0528,4.054,4.0528,4.0501,4.0391,4.028,4.0155,3.9747,3.9586,3.9734,3.8597,3.7947,3.8175,3.8101,3.794,3.7817,3.768,3.768,3.7877,3.7661,3.7664,3.8045,3.8194,3.8339,3.8482,3.8695,3.8905,3.9046,3.9056,3.9137,3.9282,3.9216,3.9038,3.8894,3.8721,3.8519,3.8335,3.845,3.8688,3.8941,3.8964,3.902,3.907,3.9064,3.9156,3.9212,3.9198,3.916,3.9356,3.9317,3.9233,3.921,3.9374,3.9509,3.9554,3.9688,3.993,4.0069,4.0474,4.0551,4.1004,4.1194,4.1056,4.11,4.1289,4.1289,4.1378,4.1517,4.1503,4.1592,4.1654,4.1553,4.1517,4.1517,4.1628,4.1679,4.1754,4.2185,4.24,4.245,4.3009,4.3288,4.3406,4.4193,4.4617,4.4767,4.5576,4.6023,4.6148,4.6374,4.6529,4.6533,4.6126,4.5931,4.6,4.58,4.5698,4.5671,4.544,4.5282,4.5274,4.4851,4.4679,4.4849,4.4343,4.4075,4.4036,4.3517,4.3197,4.3158,4.2583,4.2205,4.218,4.1848,4.1683,4.1656,4.1551,4.1526,4.1595,4.165,4.1677,4.1665,4.1096,4.0905,4.1205,4.0144,3.9192,3.8927,3.8817,3.8718,3.873,3.8617,3.8602,3.9012,3.8867,3.8978,3.9465,3.9488,3.9444,3.9637,3.9664,3.9609,3.9753,3.9777,3.9854,4.0007,4.0026,3.9992,4.0006,3.9788,3.9449,3.9342,3.9298,3.9239,3.9308,3.9423,3.9469,3.9469,3.9592,3.9814,4.0082,4.0,3.9992,4.0265,4.0225,4.0094,4.0077,4.0228,4.0304,4.0342,4.0532,4.06,4.0825,4.1287,4.1549,4.2055,4.1993,4.1513,4.1262,4.1339,4.1314,4.1656,4.2085,4.211,4.2411,4.2724,4.2322,4.211,4.2185,4.2598,4.276,4.2799,4.29,4.2939,4.3031,4.3773,4.4179,4.4272,4.509,4.5602,4.5816,4.5993,4.6281,4.6521,4.6566,4.6654,4.6838,4.6787,4.6926,4.7176,4.7192,4.7179,4.7166,4.7178,4.6646,4.5622,4.5515,4.5489,4.5529,4.4942,4.4622,4.4661,4.4116,4.3809,4.3809,4.373,4.3678,4.3624,4.3134,4.2842,4.2816,4.2337,4.2132,4.2463,4.2707,4.2801,4.2853,4.2697,4.2645,4.271,4.2398,4.1634,4.067,4.0516,4.0526,4.0665,4.0732,4.0747,4.0746,4.0621,4.0683,4.0611,4.0256,3.9939,3.9974,3.9871,3.9777,4.0248,4.0355,4.0458,4.075,4.0728,4.0751,4.0843,4.0601,4.0517,4.0626,4.0152,3.9452,3.9446,3.9751,3.9981,4.005,4.0364,4.0594,4.0678,4.0724,4.0724,4.0883,4.0838,4.0784,4.086,4.1091,4.1403,4.1355,4.1584,4.199,4.2083,4.2115,4.2069,4.2663,4.2663,4.2423,4.2295,4.2308,4.2308,4.2448,4.2663,4.2663,4.2788,4.2964,4.2763,4.2676,4.2688,4.2914,4.3,4.3039,4.3524,4.3759,4.3838,4.4667,4.5076,4.5155,4.5965,4.6424,4.6579,4.7037,4.7351,4.7521,4.7708,4.7851,4.7939,4.7806,4.7801,4.7915,4.7734,4.7629,4.7629,4.7795,4.7635,4.7136,4.6639,4.6316,4.614,4.5897,4.5749,4.5708,4.5196,4.4914,4.486,4.4396,4.4144,4.4132,4.3752,4.3529,4.3529,4.3289,4.3149,4.3134,4.3242,4.3192,4.3023,4.301,4.301,4.301,4.2879,4.2567,4.2087,4.1787,4.16,4.1479,4.1563,4.1503,4.1329,4.122,4.1198,4.1345,4.115,4.1001,4.0947,4.0876,4.0793,4.0917,4.1163,4.1504,4.1799,4.1786,4.1665,4.1745,4.146,4.1283,4.1203,4.0773,4.0461,4.0226,4.0326,4.0502,4.0548,4.0663,4.0831,4.1214,4.1275,4.1352,4.1596,4.1596,4.1619,4.1702,4.1802,4.2025,4.2063,4.207,4.2307,4.2307,4.2307,4.2307,4.3,4.3,4.3,4.3,4.3,4.3,4.3,4.3,4.3,4.3,4.3025,4.3151,4.3297,4.3353,4.3367,4.3367,4.347,4.4258,4.4653,4.4758,4.5568,4.5954,4.6019,4.6849,4.7265,4.736,4.7876,4.8245,4.8359,4.8649,4.8851,4.8887,4.8756,4.8684,4.8729,4.8508,4.8417,4.8417,4.8611,4.8653,4.8491,4.7988,4.7352,4.6821,4.6753,4.6671,4.6495,4.6074,4.5844,4.5804,4.523,4.4897,4.4897,4.457,4.4294,4.4147,4.419,4.4155,4.3962,4.4016,4.3953,4.3651,4.3586,4.3559,4.3493,4.3467,4.348,4.3441,4.311,4.2738,4.2199,4.2192,4.2093,4.1808,4.1754,4.1859,4.2033,4.1997,4.1931,4.1942,4.1819,4.1783,4.1731,4.1971,4.2332,4.2615,4.2532,4.2526,4.2537,4.2335,4.2079,4.1967,4.1922,4.1522,4.0992,4.0923,4.0969,4.1061,4.1145,4.1428,4.1719,4.1765,4.1811,4.1986,4.2215,4.2261,4.2101,4.2215,4.2284,4.2284,4.2307,4.2307,4.2307,4.2307,4.2307,4.3,4.3,4.3,4.3051,4.3025,4.3051,4.3025,4.3126,4.3051,4.3025,4.3179,4.3592,4.3949,4.4258,4.4297,4.4258,4.4337,4.513,4.5554,4.5634,4.645,4.6838,4.6915,4.7725,4.8105,4.8024,4.8149,4.8388,4.869,4.8952,4.9254,4.9528,4.9502,4.9644,4.9816,4.9791,4.9873,4.9792,4.9807,4.9784,4.957,4.9502,4.8777,4.7593,4.7363,4.7105,4.6616,4.6495,4.6467,4.6467,4.636,4.6333,4.6319,4.5832,4.5251,4.4805,4.4927,4.5041,4.5056,4.5234,4.5289,4.5102,4.4995,4.494,4.4632,4.463,4.4656,4.4643,4.4562,4.4136,4.3274,4.3167,4.3134,4.2883,4.2875,4.2872,4.2897,4.272,4.2634,4.271,4.2515,4.2433,4.2627,4.2741,4.2789,4.2901,4.2847,4.2946,4.3264,4.3131,4.3138,4.3299,4.3176,4.2654,4.1292,4.1337,4.1575,4.1581,4.1772,4.2139,4.2215,4.2284,4.2284,4.2284,4.2284,4.2307,4.2307,4.2307,4.2307,4.2307,4.2307,4.2307,4.2307,4.2307,4.2307,4.3201,4.3528,4.3528,4.3714,4.4016,4.4027,4.4016,4.4041,4.4027,4.4155,4.4352,4.4557,4.4816,4.517,4.5728,4.5662,4.5249,4.6048,4.6435,4.6527,4.7308,4.7739,4.778,4.8091,4.8187,4.8201,4.8391,4.8663,4.8952,4.9269,4.9497,4.9626,4.9769,4.9911,5.001,5.022,5.0319,5.0347,5.0474,5.0504,5.045,5.0436,4.9955,4.9103,4.8293,4.7814,4.758,4.7223,4.6925,4.677,4.6743,4.6679,4.6508,4.6278,4.6088,4.5885,4.593,4.5908,4.5711,4.578,4.5755,4.5515,4.5631,4.568,4.5582,4.5707,4.586,4.5846,4.586,4.5521,4.4954,4.4235,4.3598,4.336,4.3414,4.3528,4.3589,4.3701,4.3742,4.3422,4.2988,4.2812,4.3156,4.3241,4.3385,4.3682,4.3754,4.3826,4.3931,4.388,4.3813,4.3786,4.3678,4.3365,4.2662,4.2342,4.2324,4.2165,4.2208,4.2247,4.2339,4.2386,4.2379,4.2427,4.2418,4.2418,4.2466,4.245,4.2434,4.2379,4.2379,4.2466,4.2307,4.2542,4.2487,4.3714,4.4027,4.4052,4.4267,4.4604,4.472,4.4763,4.4788,4.489,4.5063,4.5261,4.5443,4.5718,4.6097,4.6817,4.6953,4.6516,4.704,4.7308,4.7374,4.7928,4.8187,4.8201,4.8315,4.8359,4.8446,4.8794,4.9096,4.9283,4.9583,4.9712,4.9741,5.001,5.0178,5.022,5.0459,5.0627,5.0669,5.0795,5.0948,5.1045,5.1072,5.0934,5.0489,4.9599,4.8854,4.8516,4.8089,4.7789,4.766,4.7593,4.7502,4.7251,4.7225,4.7158,4.7079,4.7052,4.6972,4.6759,4.6719,4.6598,4.6343,4.6378,4.6424,4.634,4.6432,4.6489,4.6527,4.6487,4.6374,4.6021,4.5196,4.4412,4.4074,4.411,4.4166,4.4105,4.4378,4.4334,4.4013,4.3703,4.3615,4.3713,4.3754,4.3907,4.4261,4.4316,4.4316,4.4316,4.43,4.4238,4.4013,4.3982,4.3787,4.3364,4.3138,4.2981,4.2808,4.268,4.2632,4.263,4.2623,4.2662,4.2632,4.2624,4.2624,4.2624,4.2624,4.2632,4.2632,4.2719,4.2869,4.2867,4.2958,4.309,4.4564,4.4604,4.4614,4.4669,4.4842,4.5128,4.5171,4.5291,4.5524,4.5702,4.5862,4.618,4.66,4.6976,4.7451,4.7802,4.7954,4.8024,4.8065,4.8091,4.8146,4.8201,4.8245,4.8518,4.8692,4.875,4.9312,4.957,4.9626,4.9826,4.9967,5.0052,5.0305,5.0445,5.0501,5.0767,5.0906,5.0934,5.0962,5.11,5.1349,5.139,5.1472,5.1593,5.1072,5.0283,4.9246,4.9109,4.8998,4.8973,4.8986,4.8962,4.8583,4.8516,4.8477,4.8165,4.8151,4.8151,4.811,4.8042,4.7825,4.7647,4.7506,4.7282,4.6978,4.6817,4.6739,4.6737,4.667,4.6604,4.6573,4.6243,4.5702,4.521,4.5016,4.4933,4.4702,4.46,4.4606,4.455,4.4555,4.4598,4.4385,4.422,4.4228,4.4292,4.4316,4.4316,4.4316,4.4316,4.43,4.4285,4.4223,4.4044,4.3919,4.3795,4.3616,4.3451,4.3326,4.327,4.33,4.3323,4.3494,4.3494,4.3502,4.3478,4.3502,4.3502,4.3456,4.3464,4.3466,4.352,4.3651,4.3837,4.4097,4.4855,4.5225,4.5416,4.5731,4.6129,4.6414,4.6546,4.6561,4.6664,4.6825,4.7051,4.7221,4.7474,4.7748,4.7988,4.8084,4.8187,4.8187,4.8187,4.8187,4.8187,4.8344,4.8533,4.8649,4.8924,4.9283,4.9512,4.9698,4.9854,4.9967,5.0122,5.0319,5.0431,5.0585,5.0795,5.1086,5.1238,5.1266,5.1417,5.1568,5.165,5.1678,5.1705,5.1759,5.1604,5.1312,5.0953,5.017,4.9632,4.9446,4.9391,4.9271,4.9017,4.8788,4.8653,4.8518,4.8328,4.8205,4.8205,4.8205,4.8232,4.8122,4.8199,4.8108,4.788,4.7915,4.7842,4.7681,4.7664,4.7664,4.7649,4.7592,4.6907,4.5585,4.5566,4.5547,4.529,4.533,4.542,4.5353,4.5065,4.477,4.4664,4.455,4.4427,4.4412,4.4348,4.4348,4.4324,4.4324,4.4316,4.4316,4.4285,4.4357,4.4304,4.4402,4.4499,4.4326,4.416,4.4065,4.4088,4.4143,4.4292,4.4347,4.4355,4.4362,4.4346,4.4362,4.4316,4.4362,4.4401,4.4503,4.4604,4.4794,4.5025,4.5649,4.5981,4.6277,4.6588,4.6964,4.7275,4.7383,4.7412,4.7516,4.7677,4.7865,4.788,4.7997,4.8157,4.8187,4.8187,4.8227,4.8344,4.8402,4.8388,4.8402,4.8548,4.8837,4.8981,4.9269,4.9656,4.9741,4.9883,5.0192,5.0206,5.0347,5.0613,5.0767,5.092,5.11,5.139,5.1555,5.1569,5.1733,5.18,5.18,5.18,5.18,5.18,5.18,5.18,5.1744,5.1055,5.0581,5.0407,5.0367,5.0233,4.9991,4.9815,4.9624,4.9351,4.92,4.9021,4.8884,4.8924,4.887,4.891,4.8971,4.8905,4.8633,4.8693,4.8548,4.8271,4.8161,4.8187,4.8187,4.8187,4.7615,4.6544,4.6386,4.6208,4.5913,4.5895,4.6023,4.598,4.5758,4.5493,4.536,4.5252,4.5002,4.494,4.4709,4.4589,4.4541,4.442,4.4396,4.442,4.4565,4.4613,4.4661,4.4933,4.5333,4.5223,4.504,4.4976,4.4952,4.5047,4.519,4.5166,4.5174,4.5158,4.5182,4.5181,4.5181,4.5259,4.5352,4.5442,4.5507,4.5641,4.5872,4.6795,4.688,4.7102,4.7195,4.7279,4.7575,4.7707,4.7777,4.8011,4.8128,4.8172,4.8143,4.8157,4.8172,4.8187,4.8201,4.8286,4.8518,4.8707,4.8765,4.8794,4.8924,4.9154,4.944,4.9684,4.9925,4.9996,5.0192,5.0431,5.0487,5.0655,5.0948,5.1183,5.1404,5.1445,5.1692,5.1773,5.1814,5.1828,5.1855,5.1896,5.1896,5.1896,5.1896,5.1909,5.1896,5.1827,5.1687,5.1688,5.1759,5.1577,5.1468,5.1403,5.1404,5.0962,5.0421,5.0474,5.0182,5.0012,4.9779,4.9833,4.9778,4.9621,4.9471,4.9158,4.9006,4.8793,4.8501,4.8425,4.8396,4.8422,4.8422,4.8194,4.7833,4.7342,4.6936,4.6492,4.6446,4.6585,4.6695,4.6666,4.6588,4.6416,4.6323,4.6093,4.5845,4.5421,4.5205,4.5069,4.4877,4.4517,4.4637,4.4973,4.5045,4.5165,4.5565,4.5942,4.5942,4.5853,4.5909,4.5829,4.5941,4.6101,4.6069,4.5965,4.5966,4.603,4.6077,4.6084,4.6108,4.6204,4.6318,4.6382,4.65,4.6547,4.7112,4.7142,4.7412,4.756,4.7604,4.7938,4.8055,4.807,4.8143,4.8187,4.8187,4.8187,4.8187,4.8187,4.8201,4.8329,4.8548,4.8704,4.8981,4.9326,4.9342,4.9397,4.9499,4.9755,4.9925,5.0024,5.0263,5.0403,5.0529,5.0725,5.0975,5.1252,5.1349,5.1514,5.1664,5.1759,5.1896,5.2059,5.2086,5.2208,5.2425,5.2452,5.2479,5.2479,5.2423,5.2331,5.2086,5.1896,5.18,5.18,5.18,5.1773,5.1678,5.1514,5.1225,5.0878,5.0599,5.0361,5.008,5.0023,4.9996,4.9996,5.0019,4.9769,4.9497,4.9597,4.9478,4.9276,4.9303,4.9416,4.9401,4.9416,4.9161,4.8607,4.8007,4.7542,4.7438,4.7506,4.751,4.7542,4.7396,4.7286,4.7183,4.6877,4.6527,4.6302,4.6022,4.5702,4.5654,4.5517,4.5205,4.5397,4.5638,4.5662,4.5806,4.6206,4.6471,4.6567,4.6631,4.6782,4.6742,4.6742,4.6927,4.7063,4.6814,4.6751,4.6935,4.7071,4.7048,4.6832,4.6952,4.6976,4.7096,4.7191,4.715,4.7412,4.7427,4.7777,4.7909,4.7938,4.8114,4.8187,4.8187,4.8187,4.8187,4.8187,4.8187,4.826,4.8402,4.8417,4.8577,4.8851,4.901,4.9256,4.9554,4.9684,4.9741,4.9826,5.0079,5.022,5.0221,5.0502,5.0725,5.0878,5.1045,5.1266,5.1514,5.1569,5.1636,5.1773,5.1909,5.2018,5.2181,5.2316,5.2533,5.268,5.2707,5.2694,5.2707,5.2694,5.2546,5.2208,5.2032,5.1923,5.1828,5.18,5.18,5.1787,5.1678,5.1431,5.11,5.0836,5.0543,5.0317,5.0298,5.0363,5.043,5.058,5.0612,5.0419,5.0396,5.0247,4.996,4.9951,4.989,4.9912,4.9912,4.9683,4.9302,4.8815,4.8369,4.7979,4.7857,4.8033,4.8153,4.8159,4.8094,4.8158,4.7752,4.74,4.711,4.6779,4.648,4.6279,4.6102,4.5974,4.6062,4.6166,4.6214,4.6335,4.6687,4.6896,4.7,4.7024,4.7281,4.7281,4.724,4.7312,4.7425,4.7473,4.7497,4.7497,4.7497,4.7384,4.7288,4.7473,4.7497,4.7497,4.7497,4.7497,4.7762,4.7751,4.807,4.8187,4.8172,4.8187,4.8187,4.8187,4.8187,4.8216,4.826,4.8271,4.8475,4.8762,4.8721,4.888,4.9183,4.9385,4.9542,4.9727,4.9897,5.0079,5.0108,5.0305,5.0459,5.0557,5.0795,5.1086,5.1266,5.139,5.1555,5.1691,5.1759,5.18,5.1896,5.2059,5.2236,5.2411,5.2613,5.2787,5.2867,5.2894,5.2894,5.2881,5.2801,5.2627,5.2413,5.2279,5.2228,5.1913,5.1885,5.1941,5.1941,5.1927,5.1903,5.1669,5.1418,5.1097,5.0788,5.0954,5.0987,5.1054,5.1446,5.1711,5.1353,5.1124,5.0874,5.0619,5.024,5.0256,5.0252,5.0148,5.0088,4.9924,4.9829,4.9287,4.8422,4.8083,4.8284,4.8752,4.8853,4.8985,4.9067,4.9072,4.8795,4.7841,4.7467,4.7109,4.685,4.6631,4.6471,4.6391,4.6567,4.6783,4.6928,4.7144,4.7264,4.7377,4.7329,4.7425,4.7425,4.7409,4.7449,4.7497,4.7497,4.7497,4.7497,4.7497,4.7497,4.7497,4.7497,4.7497,4.7497,4.7497,4.7497,4.8084,4.8099,4.8157,4.8187,4.8187,4.8187,4.8213,4.8201,4.8201,4.8388,4.8548,4.8591,4.875,4.901,4.9039,4.9183,4.9442,4.9611,4.9684,4.9953,5.0249,5.0375,5.0389,5.0529,5.0627,5.085,5.1142,5.1321,5.1445,5.161,5.176,5.1787,5.1911,5.1937,5.2169,5.2335,5.2479,5.2814,5.3003,5.3164,5.3324,5.3408,5.3408,5.3366,5.3193,5.2925,5.2714,5.284,5.2807,5.26,5.2517,5.2574,5.2615,5.2953,5.3023,5.27,5.2403,5.2144,5.194,5.1706,5.1623,5.1651,5.1799,5.1784,5.1723,5.1621,5.1508,5.1402,5.1297,5.1146,5.11,5.122,5.0878,5.0511,5.0342,5.0079,4.943,4.9188,4.9213,4.9314,4.938,4.9448,4.9477,4.9234,4.8926,4.8502,4.8125,4.7732,4.743,4.7138,4.6992,4.6824,4.6944,4.712,4.7168,4.7312,4.7401,4.7497,4.7497,4.7497,4.7497,4.7497,4.7497,4.7497,4.7497,4.7497,4.7497,4.7497,4.7497,4.7497,4.7497,4.7497,4.7497,4.7497,4.7497,4.837,4.8605,4.8631,4.8605,4.8661,4.8752,4.8668,4.8501,4.8591,4.8721,4.8851,4.888,4.9053,4.934,4.9328,4.9485,4.9712,4.9783,4.9966,5.022,5.0431,5.0655,5.0933,5.0933,5.1017,5.1197,5.1445,5.1569,5.1637,5.1718,5.1841,5.2034,5.23,5.2662,5.2865,5.3001,5.3259,5.3501,5.3701,5.3835,5.3954,5.4271,5.44,5.4387,5.4213,5.3984,5.3637,5.3701,5.3554,5.336,5.3431,5.3445,5.3234,5.3487,5.3571,5.3429,5.2944,5.2658,5.2426,5.2336,5.222,5.2247,5.2449,5.26,5.2547,5.2351,5.2139,5.2036,5.1821,5.1596,5.1596,5.1596,5.1267,5.0778,5.0588,5.0327,4.9767,4.959,4.959,4.959,4.9565,4.9565,4.9493,4.9364,4.917,4.8812,4.851,4.8101,4.7755,4.751,4.7386,4.7305,4.7377,4.7449,4.7425,4.7473,4.7449,4.7497,4.7497,4.7497,4.7497,4.7497,4.7497,4.7497,4.7497,4.7497,4.7497,4.7497,4.7497,4.7497,4.7497,4.7497,4.7497,4.7497,4.7497,4.8661,4.9176,4.9255,4.9322,4.94,4.9625,4.9411,4.9005,4.9128,4.9229,4.9168,4.9168,4.9342,4.9599,4.9641,4.9812,5.001,5.0095,5.0263,5.0543,5.0669,5.0947,5.1266,5.1362,5.1417,5.15,5.1664,5.1773,5.1869,5.1995,5.2299,5.2518,5.311,5.3517,5.3834,5.4066,5.4215,5.4281,5.4485,5.4592,5.4677,5.5055,5.5242,5.5229,5.5173,5.4859,5.4476,5.4468,5.4401,5.3909,5.4429,5.4429,5.4147,5.3965,5.3922,5.3935,5.346,5.317,5.3034,5.2913,5.2859,5.2859,5.3239,5.351,5.3401,5.2937,5.2585,5.2335,5.2048,5.1596,5.1596,5.1596,5.1267,5.0794,5.0588,5.0295,4.9783,4.959,4.959,4.959,4.959,4.959,4.959,4.9509,4.9332,4.9137,4.8821,4.8477,4.8108,4.7779,4.7597,4.7497,4.7497,4.7497,4.7497,4.7497,4.7497,4.7497,4.7497,4.7497,4.7497,4.7497,4.7497,4.7497,4.7497,4.7497,4.7497,4.7497,4.7497,4.7497,4.7497,4.7497,4.7497,4.7497,4.7497,4.9145,4.9475,4.9988,5.0337,5.059,5.0664,5.0318,4.9839,4.9859,4.9725,4.9592,4.954,4.9763,4.9881,4.9925,5.0122,5.0332,5.0403,5.0571,5.0864,5.1045,5.1321,5.1515,5.1777,5.1803,5.1732,5.1926,5.2133,5.2284,5.2648,5.3096,5.3443,5.4039,5.4505,5.4698,5.4835,5.4999,5.5108,5.5231,5.5258,5.5316,5.5461,5.5577,5.5577,5.5606,5.5262,5.4877,5.5052,5.5041,5.457,5.5033,5.5229,5.5117,5.5074,5.4958,5.4668,5.4318,5.3954,5.3742,5.3548,5.3459,5.3483,5.3537,5.3592,5.344,5.3029,5.2619,5.2384,5.2001,5.1596,5.1596,5.1596,5.1267,5.0826,5.0541,5.0343,4.9783,4.959,4.959,4.959,4.959,4.959,4.959,4.9574,4.9445,4.9234,4.8951,4.8641,4.8305,4.7927,4.7597,4.753,4.7497,4.7497,4.7497,4.7497,4.7497,4.7497,4.7497,4.7497,4.7497,4.7497,4.7497,4.7497,4.7497,4.7497,4.7497,4.7497,4.7497,4.7497,4.7497,4.7497,4.7497,4.7497,4.7497,4.9678,5.0292,5.0887,5.1216,5.1381,5.1519,5.1258,5.0805,5.0883,5.0868,5.0781,5.0743,5.0612,5.051,5.0471,5.0533,5.0569,5.0669,5.0878,5.1155,5.1321,5.171,5.2043,5.2374,5.271,5.2962,5.3157,5.2986,5.2829,5.3547,5.4024,5.443,5.5015,5.5441,5.5663,5.5732,5.5801,5.5925,5.5896,5.5896,5.5968,5.6157,5.6332,5.6374,5.6333,5.607,5.5679,5.5709,5.5651,5.5233,5.5355,5.5468,5.551,5.5467,5.5349,5.5011,5.4743,5.4446,5.4119,5.3788,5.3592,5.3592,5.3577,5.3577,5.3425,5.3002,5.2481,5.2094,5.1923,5.1596,5.1596,5.1596,5.1267,5.0778,5.0588,5.027,4.9815,4.9647,4.9665,4.969,4.969,4.969,4.959,4.9558,4.9509,4.9315,4.904,4.878,4.8518,4.8141,4.7762,4.7712,4.7679,4.7563,4.7547,4.7514,4.7497,4.7497,4.7497,4.7497,4.7497,4.7497,4.7497,4.7497,4.7497,4.7497,4.7497,4.7497,4.7497,4.7497,4.7497,4.7497,4.7497,4.7497,4.7497,5.0321,5.1246,5.183,5.2101,5.2207,5.2379,5.2161,5.1789,5.1858,5.1851,5.1784,5.173,5.1517,5.1292,5.1271,5.1237,5.1054,5.1362,5.1655,5.1933,5.2003,5.2337,5.2881,5.3258,5.358,5.4017,5.4567,5.4394,5.3912,5.4464,5.4986,5.5381,5.5926,5.6355,5.6522,5.6522,5.6578,5.6564,5.6564,5.6564,5.6709,5.7042,5.7303,5.7303,5.7303,5.692,5.6308,5.6266,5.6006,5.5629,5.551,5.551,5.551,5.551,5.532,5.498,5.4699,5.4416,5.4056,5.3773,5.3577,5.3577,5.3577,5.3577,5.344,5.2972,5.2342,5.1768,5.1596,5.1596,5.1596,5.1596,5.1251,5.0794,5.0582,5.0417,5.0049,4.9891,5.0017,4.9992,4.9891,4.9791,4.9766,4.9574,4.9542,4.9445,4.9186,4.904,4.8763,4.8428,4.8133,4.8026,4.7911,4.7729,4.763,4.753,4.7514,4.7497,4.7497,4.7497,4.7497,4.7497,4.7497,4.7497,4.7497,4.7497,4.7497,4.7497,4.7497,4.7497,4.7497,4.7497,4.7497,4.7497,4.7497,5.1287,5.2149,5.2695,5.3116,5.3332,5.3365,5.3082,5.2568,5.257,5.2274,5.2005,5.1882,5.2016,5.2156,5.2404,5.2635,5.2737,5.2754,5.2868,5.3108,5.3178,5.3416,5.3866,5.395,5.4329,5.4851,5.5502,5.5398,5.5128,5.5542,5.5939,5.6279,5.6683,5.713,5.7057,5.7042,5.7202,5.7173,5.7158,5.7158,5.7158,5.7245,5.7303,5.7303,5.7261,5.7021,5.648,5.6365,5.612,5.5598,5.551,5.551,5.551,5.551,5.5159,5.4832,5.4563,5.4326,5.3818,5.3637,5.3577,5.3577,5.3577,5.3577,5.3334,5.2895,5.2265,5.1674,5.1596,5.1596,5.1596,5.1596,5.122,5.0951,5.0716,5.0604,5.0347,5.0343,5.0469,5.0636,5.0611,5.0234,4.9967,4.9766,4.9574,4.9461,4.9348,4.9218,4.904,4.8723,4.8412,4.8313,4.8198,4.7977,4.7779,4.7679,4.7563,4.753,4.7497,4.7497,4.7497,4.7497,4.7497,4.7497,4.7521,4.7593,4.7666,4.7642,4.7545,4.7642,4.781,4.769,4.7521,4.7521,4.7714,5.2167,5.2584,5.3136,5.3455,5.3577,5.3577,5.3456,5.3266,5.3212,5.3181,5.3097,5.3115,5.3101,5.3136,5.3094,5.3059,5.3229,5.3442,5.3542,5.3726,5.3824,5.4064,5.4531,5.4827,5.5194,5.5861,5.6373,5.6628,5.6441,5.6483,5.6813,5.6898,5.7158,5.726,5.7303,5.7303,5.7303,5.7303,5.7303,5.7303,5.7303,5.7303,5.7303,5.7303,5.7303,5.6964,5.6552,5.6394,5.6078,5.5642,5.551,5.551,5.5437,5.5305,5.4997,5.4639,5.4401,5.4101,5.3698,5.3634,5.3604,5.3604,5.3573,5.344,5.309,5.263,5.2167,5.1659,5.1596,5.1622,5.1622,5.1596,5.1422,5.1202,5.1075,5.1022,5.095,5.0919,5.1013,5.1188,5.1289,5.0912,5.0519,5.0243,4.9992,4.9642,4.9543,4.9429,4.9283,4.9072,4.8804,4.8567,4.8412,4.8256,4.8042,4.7861,4.7679,4.7597,4.7497,4.7497,4.7497,4.7497,4.7593,4.7714,4.7834,4.7882,4.7906,4.7954,4.8002,4.8098,4.8195,4.8171,4.8171,4.8356,4.8476,5.279,5.2968,5.3387,5.3652,5.3713,5.3728,5.3773,5.3848,5.3863,5.3999,5.4206,5.4244,5.4189,5.4065,5.3911,5.393,5.3846,5.4033,5.4119,5.4147,5.4318,5.4757,5.5296,5.5723,5.6235,5.7007,5.7032,5.7145,5.7217,5.726,5.7217,5.7303,5.7274,5.7303,5.7303,5.7303,5.7303,5.7303,5.7303,5.7303,5.7303,5.7303,5.7303,5.7303,5.7247,5.7007,5.6494,5.6408,5.6092,5.5627,5.551,5.551,5.5467,5.5203,5.4908,5.465,5.4491,5.4312,5.3973,5.3754,5.37,5.3778,5.3846,5.3801,5.309,5.2557,5.2176,5.1915,5.1648,5.1701,5.1779,5.1858,5.1791,5.1733,5.1632,5.1557,5.1522,5.1506,5.1649,5.1925,5.1975,5.1724,5.1322,5.0896,5.0469,4.9941,4.9741,4.9615,4.9477,4.9315,4.9211,4.8984,4.8796,4.8666,4.8502,4.8256,4.7984,4.7809,4.771,4.7699,4.7795,4.7851,4.793,4.805,4.8219,4.8363,4.85,4.85,4.8524,4.8572,4.8669,4.8861,4.8981,4.9126,4.9126,5.3022,5.3537,5.3607,5.3788,5.4059,5.4074,5.4251,5.4416,5.4503,5.449,5.4595,5.479,5.4867,5.4916,5.501,5.5114,5.5255,5.5341,5.5244,5.5346,5.5703,5.5822,5.618,5.6494,5.6849,5.7191,5.7289,5.7289,5.7303,5.7303,5.7303,5.7303,5.7303,5.7303,5.7303,5.7303,5.7303,5.7303,5.7303,5.7303,5.7303,5.7303,5.7303,5.7289,5.7247,5.7021,5.6437,5.638,5.6206,5.5652,5.5636,5.5763,5.5789,5.5421,5.5137,5.4966,5.4865,5.4697,5.4455,5.4134,5.3983,5.4329,5.4491,5.4284,5.3588,5.3187,5.2791,5.2454,5.2161,5.2093,5.2276,5.2421,5.2384,5.2349,5.2305,5.2207,5.2161,5.2068,5.2251,5.2636,5.2611,5.2285,5.2,5.1523,5.0795,5.0243,4.9715,4.959,4.959,4.9477,4.9568,4.9448,4.9269,4.9139,4.9066,4.8862,4.8746,4.8496,4.8312,4.8259,4.8279,4.8317,4.8356,4.862,4.8813,4.8933,4.9078,4.9198,4.9222,4.9119,4.9191,4.9462,4.9535,4.9559,4.9462,5.3675,5.3924,5.4131,5.4176,5.4119,5.4326,5.4475,5.4592,5.4607,5.4684,5.4877,5.5144,5.5305,5.5349,5.5393,5.551,5.551,5.551,5.5613,5.5773,5.5961,5.6265,5.6595,5.6822,5.7007,5.7247,5.7303,5.7303,5.7303,5.7303,5.7303,5.7303,5.7303,5.7303,5.7303,5.7303,5.7303,5.7303,5.7303,5.7303,5.7303,5.7303,5.7303,5.7303,5.7078,5.6837,5.6437,5.6236,5.613,5.6063,5.603,5.6212,5.6375,5.6027,5.5725,5.5526,5.5416,5.5201,5.5088,5.4809,5.4747,5.4579,5.4635,5.4411,5.3962,5.3475,5.3252,5.2987,5.2825,5.2746,5.2955,5.307,5.3033,5.305,5.2996,5.2876,5.2734,5.2597,5.2511,5.277,5.282,5.2711,5.2435,5.2109,5.1306,5.0528,5.0001,4.9615,4.9665,4.9766,4.9866,5.0026,4.9896,4.9924,4.9875,4.9719,4.9543,4.9244,4.8952,4.8937,4.893,4.8816,4.8902,4.9167,4.939,4.9511,4.9679,4.992,4.9895,4.9679,4.9847,5.0184,5.0136,4.9974,4.9902,5.4149,5.4281,5.458,5.4595,5.4418,5.4624,5.4788,5.4847,5.4877,5.4965,5.5159,5.5408,5.551,5.551,5.551,5.551,5.554,5.5627,5.5816,5.599,5.6221,5.6509,5.6794,5.7022,5.7134,5.7275,5.7303,5.7303,5.7303,5.7303,5.7303,5.7303,5.7303,5.7303,5.7303,5.7303,5.7303,5.7303,5.7303,5.7303,5.7303,5.7303,5.7303,5.7261,5.7049,5.6766,5.6523,5.6363,5.6354,5.6429,5.6577,5.6869,5.6895,5.6771,5.6418,5.6165,5.5948,5.5681,5.565,5.5539,5.5339,5.5006,5.4954,5.4637,5.4218,5.387,5.3667,5.3625,5.3504,5.3468,5.3573,5.3645,5.3733,5.3753,5.3515,5.3385,5.3156,5.3001,5.2872,5.287,5.287,5.287,5.2636,5.2285,5.1481,5.0695,4.9992,4.9791,4.9992,5.0092,5.0243,5.0444,5.062,5.0713,5.0805,5.048,5.0163,5.0022,4.9778,4.9718,4.9677,4.9527,4.9562,4.983,5.0022,5.0112,5.0208,5.0311,5.0287,5.0208,5.0359,5.0503,5.0503,5.0359,5.0455,5.4326,5.4595,5.4878,5.4982,5.4967,5.4997,5.5144,5.5364,5.5421,5.5408,5.5423,5.5496,5.551,5.551,5.554,5.5598,5.5642,5.5845,5.6034,5.6193,5.6523,5.6823,5.6993,5.712,5.7233,5.7289,5.7303,5.7303,5.7303,5.7303,5.7303,5.7303,5.7303,5.7303,5.7303,5.7303,5.7303,5.7303,5.7303,5.7303,5.7303,5.7303,5.7303,5.7233,5.695,5.6652,5.6694,5.6587,5.6619,5.6833,5.7182,5.7342,5.7233,5.6926,5.6543,5.6201,5.6266,5.6251,5.6246,5.5943,5.5607,5.5295,5.5242,5.5185,5.496,5.4576,5.421,5.4184,5.3896,5.3844,5.4001,5.422,5.4335,5.4208,5.3985,5.3708,5.3478,5.3153,5.2981,5.2895,5.2895,5.287,5.2711,5.2377,5.1599,5.082,5.0042,4.9941,5.0318,5.0494,5.067,5.0971,5.1272,5.1423,5.1447,5.1079,5.0812,5.0678,5.0641,5.0638,5.0501,5.0333,5.0391,5.0526,5.0479,5.0407,5.0527,5.0654,5.0551,5.0455,5.0551,5.0654,5.0678,5.0678,5.0678,5.476,5.4906,5.5203,5.532,5.5335,5.532,5.5393,5.5481,5.551,5.551,5.551,5.551,5.551,5.5554,5.5715,5.583,5.5903,5.612,5.6322,5.6609,5.6837,5.7007,5.7163,5.7219,5.7303,5.7303,5.7303,5.7303,5.7303,5.7303,5.7303,5.7303,5.7361,5.7303,5.7303,5.7303,5.7303,5.7303,5.7303,5.7303,5.7303,5.7303,5.7289,5.7275,5.6865,5.6752,5.6951,5.6853,5.6979,5.7435,5.7869,5.791,5.788,5.7636,5.7335,5.7031,5.704,5.6762,5.6537,5.6197,5.5838,5.5597,5.5479,5.5415,5.5113,5.4942,5.4811,5.4759,5.4524,5.455,5.4759,5.4785,5.4758,5.4415,5.4139,5.381,5.3529,5.3136,5.2895,5.2895,5.2895,5.2895,5.2795,5.2611,5.1975,5.1649,5.1021,5.0761,5.0987,5.1063,5.1188,5.1574,5.1858,5.2059,5.2091,5.1788,5.1729,5.1693,5.1672,5.1679,5.1466,5.0993,5.0776,5.067,5.0665,5.0678,5.0678,5.0678,5.0678,5.0678,5.0678,5.0678,5.0678,5.0678,5.0678,5.507,5.5188,5.5408,5.551,5.551,5.551,5.551,5.551,5.551,5.551,5.551,5.551,5.5583,5.5715,5.5903,5.6077,5.6149,5.6451,5.6623,5.6908,5.6993,5.7134,5.7247,5.7303,5.7303,5.7303,5.7303,5.7303,5.7303,5.7303,5.7303,5.7361,5.7521,5.771,5.7652,5.7536,5.7303,5.7303,5.7303,5.7303,5.7303,5.7289,5.7247,5.7122,5.6967,5.6922,5.7102,5.7259,5.7407,5.8107,5.8392,5.8445,5.8451,5.8214,5.788,5.7544,5.7335,5.6947,5.6497,5.6275,5.5855,5.5429,5.5422,5.5332,5.5149,5.5046,5.5046,5.5046,5.5099,5.5072,5.5072,5.5099,5.4872,5.4511,5.4157,5.3827,5.3495,5.3118,5.2895,5.2895,5.2895,5.2895,5.287,5.2711,5.2402,5.2251,5.2076,5.185,5.1615,5.1641,5.1699,5.2059,5.2293,5.2426,5.2594,5.261,5.2574,5.2715,5.2498,5.2179,5.1702,5.1083,5.0959,5.0802,5.0731,5.0678,5.0678,5.0678,5.0678,5.0678,5.0678,5.0678,5.0678,5.0678,5.0678,5.5203,5.5481,5.551,5.551,5.551,5.551,5.551,5.551,5.551,5.551,5.554,5.5554,5.5729,5.5961,5.6034,5.6207,5.6466,5.6766,5.6894,5.7007,5.7148,5.7261,5.7289,5.7303,5.7303,5.7318,5.7405,5.7565,5.739,5.771,5.7681,5.7652,5.8145,5.8261,5.8174,5.7971,5.7681,5.7594,5.7536,5.7477,5.7361,5.7247,5.7207,5.7139,5.7153,5.719,5.7451,5.7716,5.8083,5.8423,5.8572,5.8439,5.823,5.788,5.7544,5.7303,5.7206,5.6752,5.6295,5.6132,5.5753,5.5299,5.5165,5.5115,5.5099,5.5099,5.5099,5.5099,5.5099,5.5099,5.5099,5.4956,5.4839,5.4486,5.4106,5.3776,5.3444,5.317,5.2964,5.2895,5.2895,5.2895,5.2895,5.277,5.2661,5.2636,5.2511,5.241,5.2184,5.2109,5.226,5.2519,5.2702,5.2743,5.2809,5.2705,5.255,5.2377,5.2342,5.2057,5.1604,5.1176,5.1007,5.0837,5.0731,5.0678,5.0678,5.0678,5.0678,5.0678,5.0678,5.0678,5.0678,5.0678,5.0678,5.5408,5.5496,5.551,5.551,5.551,5.551,5.551,5.551,5.551,5.5598,5.5874,5.5859,5.6019,5.6293,5.6537,5.6666,5.6837,5.7007,5.7134,5.7248,5.7348,5.7318,5.7361,5.7419,5.7361,5.7536,5.7739,5.8015,5.8145,5.8348,5.8639,5.8842,5.8871,5.8987,5.8929,5.8798,5.8479,5.8174,5.8087,5.7826,5.748,5.7294,5.734,5.7456,5.7307,5.7468,5.8025,5.8177,5.8518,5.8859,5.8749,5.8546,5.8214,5.788,5.756,5.7222,5.6963,5.6633,5.6181,5.5885,5.5554,5.5232,5.5099,5.5099,5.5099,5.5099,5.5099,5.5099,5.5099,5.5099,5.5015,5.4872,5.4654,5.4301,5.3929,5.3572,5.3273,5.3084,5.2895,5.2895,5.2895,5.2895,5.2895,5.287,5.2795,5.287,5.2845,5.2744,5.2669,5.2569,5.25,5.2734,5.2723,5.2654,5.2446,5.229,5.2134,5.1995,5.196,5.1831,5.1429,5.1071,5.0972,5.0873,5.0731,5.0678,5.0678,5.0678,5.0678,5.0678,5.0678,5.0678,5.0678,5.0678,5.0678,5.551,5.551,5.551,5.551,5.551,5.5627,5.5671,5.5685,5.5685,5.5845,5.5976,5.6106,5.6322,5.658,5.6794,5.6936,5.7078,5.7176,5.7275,5.7333,5.7594,5.771,5.7739,5.7942,5.8174,5.8261,5.8406,5.8697,5.8842,5.9016,5.9248,5.9248,5.9451,5.9626,5.9713,5.9829,5.9684,5.9219,5.8813,5.8493,5.8103,5.7715,5.7888,5.787,5.7614,5.8056,5.8484,5.8508,5.8821,5.893,5.8688,5.8341,5.8007,5.7688,5.7351,5.7028,5.686,5.6437,5.5984,5.5736,5.5448,5.5199,5.5099,5.5099,5.5099,5.5099,5.5099,5.5099,5.5099,5.5065,5.4922,5.4755,5.4419,5.4039,5.3691,5.3341,5.3118,5.2947,5.2895,5.2895,5.2895,5.2895,5.2895,5.2895,5.2895,5.2895,5.2895,5.287,5.282,5.277,5.2607,5.2604,5.2533,5.2412,5.2169,5.1925,5.1786,5.1639,5.1569,5.1411,5.1106,5.0972,5.0855,5.0767,5.0696,5.0678,5.0678,5.0678,5.0678,5.0678,5.0678,5.0678,5.0678,5.0678,5.0678,5.551,5.551,5.551,5.5525,5.5583,5.5859,5.6004,5.6048,5.6063,5.6077,5.6149,5.6351,5.6637,5.6894,5.6993,5.7078,5.7263,5.742,5.7565,5.7448,5.8116,5.8377,5.8552,5.8929,5.8871,5.9161,5.9393,5.9451,5.948,5.9684,5.9756,5.9466,6.0003,6.0293,6.0351,6.07,6.0555,6.0177,5.9668,5.9291,5.9001,5.8811,5.8632,5.842,5.8389,5.8581,5.8579,5.8734,5.9002,5.8704,5.8341,5.8007,5.7672,5.7431,5.7093,5.6785,5.6665,5.623,5.5819,5.5554,5.5355,5.5199,5.5099,5.5099,5.5099,5.5099,5.5099,5.5099,5.5099,5.4972,5.4839,5.4553,5.4216,5.3861,5.3487,5.3221,5.3015,5.2895,5.2895,5.2895,5.2895,5.2895,5.2895,5.2895,5.2895,5.2895,5.2895,5.2895,5.2792,5.2792,5.2636,5.2404,5.2144,5.1953,5.1778,5.1569,5.1411,5.1306,5.1236,5.1113,5.0901,5.0802,5.0696,5.0678,5.0678,5.0678,5.0678,5.0678,5.0678,5.0678,5.0678,5.0678,5.0678,5.0696,5.0678,5.551,5.551,5.551,5.5627,5.5888,5.5975,5.612,5.6308,5.658,5.6666,5.6695,5.6766,5.6908,5.7134,5.7249,5.732,5.7406,5.787,5.8029,5.8261,5.8755,5.9045,5.9074,5.9364,5.9422,5.948,5.9742,6.0206,6.0438,6.0613,6.07,6.07,6.0874,6.0845,6.0874,6.1193,6.1019,6.0801,6.0433,5.9779,5.9156,5.8747,5.842,5.8475,5.861,5.871,5.8734,5.8799,5.8829,5.8625,5.8087,5.7688,5.7319,5.7238,5.7012,5.673,5.6377,5.6,5.5654,5.5398,5.5215,5.5165,5.5099,5.5099,5.5099,5.5099,5.5082,5.5082,5.5032,5.4872,5.4671,5.4335,5.4014,5.3657,5.3324,5.3118,5.2912,5.2912,5.2895,5.2895,5.2895,5.2895,5.2895,5.2895,5.2895,5.2895,5.2895,5.2826,5.2585,5.2498,5.2352,5.2109,5.1649,5.1439,5.1341,5.1236,5.1095,5.1014,5.0943,5.082,5.0713,5.0696,5.0678,5.0678,5.0678,5.0678,5.0678,5.0678,5.0678,5.0678,5.0678,5.0678,5.0713,5.0731,5.0696,5.551,5.551,5.5656,5.5889,5.6164,5.6336,5.6494,5.6666,5.6936,5.7092,5.7092,5.7107,5.7177,5.7405,5.7579,5.7725,5.7884,5.8435,5.8668,5.8929,5.9335,5.9597,5.9771,5.9945,6.0206,6.0293,6.0467,6.0874,6.1135,6.1164,6.1106,6.1193,6.1193,6.1193,6.1193,6.1193,6.1193,6.1149,6.0877,6.0189,5.9378,5.9105,5.8992,5.9056,5.8941,5.8968,5.8884,5.8861,5.8641,5.8341,5.7816,5.7496,5.7206,5.7028,5.6769,5.6426,5.6066,5.572,5.5448,5.5232,5.5099,5.5099,5.5099,5.5099,5.5032,5.4972,5.4788,5.4772,5.4772,5.4628,5.4318,5.398,5.3793,5.3529,5.3221,5.2964,5.2895,5.2895,5.2895,5.2895,5.2895,5.2895,5.2895,5.2895,5.2878,5.2843,5.2843,5.2654,5.2429,5.2117,5.2005,5.1831,5.1369,5.1095,5.0989,5.0925,5.082,5.0713,5.0678,5.0696,5.0696,5.0696,5.0678,5.0678,5.0678,5.0678,5.0678,5.0678,5.0678,5.0678,5.0678,5.0678,5.0731,5.082,5.0908,5.5525,5.5598,5.5903,5.6207,5.6466,5.6766,5.6908,5.6993,5.7292,5.7448,5.7507,5.7594,5.7536,5.7652,5.8073,5.8276,5.861,5.9132,5.9364,5.9568,6.0061,6.0264,6.0526,6.0816,6.0889,6.0976,6.1048,6.1077,6.1164,6.1193,6.1193,6.1193,6.1193,6.1193,6.1193,6.1193,6.1178,6.1013,6.0756,6.0438,6.0119,5.984,5.9645,5.9475,5.9361,5.9189,5.9049,5.8814,5.8483,5.8071,5.7592,5.7351,5.7109,5.6915,5.6557,5.623,5.5868,5.5505,5.5232,5.5132,5.5099,5.5099,5.5099,5.5049,5.4956,5.4772,5.4561,5.4393,5.4393,5.4275,5.3946,5.3725,5.358,5.3375,5.3084,5.2895,5.2895,5.2895,5.2895,5.2895,5.2895,5.2895,5.2895,5.2895,5.2826,5.2792,5.2636,5.2446,5.2186,5.1778,5.1534,5.1394,5.1113,5.089,5.0749,5.0713,5.0678,5.0678,5.0678,5.0678,5.0678,5.0678,5.0678,5.0678,5.0678,5.0678,5.0678,5.0678,5.0678,5.0678,5.0678,5.0713,5.0901,5.1007,5.1183,5.5642,5.5918,5.6207,5.6509,5.6794,5.6923,5.7036,5.7321,5.7841,5.8116,5.8232,5.8639,5.8653,5.8145,5.8813,5.9103,5.919,5.9742,5.9974,6.0119,6.0613,6.0889,6.1005,6.1048,6.1164,6.1193,6.1193,6.1193,6.1193,6.1193,6.1193,6.1193,6.1193,6.1193,6.1193,6.1178,6.1088,6.0877,6.0514,6.0194,5.9946,5.9699,5.9516,5.9361,5.922,5.9017,5.8798,5.8483,5.8135,5.7784,5.7447,5.7238,5.7012,5.6785,5.6426,5.6049,5.5703,5.5405,5.5199,5.5115,5.5099,5.5082,5.5049,5.4889,5.4755,5.4528,5.4258,5.3878,5.3844,5.3844,5.3631,5.3521,5.341,5.317,5.2895,5.2895,5.2895,5.2895,5.2895,5.2895,5.2895,5.2895,5.2895,5.2826,5.2705,5.2619,5.2412,5.2161,5.1691,5.1376,5.1095,5.0972,5.0873,5.0784,5.0696,5.0696,5.0678,5.0678,5.0678,5.0678,5.0678,5.0678,5.0678,5.0678,5.0678,5.0678,5.0678,5.0678,5.0678,5.0678,5.0678,5.0749,5.0972,5.1236,5.1411]}]]